[[{"header":{"parameterUnit":"m.s-1","parameterCategory":1,"la1":31.0,"la2":29.5877,"lo1":-88.7671,"lo2":-86.6584,"dy":0.0162,"dx":0.0185,"nx":115,"ny":88,"refTime":"2024-07-03T00:00:00:Z","depth":0,"parameterNumber":2,"parameterNumberName":"U-component_of_WINDS"},"data":[0.0,0.0,0.0,0.0,0.0,0.0,0.0,0.0,0.0,0.0,0.0,0.0,0.0,0.0,0.0,0.0,0.0,0.0,0.0,0.0,0.0,0.0,0.0,0.0,0.0,0.0,0.0,0.0,0.0,0.0,0.0,0.0,0.0,0.0,0.0,0.0,0.0,0.0,0.0,0.0,0.0,0.0,0.0,0.0,0.0,0.0,0.0,0.0,0.0,0.0,0.0,0.0,0.0,0.0,0.0,0.0,0.0,0.0,0.0,0.0,0.0,0.0,0.0,0.0,0.0,0.0,0.0,0.0,0.0,0.0,0.0,0.0,0.0,0.0,0.0,0.0,0.0,0.0,0.0,0.0,0.0,0.0,0.0,0.0,0.0,0.0,0.0,0.0,0.0,0.0,0.0,0.0,0.0,0.0,0.0,0.0,0.0,0.0,0.0,0.0,0.0,0.0,0.0,0.0,0.0,0.0,0.0,0.0,0.0,0.0,0.0,0.0,0.0,0.0,0.0,0.0,0.0,0.0,0.0,0.0,0.0,0.0,0.0,0.0,0.0,0.0,0.0,0.0,0.0,0.0,0.0,0.0,0.0,0.0,0.0,0.0,0.0,0.0,0.0,0.0,0.0,0.0,0.0,0.0,0.0,0.0,0.0,0.0,0.0,0.0,0.0,0.0,0.0,0.0,0.0,0.0,0.0,0.0,0.0,0.0,0.0,0.0,0.0,0.0,0.0,0.0,0.0,0.0,0.0,0.0,0.0,0.0,0.0,0.0,0.0,0.0,0.0,0.0,0.0,0.0,0.0,0.0,0.0,0.0,0.0,0.0,0.0,0.0,0.0,0.0,0.0,0.0,0.0,0.0,0.0,0.0,0.0,0.0,0.0,0.0,0.0,0.0,0.0,0.0,0.0,0.0,0.0,0.0,0.0,0.0,0.0,0.0,0.0,0.0,0.0,0.0,0.0,0.0,0.0,0.0,0.0,0.0,0.0,0.0,0.0,0.0,0.0,0.0,0.0,0.0,0.0,0.0,0.0,0.0,0.0,0.0,0.0,0.0,0.0,0.0,0.0,0.0,0.0,0.0,0.0,0.0,0.0,0.0,0.0,0.0,0.0,0.0,0.0,0.0,0.0,0.0,0.0,0.0,0.0,0.0,0.0,0.0,0.0,0.0,0.0,0.0,0.0,0.0,0.0,0.0,0.0,0.0,0.0,0.0,0.0,0.0,0.0,0.0,0.0,0.0,0.0,0.0,0.0,0.0,0.0,0.0,0.0,0.0,0.0,0.0,0.0,0.0,0.0,0.0,0.0,0.0,0.0,0.0,0.0,0.0,0.0,0.0,0.0,0.0,0.0,0.0,0.0,0.0,0.0,0.0,0.0,0.0,0.0,0.0,0.0,0.0,0.0,0.0,0.0,0.0,0.0,0.0,0.0,0.0,0.0,0.0,0.0,0.0,0.0,0.0,0.0,0.0,0.0,0.0,0.0,0.0,0.0,0.0,0.0,0.0,0.0,0.0,0.0,0.0,0.0,0.0,0.0,0.0,0.0,0.0,0.0,0.0,0.0,0.0,0.0,0.0,0.0,0.0,0.0,0.0,0.0,0.0,0.0,0.0,0.0,0.0,0.0,0.0,0.0,0.0,0.0,0.0,0.0,0.0,0.0,0.0,0.0,0.0,0.0,0.0,0.0,0.0,0.0,0.0,0.0,0.0,0.0,0.0,0.0,0.0,0.0,0.0,0.0,0.0,0.0,0.0,0.0,0.0,0.0,0.0,0.0,0.0,0.0,0.0,0.0,0.0,0.0,0.0,0.0,0.0,0.0,0.0,0.0,0.0,0.0,0.0,0.0,0.0,0.0,0.0,0.0,0.0,0.0,0.0,0.0,0.0,0.0,0.0,0.0,0.0,0.0,0.0,0.0,0.0,0.0,0.0,0.0,0.0,0.0,0.0,0.0,0.0,0.0,0.0,0.0,0.0,0.0,0.0,0.0,0.0,0.0,0.0,0.0,0.0,0.0,0.0,0.0,0.0,0.0,0.0,0.0,0.0,0.0,0.0,0.0,0.0,0.0,0.0,0.0,0.0,0.0,0.0,0.0,0.0,0.0,0.0,0.0,0.0,0.0,0.0,0.0,0.0,0.0,0.0,0.0,0.0,0.0,0.0,0.0,0.0,0.0,0.0,0.0,0.0,0.0,0.0,0.0,0.0,0.0,0.0,0.0,0.0,0.0,0.0,0.0,0.0,0.0,0.0,0.0,0.0,0.0,0.0,0.0,0.0,0.0,0.0,0.0,0.0,0.0,0.0,0.0,0.0,0.0,0.0,0.0,0.0,0.0,0.0,0.0,0.0,0.0,0.0,0.0,0.0,0.0,0.0,0.0,0.0,0.0,0.0,0.0,0.0,0.0,0.0,0.0,0.0,0.0,0.0,0.0,0.0,0.0,0.0,0.0,0.0,0.0,0.0,0.0,0.0,0.0,0.0,0.0,0.0,0.0,0.0,0.0,0.0,0.0,0.0,0.0,0.0,0.0,0.0,0.0,0.0,0.0,0.0,0.0,0.0,0.0,0.0,0.0,0.0,0.0,0.0,0.0,0.0,0.0,0.0,0.0,0.0,0.0,0.0,0.0,0.0,0.0,0.0,0.0,0.0,0.0,0.0,0.0,0.0,0.0,0.0,0.0,0.0,0.0,0.0,0.0,0.0,0.0,0.0,0.0,0.0,0.0,0.0,0.0,0.0,0.0,0.0,0.0,0.0,0.0,0.0,0.0,0.0,0.0,0.0,0.0,0.0,0.0,0.0,0.0,0.0,0.0,0.0,0.0,0.0,0.0,0.0,0.0,0.0,0.0,0.0,0.0,0.0,0.0,0.0,0.0,0.0,0.0,0.0,0.0,0.0,0.0,0.0,0.0,0.0,0.0,0.0,0.0,0.0,0.0,0.0,0.0,0.0,0.0,0.0,0.0,0.0,0.0,0.0,0.0,0.0,0.0,0.0,0.0,0.0,0.0,0.0,0.0,0.0,0.0,0.0,0.0,0.0,0.0,0.0,0.0,0.0,0.0,0.0,0.0,0.0,0.0,0.0,0.0,0.0,0.0,0.0,0.0,0.0,0.0,0.0,0.0,0.0,0.0,0.0,0.0,0.0,0.0,0.0,0.0,0.0,0.0,0.0,0.0,0.0,0.0,0.0,0.0,0.0,0.0,0.0,0.0,0.0,0.0,0.0,0.0,0.0,0.0,0.0,0.0,0.0,0.0,0.0,0.0,0.0,0.0,0.0,0.0,0.0,0.0,0.0,0.0,0.0,0.0,0.0,0.0,0.0,0.0,0.0,0.0,0.0,0.0,0.0,0.0,0.0,0.0,0.0,0.0,0.0,0.0,0.0,0.0,0.0,0.0,0.0,0.0,0.0,0.0,0.0,0.0,0.0,0.0,0.0,0.0,0.0,0.0,0.0,0.0,0.0,0.0,0.0,0.0,0.0,0.0,0.0,0.0,0.0,0.0,0.0,0.0,0.0,0.0,0.0,0.0,0.0,0.0,0.0,0.0,0.0,0.0,0.0,0.0,0.0,0.0,0.0,0.0,0.0,0.0,0.0,0.0,0.0,0.0,0.0,0.0,0.0,0.0,0.0,0.0,0.0,0.0,0.0,0.0,0.0,0.0,0.0,0.0,0.0,0.0,0.0,0.0,0.0,0.0,0.0,0.0,0.0,0.0,0.0,0.0,0.0,0.0,0.0,0.0,0.0,0.0,0.0,0.0,0.0,0.0,0.0,0.0,0.0,0.0,0.0,0.0,0.0,0.0,0.0,0.0,0.0,0.0,0.0,0.0,0.0,0.0,0.0,0.0,0.0,0.0,0.0,0.0,0.0,0.0,0.0,0.0,0.0,0.0,0.0,0.0,0.0,0.0,0.0,0.0,0.0,0.0,0.0,0.0,0.0,0.0,0.0,0.0,0.0,0.0,0.0,0.0,0.0,0.0,0.0,0.0,0.0,0.0,0.0,0.0,0.0,0.0,0.0,0.0,0.0,0.0,0.0,0.0,0.0,0.0,0.0,0.0,0.0,0.0,0.0,0.0,0.0,0.0,0.0,0.0,0.0,0.0,0.0,0.0,0.0,0.0,0.0,0.0,0.0,0.0,0.0,0.0,0.0,0.0,0.0,0.0,0.0,0.0,0.0,0.0,0.0,0.0,0.0,0.0,0.0,0.0,0.0,0.0,0.0,0.0,0.0,0.0,0.0,0.0,0.0,0.0,0.0,0.0,0.0,0.0,0.0,-0.3282,0.0,0.0,0.0,0.0,0.0,0.0,0.0,0.0,0.0,0.0,0.0,0.0,0.0,0.0,0.0,0.0,0.0,0.0,0.0,0.0,0.0,0.0,0.0,0.0,0.0,0.0,0.0,0.0,0.0,0.0,0.0,0.0,0.0,0.0,0.0,0.0,0.0,0.0,0.0,0.0,0.0,0.0,0.0,0.0,0.0,0.0,0.0,0.0,0.0,0.0,0.0,0.0,0.0,0.0,0.0,0.0,0.0,0.0,0.0,0.0,0.0,0.0,0.0,0.0,0.0,0.0,0.0,0.0,0.0,0.0,0.0,0.0,0.0,0.0,0.0,0.0,0.0,0.0,0.0,0.0,0.0,0.0,0.0,0.0,0.0,0.0,0.0,0.0,0.0,0.0,0.0,0.0,0.0,0.0,0.0,0.0,0.0,0.0,0.0,0.0,0.0,0.0,0.0,0.0,0.0,0.0,0.0,0.0,0.0,0.0,-0.3207,-0.3492,-0.3442,-0.3341,-0.3247,0.0,0.0,0.0,0.0,0.0,0.0,0.0,0.0,0.0,0.0,0.0,0.0,0.0,0.0,0.0,0.0,0.0,0.0,0.0,0.0,0.0,0.0,0.0,0.0,0.0,0.0,0.0,0.0,0.0,0.0,0.0,0.0,0.0,0.0,0.0,0.0,0.0,0.0,0.0,0.0,0.0,0.0,0.0,0.0,0.0,0.0,0.0,0.0,0.0,0.0,0.0,0.0,0.0,0.0,0.0,0.0,0.0,0.0,0.0,0.0,0.0,0.0,0.0,0.0,0.0,0.0,0.0,0.0,0.0,0.0,0.0,0.0,0.0,0.0,0.0,0.0,0.0,0.0,0.0,0.0,0.0,0.0,0.0,0.0,0.0,0.0,0.0,0.0,0.0,0.0,0.0,0.0,0.0,0.0,0.0,0.0,0.0,0.0,0.0,0.0,0.0,0.0,0.0,0.0,0.0,0.0,0.0,0.0,0.0,0.0,0.0,0.0,-0.3575,-0.3486,-0.3517,0.0,0.0,0.0,0.0,0.0,0.0,0.0,0.0,0.0,0.0,0.0,0.0,0.0,0.0,0.0,0.0,0.0,0.0,0.0,0.0,0.0,0.0,0.0,0.0,0.0,0.0,0.0,0.0,0.0,0.0,0.0,0.0,0.0,0.0,0.0,0.0,0.0,0.0,0.0,0.0,0.0,0.0,0.0,0.0,0.0,0.0,0.0,0.0,0.0,0.0,0.0,0.0,0.0,0.0,0.0,0.0,0.0,0.0,0.0,0.0,0.0,0.0,0.0,0.0,0.0,0.0,0.0,0.0,0.0,0.0,0.0,0.0,0.0,0.0,0.0,0.0,0.0,0.0,0.0,0.0,0.0,0.0,0.0,0.0,0.0,0.0,0.0,0.0,0.0,0.0,0.0,0.0,0.0,0.0,0.0,0.0,0.0,0.0,0.0,0.0,0.0,0.0,0.0,0.0,0.0,0.0,0.0,0.0,0.0,0.0,-0.3649,-0.3967,-0.3936,0.0,-0.4412,0.0,0.0,0.0,0.0,0.0,0.0,0.0,0.0,0.0,0.0,0.0,0.0,0.0,0.0,0.0,0.0,0.0,0.0,0.0,0.0,0.0,0.0,0.0,0.0,0.0,0.0,0.0,0.0,0.0,0.0,0.0,0.0,0.0,0.0,0.0,0.0,0.0,0.0,0.0,0.0,0.0,0.0,0.0,0.0,0.0,0.0,0.0,0.0,0.0,0.0,0.0,0.0,0.0,0.0,0.0,0.0,0.0,0.0,0.0,0.0,0.0,0.0,0.0,0.0,0.0,0.0,0.0,0.0,0.0,0.0,0.0,0.0,0.0,0.0,0.0,0.0,0.0,0.0,0.0,0.0,0.0,0.0,0.0,0.0,0.0,0.0,0.0,0.0,0.0,0.0,0.0,0.0,0.0,0.0,0.0,0.0,0.0,0.0,0.0,0.0,0.0,0.0,0.0,0.0,0.0,0.0,0.0,0.0,0.0,0.0,-0.3608,-0.3468,-0.3308,-0.3508,0.0,0.0,0.0,0.0,0.0,0.0,0.0,0.0,0.0,0.0,0.0,0.0,0.0,0.0,0.0,0.0,0.0,0.0,0.0,0.0,0.0,0.0,0.0,0.0,0.0,0.0,0.0,0.0,0.0,0.0,0.0,0.0,0.0,0.0,0.0,0.0,0.0,0.0,0.0,0.0,0.0,0.0,0.0,0.0,0.0,0.0,0.0,0.0,0.0,0.0,0.0,0.0,0.0,0.0,0.0,0.0,0.0,0.0,0.0,0.0,0.0,0.0,0.0,0.0,0.0,0.0,0.0,0.0,0.0,0.0,0.0,0.0,0.0,0.0,0.0,0.0,0.0,0.0,0.0,0.0,0.0,0.0,0.0,0.0,0.0,0.0,0.0,0.0,0.0,0.0,0.0,0.0,0.0,0.0,0.0,0.0,0.0,0.0,0.0,0.0,0.0,0.0,0.0,0.0,0.0,0.0,0.0,0.0,0.0,0.0,-0.3435,0.0,-0.341,-0.3331,-0.3557,-0.4128,0.0,0.0,0.0,0.0,0.0,0.0,0.0,0.0,0.0,0.0,0.0,0.0,0.0,0.0,0.0,0.0,0.0,0.0,0.0,0.0,0.0,0.0,0.0,0.0,0.0,0.0,0.0,0.0,0.0,0.0,0.0,0.0,0.0,0.0,0.0,0.0,0.0,0.0,0.0,0.0,0.0,0.0,0.0,0.0,0.0,0.0,0.0,0.0,0.0,0.0,0.0,0.0,0.0,0.0,0.0,0.0,0.0,0.0,0.0,0.0,0.0,0.0,0.0,0.0,0.0,0.0,0.0,0.0,0.0,0.0,0.0,0.0,0.0,0.0,0.0,0.0,0.0,0.0,0.0,0.0,0.0,0.0,0.0,0.0,0.0,0.0,0.0,0.0,0.0,0.0,0.0,0.0,0.0,0.0,0.0,0.0,0.0,0.0,0.0,0.0,0.0,0.0,0.0,0.0,0.0,0.0,0.0,0.0,0.0,-0.3177,-0.359,-0.4106,-0.4577,-0.4935,0.0,0.0,0.0,0.0,0.0,0.0,0.0,0.0,0.0,0.0,0.0,0.0,0.0,0.0,0.0,0.0,0.0,0.0,0.0,0.0,0.0,0.0,0.0,0.0,0.0,0.0,0.0,0.0,0.0,0.0,0.0,0.0,0.0,0.0,0.0,0.0,0.0,0.0,0.0,0.0,0.0,0.0,0.0,0.0,0.0,0.0,0.0,0.0,0.0,0.0,0.0,0.0,0.0,0.0,0.0,0.0,0.0,0.0,0.0,0.0,0.0,0.0,0.0,0.0,0.0,0.0,0.0,0.0,0.0,0.0,0.0,0.0,0.0,0.0,0.0,0.0,0.0,0.0,0.0,0.0,0.0,0.0,0.0,0.0,0.0,0.0,0.0,0.0,0.0,0.0,0.0,0.0,0.0,0.0,0.0,0.0,0.0,0.0,0.0,0.0,0.0,0.0,0.0,0.0,0.0,0.0,0.0,0.0,0.0,-0.2916,-0.2875,-0.3158,-0.3791,-0.3995,-0.4306,0.0,0.0,0.0,0.0,0.0,0.0,0.0,0.0,0.0,0.0,0.0,0.0,0.0,0.0,0.0,0.0,0.0,0.0,0.0,0.0,0.0,0.0,0.0,0.0,0.0,0.0,0.0,0.0,0.0,0.0,0.0,0.0,0.0,0.0,0.0,0.0,0.0,0.0,0.0,0.0,0.0,0.0,0.0,0.0,0.0,0.0,0.0,0.0,0.0,0.0,0.0,0.0,0.0,0.0,0.0,0.0,0.0,0.0,0.0,0.0,0.0,0.0,0.0,0.0,0.0,0.0,0.0,0.0,0.0,0.0,0.0,0.0,0.0,0.0,0.0,0.0,0.0,0.0,0.0,0.0,0.0,0.0,0.0,0.0,0.0,0.0,0.0,0.0,0.0,0.0,0.0,0.0,0.0,0.0,0.0,0.0,0.0,0.0,0.0,0.0,0.0,0.0,0.0,0.0,0.0,0.0,0.0,0.0,0.0,-0.3239,0.0,-0.3622,0.0,-0.4228,-0.4544,0.0,0.0,0.0,0.0,0.0,0.0,0.0,0.0,0.0,0.0,0.0,0.0,0.0,0.0,0.0,0.0,0.0,0.0,0.0,0.0,0.0,0.0,0.0,0.0,0.0,0.0,0.0,0.0,0.0,0.0,0.0,0.0,0.0,0.0,0.0,0.0,0.0,0.0,0.0,0.0,0.0,0.0,0.0,0.0,0.0,0.0,0.0,0.0,0.0,0.0,0.0,0.0,0.0,0.0,0.0,0.0,0.0,0.0,0.0,0.0,0.0,0.0,0.0,0.0,0.0,0.0,0.0,0.0,0.0,0.0,0.0,0.0,0.0,0.0,0.0,0.0,0.0,0.0,0.0,0.0,0.0,0.0,0.0,0.0,0.0,0.0,0.0,0.0,0.0,0.0,0.0,0.0,0.0,0.0,0.0,0.0,0.0,0.0,0.0,0.0,0.0,0.0,0.0,0.0,0.0,0.0,0.0,0.0,-0.3448,-0.402,-0.4769,-0.5091,-0.4958,-0.5515,-0.5837,0.0,0.0,0.0,0.0,0.0,0.0,0.0,0.0,0.0,0.0,0.0,0.0,0.0,0.0,0.0,0.0,0.0,0.0,0.0,0.0,0.0,0.0,0.0,0.0,0.0,0.0,0.0,0.0,0.0,0.0,0.0,0.0,0.0,0.0,0.0,0.0,0.0,0.0,0.0,0.0,0.0,0.0,0.0,0.0,0.0,0.0,0.0,0.0,0.0,0.0,0.0,0.0,0.0,0.0,0.0,0.0,0.0,0.0,0.0,0.0,0.0,0.0,0.0,0.0,0.0,0.0,0.0,0.0,0.0,0.0,0.0,0.0,0.0,0.0,0.0,0.0,0.0,0.0,0.0,0.0,0.0,0.0,0.0,0.0,0.0,0.0,0.0,0.0,0.0,0.0,0.0,0.0,0.0,0.0,0.0,0.0,0.0,0.0,0.0,0.0,0.0,0.0,0.0,0.0,0.0,0.0,0.0,0.0,0.0,-0.4992,-0.5655,-0.6131,-0.634,-0.6058,-0.6049,0.0,0.0,0.0,0.0,0.0,0.0,0.0,0.0,0.0,0.0,0.0,0.0,0.0,0.0,0.0,0.0,0.0,0.0,0.0,0.0,0.0,0.0,0.0,0.0,0.0,0.0,0.0,0.0,0.0,0.0,0.0,0.0,0.0,0.0,0.0,0.0,0.0,0.0,0.0,0.0,0.0,0.0,0.0,0.0,0.0,0.0,0.0,0.0,0.0,0.0,0.0,0.0,0.0,0.0,0.0,0.0,0.0,0.0,0.0,0.0,0.0,0.0,0.0,0.0,0.0,0.0,0.0,0.0,0.0,0.0,0.0,0.0,0.0,0.0,0.0,0.0,0.0,0.0,0.0,0.0,0.0,0.0,0.0,0.0,0.0,0.0,0.0,0.0,0.0,0.0,0.0,0.0,0.0,0.0,0.0,0.0,0.0,0.0,0.0,0.0,0.0,0.0,0.0,0.0,0.0,0.0,0.0,0.0,0.0,-0.7337,-0.7559,-0.7745,-0.7873,-0.7629,-0.7273,-0.6775,0.0,0.0,0.0,0.0,0.0,0.0,0.0,0.0,0.0,0.0,0.0,0.0,0.0,0.0,0.0,0.0,0.0,0.0,0.0,0.0,0.0,0.0,0.0,0.0,0.0,0.0,0.0,0.0,0.0,0.0,0.0,0.0,0.0,0.0,0.0,0.0,0.0,0.0,0.0,0.0,0.0,0.0,0.0,0.0,0.0,0.0,0.0,0.0,0.0,0.0,0.0,0.0,0.0,0.0,0.0,0.0,0.0,0.0,0.0,0.0,0.0,0.0,0.0,0.0,0.0,0.0,0.0,0.0,0.0,0.0,0.0,0.0,0.0,0.0,0.0,0.0,0.0,0.0,0.0,0.0,0.0,0.0,0.0,0.0,0.0,0.0,0.0,0.0,0.0,0.0,0.0,0.0,0.0,0.0,0.0,0.0,0.0,0.0,0.0,0.0,0.0,0.0,0.0,0.0,0.0,0.0,0.0,0.0,-1.0631,-1.0359,-1.0033,-0.9573,-0.9979,-0.9275,0.0,0.0,0.0,0.0,0.0,0.0,0.0,0.0,0.0,0.0,0.0,0.0,0.0,0.0,0.0,0.0,0.0,0.0,0.0,0.0,0.0,0.0,0.0,0.0,0.0,0.0,0.0,0.0,0.0,0.0,0.0,0.0,0.0,0.0,0.0,0.0,0.0,0.0,0.0,0.0,0.0,0.0,0.0,0.0,0.0,0.0,0.0,0.0,0.0,0.0,0.0,0.0,0.0,0.0,0.0,0.0,0.0,0.0,0.0,0.0,0.0,0.0,0.0,0.0,0.0,0.0,0.0,0.0,0.0,0.0,0.0,0.0,0.0,0.0,0.0,0.0,0.0,0.0,0.0,0.0,0.0,0.0,0.0,0.0,0.0,0.0,0.0,0.0,0.0,0.0,0.0,0.0,0.0,0.0,0.0,0.0,0.0,0.0,0.0,0.0,0.0,0.0,0.0,0.0,0.0,0.0,0.0,0.0,0.0,-1.2339,-1.3541,-1.3585,-1.235,-1.1318,-1.0238,0.0,0.0,0.0,0.0,0.0,0.0,0.0,0.0,0.0,0.0,0.0,0.0,0.0,0.0,0.0,0.0,0.0,0.0,0.0,0.0,0.0,0.0,0.0,0.0,0.0,0.0,0.0,0.0,0.0,0.0,0.0,0.0,0.0,0.0,0.0,0.0,0.0,0.0,0.0,0.0,0.0,0.0,0.0,0.0,0.0,0.0,0.0,0.0,0.0,0.0,0.0,0.0,0.0,0.0,0.0,0.0,0.0,0.0,0.0,0.0,0.0,0.0,0.0,0.0,0.0,0.0,0.0,0.0,0.0,0.0,0.0,0.0,0.0,0.0,0.0,0.0,0.0,0.0,0.0,0.0,0.0,0.0,0.0,0.0,0.0,0.0,0.0,0.0,0.0,0.0,0.0,0.0,0.0,0.0,0.0,0.0,0.0,0.0,0.0,0.0,0.0,0.0,0.0,0.0,0.0,0.0,0.0,0.0,-1.3202,-1.458,-1.6171,-1.6369,-1.5028,-1.3427,-1.1654,0.0,0.0,0.0,0.0,0.0,0.0,0.0,0.0,0.0,0.0,0.0,0.0,0.0,0.0,0.0,0.0,0.0,0.0,0.0,0.0,0.0,0.0,0.0,0.0,0.0,0.0,0.0,0.0,0.0,0.0,0.0,0.0,0.0,0.0,0.0,0.0,0.0,0.0,0.0,0.0,0.0,0.0,0.0,0.0,0.0,0.0,0.0,0.0,0.0,0.0,0.0,0.0,0.0,0.0,0.0,0.0,0.0,0.0,0.0,0.0,0.0,0.0,0.0,0.0,0.0,0.0,0.0,0.0,0.0,0.0,0.0,0.0,0.0,0.0,0.0,0.0,0.0,0.0,0.0,0.0,0.0,0.0,0.0,0.0,0.0,0.0,0.0,0.0,0.0,0.0,0.0,0.0,0.0,0.0,0.0,0.0,0.0,0.0,0.0,0.0,0.0,0.0,0.0,0.0,0.0,0.0,0.0,0.0,-1.533,-1.7132,-1.8348,-1.8448,-1.74,-1.5741,-1.3249,0.0,0.0,0.0,0.0,0.0,0.0,0.0,0.0,0.0,0.0,0.0,0.0,0.0,0.0,0.0,0.0,0.0,0.0,0.0,0.0,0.0,0.0,0.0,0.0,0.0,0.0,0.0,0.0,0.0,0.0,0.0,0.0,0.0,0.0,0.0,0.0,0.0,0.0,0.0,0.0,0.0,0.0,0.0,0.0,0.0,0.0,0.0,0.0,0.0,0.0,0.0,0.0,0.0,0.0,0.0,0.0,0.0,0.0,0.0,0.0,0.0,0.0,0.0,0.0,0.0,0.0,0.0,0.0,0.0,0.0,0.0,0.0,0.0,0.0,0.0,0.0,0.0,0.0,0.0,0.0,0.0,0.0,0.0,0.0,0.0,0.0,0.0,0.0,0.0,0.0,0.0,0.0,0.0,0.0,0.0,0.0,0.0,0.0,0.0,0.0,0.0,0.0,0.0,0.0,0.0,0.0,0.0,0.0,-1.7161,-1.9486,-1.9831,-1.9565,-1.8708,-1.6937,-1.4313,0.0,0.0,0.0,0.0,0.0,0.0,0.0,0.0,0.0,0.0,0.0,0.0,0.0,0.0,0.0,0.0,0.0,0.0,0.0,0.0,0.0,0.0,0.0,0.0,0.0,0.0,0.0,0.0,0.0,0.0,0.0,0.0,0.0,0.0,0.0,0.0,0.0,0.0,0.0,0.0,0.0,0.0,0.0,0.0,0.0,0.0,0.0,0.0,-1.0133,0.0,0.0,0.0,0.0,0.0,0.0,0.0,0.0,0.0,0.0,0.0,0.0,0.0,0.0,0.0,0.0,0.0,0.0,0.0,0.0,0.0,0.0,0.0,0.0,0.0,0.0,0.0,0.0,0.0,0.0,0.0,0.0,0.0,0.0,0.0,0.0,0.0,0.0,0.0,0.0,0.0,0.0,0.0,0.0,0.0,0.0,0.0,0.0,0.0,0.0,0.0,0.0,0.0,0.0,0.0,0.0,0.0,0.0,0.0,-1.8998,-2.0758,-2.1265,-2.0776,-1.9239,-1.814,-1.5988,0.0,0.0,0.0,0.0,0.0,0.0,0.0,0.0,0.0,0.0,0.0,0.0,0.0,0.0,0.0,0.0,0.0,0.0,0.0,0.0,0.0,0.0,0.0,0.0,0.0,0.0,0.0,0.0,0.0,0.0,0.0,0.0,0.0,0.0,0.0,0.0,0.0,0.0,0.0,0.0,0.0,0.0,0.0,0.0,0.0,0.0,0.0,0.0,0.0,0.0,0.0,0.0,0.0,0.0,0.0,0.0,0.0,0.0,0.0,0.0,0.0,0.0,0.0,0.0,0.0,0.0,0.0,0.0,0.0,0.0,0.0,0.0,0.0,0.0,0.0,0.0,0.0,0.0,0.0,0.0,0.0,0.0,0.0,0.0,0.0,0.0,0.0,0.0,0.0,0.0,0.0,0.0,0.0,0.0,0.0,0.0,0.0,0.0,0.0,0.0,0.0,0.0,0.0,0.0,0.0,0.0,0.0,-1.8835,-2.0829,-2.2031,-2.274,-2.1972,-1.9721,-1.9302,-1.7635,-1.4479,0.0,0.0,0.0,0.0,0.0,0.0,0.0,0.0,0.0,0.0,0.0,0.0,0.0,0.0,0.0,0.0,0.0,0.0,0.0,0.0,0.0,0.0,0.0,0.0,0.0,0.0,0.0,0.0,0.0,0.0,0.0,0.0,0.0,0.0,0.0,0.0,0.0,0.0,-1.0766,-1.3471,0.0,0.0,0.0,0.0,0.0,0.0,0.0,0.0,-1.4801,0.0,0.0,0.0,0.0,0.0,0.0,0.0,0.0,0.0,0.0,0.0,0.0,0.0,0.0,0.0,0.0,0.0,0.0,0.0,0.0,0.0,0.0,0.0,0.0,0.0,0.0,0.0,0.0,0.0,0.0,0.0,0.0,0.0,0.0,0.0,0.0,0.0,0.0,0.0,0.0,0.0,0.0,0.0,0.0,0.0,0.0,0.0,0.0,0.0,0.0,0.0,0.0,0.0,0.0,0.0,0.0,-1.95,-2.1038,-2.2889,-2.4989,-2.4298,-2.3007,-2.1213,-2.0181,-1.8376,-1.5638,0.0,0.0,0.0,0.0,0.0,0.0,0.0,0.0,0.0,0.0,0.0,0.0,0.0,0.0,0.0,0.0,0.0,0.0,0.0,0.0,0.0,0.0,0.0,0.0,0.0,0.0,0.0,0.0,0.0,0.0,0.0,0.0,0.0,0.0,0.0,0.0,0.0,0.0,0.0,-1.7021,-1.9129,0.0,0.0,0.0,0.0,0.0,0.0,0.0,0.0,-1.6653,0.0,0.0,0.0,0.0,0.0,0.0,0.0,0.0,0.0,0.0,0.0,0.0,0.0,0.0,0.0,0.0,0.0,0.0,0.0,0.0,0.0,0.0,0.0,0.0,0.0,0.0,0.0,0.0,0.0,0.0,0.0,0.0,0.0,0.0,0.0,0.0,0.0,0.0,0.0,0.0,0.0,0.0,0.0,0.0,0.0,0.0,0.0,0.0,0.0,0.0,0.0,0.0,0.0,0.0,0.0,-1.9313,-2.2155,-2.4275,-2.5479,-2.5142,-2.3885,-2.1775,-2.0648,-1.8403,0.0,0.0,0.0,0.0,0.0,0.0,0.0,0.0,0.0,0.0,0.0,0.0,0.0,0.0,0.0,0.0,0.0,0.0,0.0,0.0,0.0,0.0,0.0,0.0,0.0,0.0,0.0,0.0,0.0,0.0,0.0,0.0,0.0,0.0,0.0,0.0,0.0,0.0,0.0,0.0,-1.7924,-1.9668,-2.0058,0.0,0.0,0.0,0.0,0.0,0.0,-2.0096,-1.9953,0.0,0.0,0.0,0.0,0.0,0.0,0.0,0.0,0.0,0.0,0.0,0.0,0.0,0.0,0.0,0.0,0.0,0.0,0.0,0.0,0.0,0.0,0.0,0.0,0.0,0.0,0.0,0.0,0.0,0.0,0.0,0.0,0.0,0.0,0.0,0.0,0.0,0.0,0.0,0.0,0.0,0.0,0.0,0.0,0.0,0.0,0.0,0.0,0.0,0.0,0.0,0.0,0.0,0.0,0.0,-1.8525,-2.2831,-2.5285,-2.5624,-2.5849,-2.4785,-2.2415,-2.1511,-1.8899,0.0,0.0,0.0,0.0,0.0,0.0,0.0,0.0,0.0,0.0,0.0,0.0,0.0,0.0,0.0,0.0,0.0,0.0,0.0,0.0,0.0,0.0,0.0,0.0,0.0,0.0,0.0,0.0,0.0,0.0,0.0,0.0,0.0,0.0,0.0,0.0,0.0,0.0,0.0,0.0,0.0,-2.0355,-2.1338,-2.205,0.0,0.0,0.0,0.0,-2.2712,-2.3432,0.0,0.0,0.0,0.0,0.0,0.0,0.0,0.0,0.0,0.0,0.0,0.0,0.0,0.0,0.0,0.0,0.0,0.0,0.0,0.0,0.0,0.0,0.0,0.0,0.0,0.0,0.0,0.0,0.0,0.0,0.0,0.0,0.0,0.0,0.0,0.0,0.0,0.0,0.0,0.0,0.0,0.0,0.0,0.0,0.0,0.0,0.0,0.0,0.0,0.0,0.0,0.0,0.0,0.0,0.0,0.0,-1.8946,-2.3244,-2.5935,-2.6746,-2.676,-2.581,-2.3834,-2.3819,-2.1063,0.0,0.0,0.0,0.0,0.0,0.0,0.0,0.0,0.0,0.0,0.0,0.0,0.0,0.0,0.0,0.0,0.0,0.0,0.0,0.0,0.0,0.0,0.0,0.0,0.0,0.0,0.0,0.0,0.0,0.0,0.0,0.0,0.0,0.0,0.0,0.0,0.0,0.0,0.0,0.0,0.0,-2.375,-2.4613,-2.5768,-2.6523,0.0,0.0,-2.6156,-2.6402,-2.6248,0.0,0.0,0.0,0.0,0.0,0.0,0.0,0.0,0.0,0.0,0.0,0.0,0.0,0.0,0.0,0.0,0.0,0.0,0.0,0.0,0.0,0.0,0.0,0.0,0.0,0.0,0.0,0.0,0.0,0.0,0.0,0.0,0.0,0.0,0.0,0.0,0.0,0.0,0.0,0.0,0.0,0.0,0.0,0.0,0.0,0.0,0.0,0.0,0.0,0.0,0.0,0.0,0.0,0.0,0.0,-1.8573,-2.0475,-2.4217,-2.6786,-2.8003,-2.7749,-2.6618,-2.4626,-2.4328,-2.1488,0.0,0.0,0.0,0.0,0.0,0.0,0.0,0.0,0.0,0.0,0.0,0.0,0.0,0.0,0.0,0.0,0.0,0.0,0.0,0.0,0.0,0.0,0.0,0.0,0.0,0.0,0.0,0.0,0.0,0.0,0.0,0.0,0.0,0.0,0.0,0.0,0.0,0.0,0.0,0.0,0.0,0.0,-2.5382,-2.7622,0.0,0.0,0.0,-2.9506,-2.8656,0.0,0.0,0.0,0.0,0.0,0.0,0.0,0.0,0.0,0.0,0.0,0.0,0.0,0.0,0.0,0.0,0.0,0.0,0.0,0.0,0.0,0.0,0.0,0.0,0.0,0.0,0.0,0.0,0.0,0.0,0.0,0.0,0.0,0.0,0.0,0.0,0.0,0.0,0.0,0.0,0.0,0.0,0.0,0.0,0.0,0.0,0.0,0.0,0.0,0.0,0.0,0.0,0.0,0.0,0.0,0.0,0.0,-2.1476,-2.4724,-2.7093,-2.8424,-2.7973,-2.6856,-2.5085,-2.4485,0.0,0.0,0.0,0.0,0.0,0.0,0.0,0.0,0.0,0.0,0.0,0.0,0.0,0.0,0.0,0.0,0.0,0.0,0.0,0.0,0.0,0.0,0.0,0.0,0.0,0.0,0.0,-1.2038,0.0,0.0,0.0,0.0,0.0,0.0,0.0,0.0,0.0,0.0,0.0,0.0,0.0,0.0,-2.5572,-2.6437,-2.9551,-3.1622,0.0,0.0,-3.256,-3.1165,-3.2069,-3.1909,0.0,0.0,0.0,0.0,0.0,0.0,0.0,0.0,0.0,0.0,0.0,0.0,0.0,0.0,0.0,0.0,0.0,0.0,0.0,0.0,0.0,0.0,0.0,0.0,0.0,0.0,0.0,0.0,0.0,0.0,0.0,0.0,0.0,0.0,0.0,0.0,0.0,0.0,0.0,0.0,0.0,0.0,0.0,0.0,0.0,0.0,0.0,0.0,0.0,0.0,0.0,0.0,0.0,0.0,0.0,-2.1171,-2.4246,-2.6379,-2.7347,-2.6931,-2.619,-2.5126,-2.4705,-2.3004,0.0,0.0,0.0,0.0,0.0,0.0,0.0,0.0,0.0,0.0,0.0,0.0,0.0,0.0,0.0,0.0,0.0,0.0,0.0,0.0,0.0,0.0,0.0,0.0,0.0,0.0,0.0,0.0,0.0,0.0,0.0,0.0,0.0,0.0,0.0,0.0,0.0,0.0,0.0,0.0,0.0,-2.8297,-2.8805,-3.2222,-3.4921,0.0,-3.5174,-3.4798,-3.4656,-3.4729,-3.4031,-3.1666,0.0,0.0,0.0,0.0,0.0,0.0,0.0,0.0,0.0,0.0,0.0,0.0,0.0,0.0,0.0,0.0,0.0,0.0,0.0,0.0,0.0,0.0,0.0,0.0,0.0,0.0,0.0,0.0,0.0,0.0,0.0,0.0,0.0,0.0,0.0,0.0,0.0,0.0,0.0,0.0,0.0,0.0,0.0,0.0,0.0,0.0,0.0,0.0,0.0,0.0,0.0,0.0,0.0,-1.9777,-2.1962,-2.47,-2.6553,-2.7421,-2.7113,-2.6511,-2.5668,-2.5223,-2.3578,0.0,0.0,0.0,0.0,0.0,0.0,0.0,0.0,0.0,0.0,0.0,0.0,0.0,0.0,0.0,0.0,0.0,0.0,0.0,0.0,0.0,0.0,0.0,0.0,0.0,0.0,0.0,0.0,-1.6049,-1.6464,-1.6939,0.0,0.0,0.0,0.0,0.0,0.0,0.0,0.0,0.0,0.0,-3.0864,-3.121,-3.4015,0.0,0.0,-3.6766,-3.6729,-3.624,-3.619,-3.5503,-3.3631,-3.2782,0.0,0.0,0.0,0.0,0.0,0.0,0.0,0.0,0.0,0.0,0.0,0.0,0.0,0.0,0.0,0.0,0.0,0.0,0.0,0.0,0.0,0.0,0.0,0.0,0.0,0.0,0.0,0.0,0.0,0.0,0.0,0.0,0.0,0.0,0.0,0.0,0.0,0.0,0.0,0.0,0.0,0.0,0.0,0.0,0.0,0.0,0.0,0.0,0.0,0.0,0.0,0.0,-2.0191,-2.2614,-2.4812,-2.6406,-2.7297,-2.6802,-2.627,-2.578,-2.5167,-2.3955,0.0,0.0,0.0,0.0,0.0,0.0,0.0,0.0,0.0,0.0,0.0,0.0,0.0,0.0,0.0,0.0,0.0,0.0,0.0,0.0,0.0,0.0,0.0,0.0,0.0,0.0,0.0,0.0,-1.715,-1.7271,-1.7522,0.0,0.0,0.0,0.0,0.0,0.0,0.0,0.0,0.0,0.0,-3.3146,-3.3382,-3.5769,-3.7541,-3.7654,-3.8147,-3.824,-3.738,-3.7293,-3.6657,-3.4696,0.0,0.0,0.0,0.0,0.0,0.0,0.0,0.0,0.0,0.0,0.0,0.0,0.0,0.0,0.0,0.0,0.0,0.0,0.0,0.0,0.0,0.0,0.0,0.0,0.0,0.0,0.0,-0.5826,0.0,0.0,-0.5945,0.0,0.0,0.0,0.0,0.0,0.0,0.0,0.0,0.0,0.0,0.0,0.0,0.0,0.0,0.0,0.0,0.0,0.0,0.0,0.0,0.0,0.0,-2.0406,-2.2863,-2.4435,-2.5677,-2.6569,-2.5728,-2.5276,-2.5216,-2.4317,-2.4096,-2.4607,0.0,0.0,0.0,0.0,0.0,0.0,0.0,0.0,0.0,0.0,0.0,0.0,0.0,0.0,0.0,0.0,0.0,0.0,0.0,0.0,0.0,0.0,0.0,0.0,0.0,0.0,-1.6863,-1.7676,-1.8232,0.0,0.0,0.0,0.0,0.0,0.0,0.0,0.0,0.0,-2.7964,-3.2159,-3.509,-3.5268,-3.7597,-3.9337,-3.942,-3.9446,-3.9146,-3.8215,-3.8153,-3.7394,0.0,0.0,0.0,0.0,0.0,0.0,0.0,0.0,0.0,0.0,0.0,0.0,0.0,0.0,0.0,0.0,0.0,0.0,0.0,0.0,0.0,0.0,0.0,0.0,0.0,0.0,0.0,-1.3119,-1.2595,0.0,0.0,0.0,0.0,0.0,0.0,0.0,0.0,0.0,0.0,0.0,-2.1178,-2.275,0.0,0.0,0.0,0.0,0.0,0.0,0.0,0.0,0.0,0.0,0.0,0.0,-2.0432,-2.2238,-2.437,-2.5622,-2.5924,-2.5615,-2.5444,-2.545,-2.4561,-2.4068,-2.4055,0.0,0.0,0.0,0.0,0.0,0.0,0.0,0.0,0.0,0.0,0.0,0.0,0.0,0.0,0.0,0.0,0.0,0.0,0.0,0.0,0.0,0.0,0.0,0.0,0.0,-1.9383,0.0,0.0,0.0,0.0,0.0,0.0,0.0,0.0,0.0,0.0,0.0,-3.0502,-3.1318,-3.4902,-3.7411,-3.7364,-3.9216,-4.0585,0.0,0.0,0.0,0.0,0.0,0.0,0.0,0.0,0.0,0.0,0.0,0.0,0.0,0.0,-3.2698,-3.0615,-2.9039,-2.7981,-2.7868,0.0,0.0,0.0,0.0,0.0,0.0,0.0,0.0,0.0,0.0,0.0,0.0,0.0,0.0,-1.7107,-1.66,-1.6544,0.0,0.0,0.0,0.0,0.0,0.0,0.0,0.0,-2.1244,-2.3163,-2.3794,-2.5323,-2.6026,-2.5934,-2.4951,-2.3778,0.0,0.0,0.0,0.0,0.0,0.0,0.0,0.0,-2.0806,-2.2077,-2.4382,-2.5612,-2.5612,-2.5612,-2.56,-2.5617,-2.5009,-2.4466,-2.395,-2.2777,-2.2696,0.0,0.0,0.0,0.0,0.0,0.0,0.0,0.0,0.0,0.0,0.0,0.0,0.0,0.0,0.0,0.0,0.0,0.0,0.0,0.0,0.0,0.0,0.0,-2.1462,0.0,0.0,0.0,0.0,0.0,0.0,0.0,0.0,0.0,-2.8086,-3.128,-3.4259,-3.5708,-3.7975,-3.9356,-3.8973,0.0,0.0,0.0,0.0,0.0,0.0,0.0,-3.7258,-3.7208,-3.7197,-3.7495,-3.8407,-3.9717,-4.0499,-3.9989,0.0,0.0,-3.4632,-3.2918,-3.195,-3.1842,-3.1813,-3.1984,-3.2539,-3.3339,-3.4108,0.0,0.0,0.0,0.0,-2.0131,0.0,0.0,0.0,-1.8394,-1.8083,0.0,-1.8008,0.0,0.0,0.0,0.0,-1.7382,-1.8216,0.0,0.0,-2.3347,-2.4733,-2.5742,-2.6554,-2.694,-2.6975,-2.7725,-2.763,-2.6569,-2.2088,0.0,0.0,0.0,0.0,0.0,0.0,-2.1655,-2.2422,-2.456,-2.5664,-2.5681,-2.5662,-2.5692,-2.5749,-2.5671,-2.5325,-2.459,-2.4993,-2.4822,-2.3916,-2.2325,0.0,0.0,0.0,0.0,0.0,0.0,0.0,0.0,0.0,0.0,0.0,0.0,0.0,0.0,0.0,0.0,0.0,0.0,0.0,0.0,-2.1861,0.0,0.0,0.0,0.0,0.0,0.0,0.0,0.0,0.0,0.0,-3.4217,-3.5184,-3.709,-4.0577,0.0,0.0,0.0,0.0,-4.0431,-3.8013,-3.8334,-3.8934,-3.8825,-3.9448,-3.9943,-3.9879,0.0,0.0,-4.1267,-4.1839,-4.1935,-4.0513,-4.0838,-4.0501,-3.7862,-3.6056,-3.4952,-3.4914,-3.502,-3.505,-3.5087,-3.5855,-3.6139,-2.6919,0.0,0.0,0.0,0.0,-2.306,-2.3199,-2.2785,-2.372,-2.3449,-2.2341,-2.2339,0.0,0.0,0.0,0.0,0.0,0.0,-2.1855,-2.2558,-2.4922,-2.6228,-2.659,-2.7386,-2.7757,-2.7762,-2.8018,-2.8024,-2.7734,-2.6348,-2.4463,-2.2207,0.0,0.0,0.0,0.0,-2.3331,-2.3548,-2.5471,-2.655,-2.6596,-2.6596,-2.6603,-2.6632,-2.6613,-2.6772,-2.7166,-2.6726,-2.625,-2.5705,-2.3477,0.0,0.0,0.0,0.0,0.0,0.0,0.0,0.0,0.0,0.0,0.0,0.0,0.0,0.0,0.0,0.0,0.0,0.0,0.0,-2.4166,-2.48,-2.5543,0.0,0.0,0.0,0.0,0.0,0.0,0.0,0.0,0.0,-3.8413,-3.7728,-3.749,0.0,0.0,-4.0084,-3.9168,-4.1402,-4.2933,-4.2188,-4.2868,0.0,-4.3372,-4.2463,-4.1734,-4.1677,-4.301,-4.383,-4.2956,-4.3625,-4.3969,-4.2905,-4.2487,-4.2045,-4.1371,-3.9881,-3.8784,-3.881,-3.9301,-3.9766,-3.9769,-3.9951,-4.0053,-2.9501,-2.7671,-2.6729,-2.571,-2.4836,-2.5868,-2.6079,-2.5693,-2.6692,-2.6556,-2.5606,-2.5296,-2.4251,-2.271,-2.2365,0.0,0.0,0.0,-2.4475,-2.4934,-2.6525,-2.7299,-2.7407,-2.7784,-2.7993,-2.8011,-2.8026,-2.8062,-2.8133,-2.8432,-2.7731,-2.6077,0.0,-2.5032,-2.3466,-2.4537,-2.5079,-2.5065,-2.6582,-2.7441,-2.746,-2.7517,-2.7517,-2.7519,-2.7519,-2.7773,-2.8261,-2.7793,-2.7416,-2.7199,-2.5215,-2.3898,0.0,0.0,0.0,0.0,0.0,0.0,0.0,0.0,0.0,0.0,0.0,-2.06,-2.0654,0.0,0.0,0.0,-2.5309,-2.6787,-2.8072,-2.8182,0.0,0.0,0.0,0.0,0.0,0.0,0.0,-3.4765,-3.7442,-3.9862,-4.1084,-4.0377,-4.0099,-4.1147,-4.2172,-4.2488,-4.1626,0.0,-4.483,-4.3812,-4.4425,-4.4965,-4.4863,-4.4202,-4.388,-4.4456,-4.5295,-4.5607,-4.485,-4.5212,-4.5312,-4.4551,-4.3986,-4.3768,-4.3931,-4.3085,-4.2162,-4.1674,-4.1975,-4.2318,-4.2329,-4.2333,-4.231,-3.2304,-3.1404,-2.9221,-2.8218,-2.8111,-2.8229,-2.816,-2.7986,-2.7984,-2.7908,-2.7729,-2.7007,-2.6689,-2.6621,-2.5805,0.0,-2.7851,-2.7072,-2.7162,-2.809,-2.8155,-2.826,-2.8372,-2.8251,-2.8229,-2.8299,-2.8276,-2.8315,-2.8485,-2.9216,-2.9587,-2.9556,-2.801,-2.6639,-2.5557,-2.6484,-2.6945,-2.6822,-2.7855,-2.8363,-2.8303,-2.8353,-2.8396,-2.8415,-2.8414,-2.8433,-2.8511,-2.8494,-2.8476,-2.8357,-2.7324,-2.6657,-2.6358,0.0,0.0,0.0,0.0,0.0,0.0,0.0,0.0,0.0,0.0,0.0,0.0,0.0,0.0,0.0,-2.7662,0.0,-3.1742,-3.1608,0.0,0.0,0.0,-3.4213,-3.4973,-3.7564,-3.9191,-3.886,0.0,0.0,-4.2699,-4.3082,-4.4193,-4.6791,-4.6932,-4.6529,-4.5793,-4.6385,-4.6218,-4.4058,-4.4406,-4.4962,-4.5316,-4.5667,-4.6434,-4.7605,-4.7788,-4.7312,-4.6618,-4.6344,-4.6081,-4.5287,-4.5203,-4.5251,-4.5549,-4.5415,-4.5198,-4.3757,-4.3492,-4.3459,-4.3523,-4.339,-4.3239,-3.2558,-3.2385,-3.1806,-3.1207,-3.0657,-3.1296,-3.0834,-2.9645,-2.956,-2.8834,-2.765,-2.7465,-2.7386,-2.7426,-2.7262,-2.7427,-2.7802,-2.761,-2.8,-2.8844,-2.9524,-3.0133,-3.0712,-3.1264,-3.152,-3.1468,-3.148,-3.1571,-3.1741,-3.1899,-3.2072,-3.2238,-3.1851,-3.0849,-2.9334,-2.9547,-2.9362,-2.8732,-2.965,-2.9783,-2.9152,-2.9185,-2.9234,-2.9282,-2.9301,-2.9574,-3.018,-3.0201,-2.9894,-2.9255,-2.9001,-2.8418,-2.7398,-2.5379,0.0,0.0,0.0,0.0,0.0,0.0,0.0,0.0,0.0,-2.4148,-2.487,0.0,-2.9438,0.0,-3.0781,-3.1844,-3.3445,-3.2859,0.0,0.0,-3.5225,-3.6304,-3.7881,-3.9744,-4.0701,-4.0058,-4.1867,-4.3369,-4.3871,-4.562,-4.7365,-4.8794,-4.7177,-4.5568,-4.4969,-4.6686,-4.7801,-4.7305,-4.8301,-4.9405,-4.9241,-4.9412,-4.945,-4.9733,-4.9185,-4.8449,-4.7594,-4.6915,-4.62,-4.5477,-4.5317,-4.5458,-4.5696,-4.5757,-4.5712,-4.5526,-4.5423,-4.5311,-4.5208,-4.4685,-4.4213,-3.3684,-3.3693,-3.3778,-3.3353,-3.2627,-3.2588,-3.2031,-3.1124,-3.1031,-3.0501,-2.9673,-2.9413,-2.931,-2.9357,-2.9416,-2.9653,-2.9972,-3.0024,-3.0273,-3.0759,-3.1251,-3.1641,-3.1996,-3.2417,-3.2545,-3.2454,-3.2482,-3.2534,-3.2673,-3.2759,-3.2878,-3.2972,-3.3035,-3.2775,-3.2227,-3.1948,-3.1568,-3.1104,-3.1209,-3.0843,-2.9977,-2.9966,-2.9808,-2.9481,-2.9462,-2.9841,-3.064,-2.9936,-2.9638,-2.9857,-2.8828,-2.7878,-2.7137,-2.6004,-2.5285,0.0,0.0,0.0,0.0,0.0,0.0,0.0,0.0,0.0,0.0,0.0,-3.2835,-3.4046,-3.4169,-3.4666,-3.5929,-3.5823,-3.6199,-3.7482,-3.8319,-3.9482,-4.1264,-4.2204,-4.2869,-4.3176,-4.4403,-4.5582,-4.6434,-4.7751,-4.9027,-5.0101,-4.8922,-4.7828,-4.7669,-4.8778,-4.9637,-4.9707,-5.0501,-5.1111,-5.1063,-5.0856,-5.0535,-5.0087,-4.9555,-4.8782,-4.7552,-4.6939,-4.6365,-4.5569,-4.5379,-4.5495,-4.573,-4.5801,-4.5905,-4.6114,-4.6137,-4.6047,-4.5958,-4.5574,-4.5183,-3.4908,-3.4898,-3.5075,-3.4737,-3.4014,-3.3066,-3.2485,-3.2199,-3.209,-3.209,-3.2162,-3.1722,-3.1519,-3.1535,-3.1619,-3.2023,-3.2699,-3.2756,-3.2828,-3.295,-3.2934,-3.2913,-3.2874,-3.2809,-3.2711,-3.2581,-3.2581,-3.2618,-3.2726,-3.2962,-3.3053,-3.303,-3.316,-3.3618,-3.4323,-3.3865,-3.3466,-3.3187,-3.2488,-3.1689,-3.0791,-3.0886,-3.0592,-2.986,-2.9821,-3.0154,-3.0782,-2.9401,-2.926,-3.0603,-2.8595,-2.7346,-2.7286,-2.6959,-2.6712,0.0,-2.7041,0.0,0.0,0.0,0.0,0.0,0.0,0.0,0.0,-3.3358,-3.5729,-3.7472,-3.7536,-3.7914,-3.8889,-3.9532,-4.0178,-4.0872,-4.1723,-4.2857,-4.436,-4.4617,-4.524,-4.6733,-4.7002,-4.7665,-4.9,-4.9413,-4.9911,-5.072,-5.0804,-5.0653,-5.1033,-5.1059,-5.1122,-5.1296,-5.13,-5.1234,-5.1117,-5.0911,-5.0557,-4.989,-4.9525,-4.8827,-4.7482,-4.7069,-4.6657,-4.587,-4.5755,-4.5849,-4.595,-4.6002,-4.6078,-4.6342,-4.629,-4.6162,-4.6098,-4.6003,-4.6014,-3.4649,-3.4753,-3.4841,-3.4746,-3.4555,-3.4233,-3.3192,-3.1725,-3.1693,-3.1654,-3.1599,-3.1893,-3.2142,-3.2292,-3.2344,-3.2496,-3.2699,-3.2726,-3.3104,-3.3765,-3.3664,-3.3897,-3.4368,-3.4269,-3.4156,-3.4092,-3.4092,-3.4179,-3.4339,-3.4508,-3.4655,-3.4802,-3.4962,-3.512,-3.5313,0.0,0.0,0.0,-3.2908,-3.2419,-3.1631,-3.2362,-3.2748,-3.2633,-3.2616,0.0,-3.2828,-3.253,-3.251,-3.2783,-3.2353,0.0,0.0,0.0,0.0,0.0,0.0,0.0,0.0,0.0,0.0,0.0,-3.4423,-3.4037,-3.2834,-3.5688,-3.8422,-4.0145,-4.0282,-4.0875,-4.2361,-4.2597,-4.2658,-4.2742,-4.3487,-4.4391,-4.5353,-4.6101,-4.6959,-4.7865,-4.8618,-4.9145,-4.9478,-5.0089,-5.0589,-5.0859,-5.0963,-5.0988,-5.1024,-5.1153,-5.1234,-5.1273,-5.13,-5.1248,-5.1103,-5.1089,-5.0983,-5.0733,-5.0104,-4.95,-4.9025,-4.827,-4.7529,-4.6778,-4.7117,-4.729,-4.6862,-4.6853,-4.6893,-4.7077,-4.6618,-4.6187,-4.6111,-4.6084,-4.6061,-3.5803,-3.5739,-3.5883,-3.5673,0.0,-3.5211,-3.4415,-3.3144,-3.3323,-3.3649,-3.4093,-3.4497,-3.4764,-3.4916,-3.4238,-3.4193,-3.4578,-3.3827,-3.3885,-3.458,-3.4515,-3.4543,-3.466,-3.4615,-3.4528,-3.4416,-3.442,-3.4542,-3.4742,-3.4889,-3.5034,-3.5216,-3.5324,-3.5419,-3.5403,-3.5391,-3.4817,-3.3669,-3.3592,-3.317,-3.2369,-3.2797,-3.2856,-3.2485,-3.2489,0.0,0.0,0.0,0.0,0.0,0.0,0.0,0.0,0.0,0.0,-3.1737,-3.1319,-3.1503,-3.2497,-3.2944,-3.3962,-3.5781,-3.7128,-3.7635,-3.7079,-3.8701,-4.0465,-4.2192,-4.2314,-4.2626,-4.3448,-4.3825,-4.4009,-4.4008,-4.5073,-4.6013,-4.6412,-4.6841,-4.7455,-4.8213,-4.8701,-4.9107,-4.961,-5.0347,-5.0814,-5.0909,-5.0921,-5.0959,-5.1004,-5.1117,-5.1225,-5.1292,-5.13,-5.1248,-5.1134,-5.112,-5.0961,-5.0538,-5.006,-4.9601,-4.9117,-4.8621,-4.8091,-4.7662,-4.7892,-4.8006,-4.7711,-4.7407,-4.7203,-4.7213,-4.6699,-4.6219,-4.616,-4.615,-4.6131,-3.7014,-3.6813,-3.6991,-3.6637,-3.5937,-3.6001,-3.5719,-3.5198,-3.5237,0.0,0.0,-3.699,-3.7233,-3.7365,-3.6198,-3.6063,-3.6637,-3.5392,-3.5104,-3.5588,-3.552,-3.5277,-3.4937,-3.4948,-3.4899,-3.4752,-3.4685,-3.4742,-3.4904,-3.4926,-3.4992,-3.5101,-3.522,-3.5242,-3.5209,-3.5182,-3.4917,-3.4416,-3.4384,-3.3977,-3.3089,-3.3224,-3.2968,-3.225,-3.2301,-3.263,-3.3277,-3.1992,-3.189,-3.3211,-3.1999,-3.1258,-3.1231,-3.2049,-3.2903,-3.3782,-3.4609,-3.5153,-3.5353,-3.5987,-3.6453,-3.6664,-3.8788,-4.0463,-4.1269,-4.1327,-4.205,-4.3768,-4.3887,-4.3899,-4.4046,-4.4612,-4.4962,-4.4971,-4.6304,-4.721,-4.721,-4.739,-4.7821,-4.8483,-4.8697,-4.8954,-4.9885,-5.0557,-5.0917,-5.0921,-5.0921,-5.091,-5.0997,-5.1122,-5.121,-5.1265,-5.1304,-5.1261,-5.115,-5.1145,-5.0831,-5.0291,-5.0122,-4.9773,-4.9147,-4.8934,-4.8832,-4.857,-4.8607,-4.8728,-4.8555,-4.8153,-4.7724,-4.7738,-4.7042,-4.6429,-4.6418,-4.6318,-4.6225,-3.6913,-3.6725,-3.6864,-3.6752,-3.6487,-3.6502,-3.6708,-3.699,-3.5937,-3.5702,-3.6137,-3.6646,-3.7021,-3.7322,-3.7114,-3.7117,-3.7252,-3.6946,-3.6908,-3.707,-3.6746,-3.6567,-3.6569,-3.646,-3.6428,-3.641,-3.5876,-3.5664,-3.5676,-3.5296,-3.5084,-3.512,-3.5168,-3.5229,-3.5182,-3.5182,-3.5149,-3.5063,-3.5168,-3.4838,-3.4038,-3.4854,-3.5251,-3.5116,-3.5106,-3.5185,-3.5266,-3.5026,-3.5062,-3.5351,-3.5169,-3.5053,-3.5085,-3.5182,-3.5719,-3.653,-3.6744,-3.7171,-3.7888,-3.8073,-3.8454,-3.9218,-4.0309,-4.1292,-4.2124,-4.222,-4.2929,-4.4609,-4.4781,-4.5096,-4.5726,-4.5891,-4.5889,-4.5938,-4.6737,-4.7276,-4.7325,-4.8015,-4.8744,-4.9459,-4.9746,-5.0014,-5.0683,-5.0984,-5.1069,-5.1063,-5.0988,-5.0937,-5.1004,-5.112,-5.12,-5.1222,-5.1319,-5.1324,-5.123,-5.1243,-5.1137,-5.0981,-5.0948,-5.0884,-5.0631,-5.0561,-5.0297,-4.9692,-4.9981,-5.0114,-4.9658,-4.954,-4.9328,-4.9226,-4.8174,-4.7345,-4.7187,-4.6682,-4.627,-3.8176,-3.7964,-3.8059,-3.801,-3.7845,-3.7812,-3.7915,-3.8095,-3.7515,-3.7381,-3.7648,-3.7958,-3.8253,-3.8413,-3.7669,-3.7574,-3.7955,-3.7024,-3.6786,-3.7108,-3.6949,-3.6776,-3.6675,-3.6647,-3.6671,-3.6686,-3.6533,-3.6509,-3.6586,-3.6463,-3.6434,-3.6505,-3.6549,-3.6356,-3.5965,-3.6337,-3.6337,-3.5908,-3.5971,-3.582,-3.5465,-3.6357,-3.6856,-3.6886,-3.6494,-3.625,-3.6241,-3.5872,-3.5667,-3.5748,-3.6231,-3.6331,-3.5936,-3.6343,-3.6575,-3.6523,-3.6944,-3.7378,-3.7768,-3.8678,-3.9355,-3.9802,-4.1042,-4.216,-4.3037,-4.3093,-4.363,-4.4863,-4.541,-4.5836,-4.6213,-4.622,-4.6194,-4.6148,-4.7285,-4.7843,-4.7619,-4.8654,-4.9425,-4.9395,-4.9715,-5.0131,-5.0493,-5.0904,-5.1153,-5.1147,-5.1063,-5.101,-5.1049,-5.1125,-5.1202,-5.1226,-5.1297,-5.133,-5.1233,-5.1224,-5.121,-5.1159,-5.121,-5.1253,-5.123,-5.1217,-5.1015,-5.0645,-5.0809,-5.0817,-5.0423,-5.0101,-4.9776,-4.919,-4.8792,-4.7994,-4.7142,-4.6496,-4.6267,-3.9237,-3.9007,-3.9092,-3.9017,-3.8877,-3.8803,-3.875,-3.8707,-3.8689,-3.8777,-3.895,-3.9092,-3.9251,-3.9271,-3.8214,-3.8079,-3.8424,-3.7337,-3.6991,-3.7367,-3.735,-3.7218,-3.7054,-3.71,-3.7141,-3.7145,-3.7256,-3.737,-3.7467,-3.7536,-3.7594,-3.7684,-3.7693,-3.7387,-3.6814,-3.7387,-3.7387,-3.6825,-3.6958,-3.6986,-3.6823,-3.7477,-3.7844,-3.7854,-3.7298,-3.6964,-3.6949,-3.6434,-3.6186,-3.6278,-3.6953,-3.7094,-3.654,-3.7121,-3.7266,-3.6887,-3.7403,-3.7974,-3.8383,-3.9608,-4.0404,-4.0403,-4.1816,-4.2895,-4.3333,-4.3792,-4.4367,-4.5193,-4.5898,-4.6289,-4.6288,-4.6245,-4.6216,-4.63,-4.771,-4.8289,-4.775,-4.9025,-4.9889,-4.9296,-4.9663,-5.0075,-5.0364,-5.084,-5.1191,-5.1201,-5.115,-5.1144,-5.1133,-5.1171,-5.1219,-5.1258,-5.1336,-5.1346,-5.1226,-5.1213,-5.1211,-5.1189,-5.1195,-5.1238,-5.1261,-5.1288,-5.1271,-5.1113,-5.1108,-5.0977,-5.0792,-5.0354,-4.9675,-4.8982,-4.8524,-4.8045,-4.6995,-4.665,-4.6398,-3.9232,-3.9036,-3.9073,-3.9017,-3.8896,-3.8765,-3.8723,-3.8707,-3.8707,-3.8689,-3.875,-3.8866,-3.9003,-3.9124,-3.9027,-3.9005,-3.9098,-3.8848,-3.8728,-3.8789,-3.8705,-3.8637,-3.8596,-3.8709,-3.8771,-3.8679,-3.8403,-3.8278,-3.8267,-3.7918,-3.7722,-3.7693,-3.7693,-3.7712,-3.7617,-3.7693,-3.7674,-3.7597,-3.8381,-3.8418,-3.7715,-3.7761,-3.7814,-3.7905,-3.7855,-3.7821,-3.7873,-3.7803,-3.7834,-3.7955,-3.8033,-3.8107,-3.8144,-3.8306,-3.8672,-3.9295,-3.9471,-4.0192,-4.1598,-4.2022,-4.2114,-4.2227,-4.3019,-4.3303,-4.2785,-4.4018,-4.5236,-4.595,-4.623,-4.6289,-4.6288,-4.6289,-4.625,-4.6288,-4.7752,-4.8456,-4.7886,-4.9055,-5.0064,-5.0007,-5.005,-5.0379,-5.1045,-5.1255,-5.1265,-5.1234,-5.122,-5.1206,-5.1196,-5.1256,-5.1294,-5.1308,-5.1364,-5.1344,-5.125,-5.1249,-5.123,-5.1142,-5.121,-5.125,-5.1248,-5.1316,-5.1366,-5.1291,-5.118,-5.0917,-5.0456,-5.0079,-4.9728,-4.8778,-4.8172,-4.766,-4.7418,-4.7384,-4.7156,-3.9156,-3.9064,-3.905,-3.8964,-3.8851,-3.884,-3.878,-3.8707,-3.8707,-3.8707,-3.8689,-3.875,-3.8866,-3.8997,-3.8989,-3.9021,-3.9003,-3.8877,-3.8818,-3.8851,-3.8762,-3.875,-3.8795,-3.8851,-3.8881,-3.8902,-3.8976,-3.9048,-3.9051,-3.9083,-3.9147,-3.9175,-3.9175,-3.8946,-3.8553,-3.8992,-3.9011,-3.8514,-3.9317,-3.9603,-3.9344,-3.932,-3.9363,-3.932,-3.8965,-3.8742,-3.87,-3.8277,-3.8038,-3.817,-3.8667,-3.8776,-3.8364,-3.8902,-3.9149,-3.9071,-3.9987,-4.1068,-4.2218,-4.2809,-4.3114,-4.3092,-4.3907,-4.425,-4.4027,-4.5072,-4.594,-4.6218,-4.6258,-4.6258,-4.6299,-4.627,-4.6225,-4.6429,-4.7754,-4.8462,-4.7637,-4.9491,-5.0699,-5.0255,-5.0541,-5.0967,-5.1297,-5.1364,-5.1339,-5.1323,-5.1312,-5.1308,-5.1284,-5.13,-5.1369,-5.1364,-5.1381,-5.1379,-5.1275,-5.1289,-5.1243,-5.1196,-5.1237,-5.1278,-5.1286,-5.132,-5.1381,-5.1374,-5.096,-5.06,-5.0211,-4.9571,-4.9068,-4.8302,-4.7962,-4.7654,-4.8155,-4.8273,-4.8064,-3.9203,-3.9383,-3.9519,-3.9575,-3.9482,-3.9512,-3.9326,-3.9053,-3.9038,-3.8909,-3.8707,-3.8707,-3.875,-3.8837,-3.8837,-3.8837,-3.884,-3.8735,-3.8707,-3.8707,-3.8707,-3.8707,-3.8689,-3.8777,-3.8822,-3.8877,-3.9298,-3.9575,-3.9682,-3.9965,-4.0157,-4.0196,-4.0206,-3.9929,-3.948,-4.0014,-3.9995,-3.948,-4.0014,-4.031,-4.031,-4.0584,-4.0628,-4.0396,-3.9895,-3.9615,-3.9611,-3.9008,-3.8717,-3.8806,-3.9475,-3.9603,-3.9097,-3.9686,-3.9789,-3.933,-4.0542,-4.1805,-4.2607,-4.3465,-4.3962,-4.4016,-4.4755,-4.518,-4.5172,-4.5812,-4.627,-4.629,-4.6234,-4.623,-4.6257,-4.6219,-4.6292,-4.6581,-4.7935,-4.8558,-4.8434,-5.0194,-5.1133,-5.0635,-5.0981,-5.139,-5.1384,-5.1385,-5.1384,-5.1388,-5.1392,-5.1392,-5.136,-5.1351,-5.1398,-5.1386,-5.1402,-5.1375,-5.1316,-5.13,-5.1252,-5.1234,-5.1257,-5.1311,-5.1299,-5.136,-5.1386,-5.1308,-5.0584,-4.9937,-4.954,-4.8954,-4.8464,-4.7808,-4.7563,-4.7845,-4.8518,-4.8733,-4.8893,-3.9462,-4.0126,-4.079,-4.103,-4.1148,-4.1067,-4.0601,-3.9845,-3.9845,-3.9441,-3.8817,-3.8799,-3.8744,-3.8741,-3.8775,-3.8741,-3.8723,-3.8689,-3.8707,-3.8707,-3.8707,-3.8707,-3.8689,-3.884,-3.8866,-3.8833,-3.9311,-3.9724,-4.0026,-4.0185,-4.0196,-4.0196,-4.0349,-4.0339,-4.0263,-4.0377,-4.032,-4.0358,-4.0435,-4.0386,-4.0451,-4.1121,-4.1186,-4.0483,-4.0438,-4.0449,-4.0431,-4.04,-4.0373,-4.0433,-4.0571,-4.0688,-4.0742,-4.0818,-4.0848,-4.0924,-4.1726,-4.2613,-4.35,-4.4345,-4.4839,-4.4952,-4.5574,-4.5802,-4.5226,-4.5845,-4.6262,-4.6302,-4.6228,-4.6214,-4.6292,-4.635,-4.6585,-4.7244,-4.8226,-4.9109,-4.9843,-5.0652,-5.1305,-5.1286,-5.1319,-5.1396,-5.1391,-5.1384,-5.1385,-5.1385,-5.1386,-5.1385,-5.1425,-5.1404,-5.1484,-5.1424,-5.1422,-5.1398,-5.132,-5.1308,-5.128,-5.1234,-5.1265,-5.1303,-5.1313,-5.1346,-5.1367,-5.1206,-5.0564,-4.9843,-4.9004,-4.8417,-4.8006,-4.7668,-4.7689,-4.8047,-4.8672,-4.8788,-4.9065,-4.0688,-4.0827,-4.1119,-4.1235,-4.1172,-4.1188,-4.099,-4.0689,-4.0653,-4.023,-3.9643,-4.001,-3.9646,-3.8744,-3.9258,-3.9184,-3.8726,-3.8707,-3.8707,-3.8707,-3.8707,-3.8707,-3.8707,-3.875,-3.8795,-3.8862,-3.9237,-3.9599,-4.0019,-4.0579,-4.061,-4.0373,-4.1232,-4.154,-4.1207,-4.1551,-4.1857,-4.1886,-4.1896,-4.1638,-4.1179,-4.1934,-4.1752,-4.0468,-4.0952,-4.1281,-4.1335,-4.0811,-4.0519,-4.0515,-4.0668,-4.0738,-4.0773,-4.0922,-4.1252,-4.1785,-4.263,-4.3502,-4.4386,-4.5238,-4.5732,-4.5758,-4.6,-4.6089,-4.5884,-4.6095,-4.6302,-4.6298,-4.6275,-4.644,-4.6925,-4.6982,-4.7069,-4.7505,-4.8686,-4.9685,-5.0135,-5.084,-5.1402,-5.1386,-5.1401,-5.14,-5.1384,-5.1386,-5.1386,-5.1385,-5.1401,-5.1417,-5.1516,-5.1832,-5.2089,-5.166,-5.1853,-5.2017,-5.1304,-5.1303,-5.1289,-5.1249,-5.1257,-5.1323,-5.1355,-5.1268,-5.1275,-5.1093,-5.0528,-4.9927,-4.9172,-4.8925,-4.8379,-4.8338,-4.8326,-4.8443,-4.8728,-4.9123,-4.9552,-4.1736,-4.1694,-4.1915,-4.1995,-4.1932,-4.1963,-4.1765,-4.1515,-4.148,-4.1038,-4.0506,-4.0857,-4.0453,-3.968,-4.0047,-4.0029,-3.9441,-3.9001,-3.8836,-3.9074,-3.9074,-3.9239,-3.9441,-3.9509,-3.9522,-3.9614,-3.9928,-4.0309,-4.0749,-4.1369,-4.1345,-4.0946,-4.2045,-4.2345,-4.2016,-4.2417,-4.2733,-4.2784,-4.2794,-4.2479,-4.2078,-4.2747,-4.269,-4.1847,-4.2179,-4.2106,-4.1477,-4.0846,-4.0546,-4.0542,-4.0655,-4.0706,-4.0756,-4.115,-4.1619,-4.2226,-4.3326,-4.4246,-4.49,-4.5714,-4.6192,-4.6196,-4.6174,-4.6167,-4.6167,-4.6211,-4.6264,-4.6286,-4.6589,-4.6975,-4.7457,-4.7951,-4.825,-4.8378,-4.9331,-5.0171,-5.0508,-5.1036,-5.1343,-5.1387,-5.1385,-5.1386,-5.1387,-5.1385,-5.138,-5.137,-5.1558,-5.1785,-5.1884,-5.2483,-5.2788,-5.2068,-5.2304,-5.2135,-5.1578,-5.1294,-5.1285,-5.1241,-5.1262,-5.1316,-5.1302,-5.1206,-5.108,-5.0894,-5.0501,-4.9942,-4.9584,-4.9404,-4.9314,-4.9238,-4.9233,-4.9278,-4.9491,-4.9675,-4.991,-4.2514,-4.2574,-4.3264,-4.3433,-4.3379,-4.3361,-4.3033,-4.2359,-4.2304,-4.1864,-4.1187,-4.1205,-4.1205,-4.0985,-4.1003,-4.1058,-4.0671,-3.9551,-3.9294,-3.9845,-3.99,-4.0286,-4.0873,-4.0901,-4.0914,-4.0967,-4.1475,-4.1905,-4.2181,-4.2394,-4.2446,-4.2438,-4.2604,-4.2849,-4.2722,-4.2845,-4.2876,-4.3003,-4.3051,-4.2928,-4.2891,-4.3597,-4.3904,-4.3848,-4.3961,-4.3013,-4.0908,-4.0742,-4.0718,-4.0677,-4.0752,-4.0744,-4.1081,-4.1747,-4.2238,-4.2616,-4.3874,-4.4723,-4.5033,-4.5741,-4.6201,-4.6192,-4.6142,-4.6119,-4.6126,-4.6167,-4.6222,-4.6443,-4.6994,-4.7552,-4.7886,-4.895,-4.9799,-4.9972,-5.0087,-5.0545,-5.1111,-5.1352,-5.1398,-5.1386,-5.1386,-5.1387,-5.1384,-5.1395,-5.1396,-5.1567,-5.2006,-5.2504,-5.2645,-5.3345,-5.347,-5.2947,-5.2811,-5.263,-5.1937,-5.1301,-5.1261,-5.1237,-5.1269,-5.1313,-5.1228,-5.1128,-5.0941,-5.0767,-5.0511,-5.0008,-5.0086,-4.9952,-5.0137,-5.0109,-5.0117,-4.9935,-4.9936,-4.9969,-5.002,-4.3247,-4.3215,-4.342,-4.3549,-4.3549,-4.3532,-4.3331,-4.3129,-4.3129,-4.2653,-4.2121,-4.2506,-4.2176,-4.1425,-4.1645,-4.1644,-4.1077,-4.0545,-4.0506,-4.0708,-4.0726,-4.0838,-4.1111,-4.1146,-4.1301,-4.1571,-4.1773,-4.207,-4.2487,-4.3058,-4.3088,-4.2724,-4.365,-4.3924,-4.3509,-4.3984,-4.4333,-4.4421,-4.445,-4.4196,-4.3778,-4.4466,-4.44,-4.3426,-4.3837,-4.356,-4.2399,-4.1803,-4.1482,-4.1453,-4.1518,-4.1848,-4.2376,-4.2819,-4.3286,-4.3829,-4.4404,-4.5118,-4.5654,-4.5967,-4.6197,-4.6189,-4.6138,-4.6111,-4.6107,-4.6146,-4.6399,-4.6824,-4.7252,-4.7774,-4.9029,-4.9653,-5.0056,-5.001,-5.0595,-5.1002,-5.1261,-5.1367,-5.1384,-5.1386,-5.1385,-5.1387,-5.1412,-5.1429,-5.164,-5.2033,-5.2449,-5.2819,-5.3341,-5.4091,-5.4423,-5.3715,-5.3569,-5.3025,-5.2177,-5.15,-5.1297,-5.128,-5.1299,-5.1337,-5.123,-5.0951,-5.0785,-5.0625,-5.0386,-5.0363,-5.0441,-5.0586,-5.0738,-5.0715,-5.0519,-5.0332,-5.0165,-5.0184,-5.0316,-4.3548,-4.3496,-4.3479,-4.3479,-4.3479,-4.3479,-4.3479,-4.3479,-4.3479,-4.3204,-4.291,-4.3259,-4.2965,-4.2249,-4.2543,-4.2451,-4.2029,-4.2011,-4.1992,-4.1919,-4.1627,-4.1699,-4.1937,-4.1992,-4.2186,-4.2512,-4.2611,-4.2837,-4.3227,-4.3668,-4.3743,-4.3639,-4.4366,-4.4649,-4.4296,-4.4706,-4.5049,-4.5181,-4.5173,-4.4976,-4.4694,-4.501,-4.482,-4.4039,-4.4419,-4.4512,-4.4072,-4.3336,-4.2724,-4.2401,-4.235,-4.264,-4.3142,-4.3562,-4.4066,-4.4549,-4.5035,-4.5492,-4.6031,-4.613,-4.6189,-4.6169,-4.6119,-4.6074,-4.6128,-4.6246,-4.679,-4.7155,-4.7942,-4.8714,-4.973,-5.0336,-5.0456,-5.0478,-5.1008,-5.1352,-5.1347,-5.136,-5.1391,-5.14,-5.14,-5.1542,-5.1753,-5.1854,-5.2129,-5.2718,-5.3219,-5.3317,-5.3922,-5.4526,-5.4307,-5.3879,-5.3288,-5.2734,-5.22,-5.173,-5.1369,-5.133,-5.1325,-5.1355,-5.1327,-5.0829,-5.0516,-5.048,-5.0299,-5.0586,-5.0699,-5.0976,-5.1163,-5.1008,-5.0889,-5.087,-5.0762,-5.0726,-5.0801,-4.3548,-4.3496,-4.3479,-4.3479,-4.3479,-4.3479,-4.3479,-4.3479,-4.3479,-4.3478,-4.3442,-4.3461,-4.3442,-4.3424,-4.3332,-4.3296,-4.3424,-4.3296,-4.324,-4.3094,-4.2745,-4.2671,-4.3167,-4.3185,-4.3354,-4.3675,-4.3743,-4.4028,-4.425,-4.4215,-4.4439,-4.4657,-4.4593,-4.4732,-4.4837,-4.4979,-4.5038,-4.5148,-4.5181,-4.5194,-4.5191,-4.5269,-4.5272,-4.5247,-4.5439,-4.5545,-4.5425,-4.4872,-4.4144,-4.3334,-4.3099,-4.3173,-4.3415,-4.4118,-4.4638,-4.4847,-4.5486,-4.582,-4.6066,-4.6108,-4.6126,-4.615,-4.6075,-4.6035,-4.6205,-4.6715,-4.7235,-4.7654,-4.8813,-4.978,-5.0116,-5.0672,-5.1136,-5.1268,-5.1325,-5.1386,-5.1402,-5.1393,-5.139,-5.1397,-5.1439,-5.168,-5.236,-5.2435,-5.279,-5.3427,-5.4071,-5.4058,-5.3947,-5.409,-5.4048,-5.3652,-5.3139,-5.2694,-5.2257,-5.1722,-5.1384,-5.1348,-5.1352,-5.1363,-5.1387,-5.092,-5.0625,-5.0553,-5.0501,-5.0768,-5.0979,-5.1213,-5.1314,-5.1196,-5.1218,-5.1355,-5.1321,-5.115,-5.1111,-4.3515,-4.3479,-4.3479,-4.3479,-4.3479,-4.3479,-4.3479,-4.3479,-4.3479,-4.3479,-4.3479,-4.3479,-4.3479,-4.3479,-4.3479,-4.3479,-4.3479,-4.3479,-4.3479,-4.3478,-4.3313,-4.3276,-4.3461,-4.3515,-4.3632,-4.3849,-4.3881,-4.4036,-4.4283,-4.4225,-4.4341,-4.4672,-4.4619,-4.4699,-4.4883,-4.4907,-4.4967,-4.5038,-4.5114,-4.5159,-4.5224,-4.5286,-4.5339,-4.541,-4.5545,-4.5657,-4.5708,-4.5488,-4.4955,-4.4141,-4.3881,-4.4154,-4.4661,-4.5064,-4.5252,-4.5368,-4.5634,-4.5929,-4.6005,-4.6066,-4.6085,-4.6042,-4.6099,-4.6238,-4.6791,-4.6996,-4.7748,-4.8653,-4.9553,-5.0021,-5.0609,-5.0986,-5.1196,-5.1288,-5.1352,-5.1386,-5.1402,-5.1402,-5.139,-5.1399,-5.1439,-5.1873,-5.2411,-5.2579,-5.2782,-5.3437,-5.3818,-5.3942,-5.3683,-5.3658,-5.3638,-5.3605,-5.3235,-5.2802,-5.2324,-5.1757,-5.1424,-5.1385,-5.1386,-5.1386,-5.138,-5.1203,-5.1091,-5.1064,-5.0933,-5.1082,-5.1156,-5.1289,-5.1296,-5.1307,-5.1352,-5.1399,-5.1385,-5.1307,-5.1284,-4.3479,-4.3479,-4.3479,-4.3479,-4.3479,-4.3479,-4.3479,-4.3479,-4.3479,-4.3479,-4.3479,-4.3479,-4.3479,-4.3479,-4.3479,-4.3479,-4.3479,-4.3479,-4.3479,-4.3479,-4.3461,-4.3461,-4.3479,-4.3496,-4.36,-4.3718,-4.3734,-4.3862,-4.4017,-4.3968,-4.4106,-4.4364,-4.435,-4.4435,-4.4616,-4.4674,-4.4751,-4.4876,-4.4979,-4.508,-4.5192,-4.5256,-4.537,-4.5476,-4.5573,-4.5648,-4.5708,-4.5635,-4.5342,-4.4913,-4.4719,-4.4861,-4.5322,-4.5457,-4.5547,-4.5582,-4.5742,-4.5854,-4.5986,-4.6049,-4.6041,-4.6088,-4.6255,-4.6667,-4.7171,-4.7646,-4.8739,-4.9405,-4.9876,-5.0399,-5.0857,-5.1056,-5.1164,-5.1277,-5.1336,-5.1384,-5.1404,-5.1749,-5.1921,-5.1942,-5.1988,-5.2265,-5.3007,-5.2746,-5.2877,-5.3333,-5.3622,-5.3415,-5.3109,-5.318,-5.3106,-5.2902,-5.2717,-5.2234,-5.2027,-5.1601,-5.1426,-5.1406,-5.136,-5.1373,-5.1359,-5.1318,-5.1297,-5.1245,-5.1289,-5.13,-5.13,-5.13,-5.1304,-5.1319,-5.1359,-5.1403,-5.1392,-5.1397,-5.1387,-4.3479,-4.3479,-4.3479,-4.3479,-4.3479,-4.3479,-4.3497,-4.3479,-4.3479,-4.3497,-4.3497,-4.3479,-4.3479,-4.3479,-4.3479,-4.3479,-4.3479,-4.3479,-4.3479,-4.3479,-4.3479,-4.3479,-4.3479,-4.3479,-4.3496,-4.3549,-4.3496,-4.3632,-4.3765,-4.3615,-4.3763,-4.4064,-4.4005,-4.4064,-4.4308,-4.4365,-4.4508,-4.4739,-4.4907,-4.5045,-4.5227,-4.5398,-4.5561,-4.5504,-4.5584,-4.5643,-4.5687,-4.5629,-4.5493,-4.5457,-4.536,-4.5281,-4.5398,-4.5409,-4.5448,-4.5565,-4.5648,-4.5791,-4.597,-4.6084,-4.618,-4.631,-4.6913,-4.7359,-4.7729,-4.8631,-4.9437,-4.9848,-5.0422,-5.072,-5.0841,-5.0966,-5.1081,-5.123,-5.1296,-5.1455,-5.1523,-5.209,-5.2573,-5.2572,-5.2516,-5.2945,-5.3242,-5.3096,-5.2649,-5.2931,-5.3124,-5.2799,-5.2424,-5.2259,-5.2067,-5.1776,-5.1609,-5.1472,-5.1421,-5.1423,-5.1402,-5.1381,-5.134,-5.1321,-5.1322,-5.1317,-5.1303,-5.1308,-5.13,-5.13,-5.13,-5.13,-5.13,-5.1316,-5.1359,-5.1372,-5.1389,-5.1387,-5.1386,-4.3479,-4.3479,-4.3479,-4.3479,-4.3479,-4.3479,-4.3463,-4.3429,-4.348,-4.348,-4.3428,-4.348,-4.3479,-4.3479,-4.3479,-4.3479,-4.3479,-4.3497,-4.3479,-4.3479,-4.3479,-4.3479,-4.3479,-4.3479,-4.3479,-4.3479,-4.3479,-4.3531,-4.3548,-4.3565,-4.3649,-4.3894,-4.391,-4.3986,-4.421,-4.4388,-4.4546,-4.4685,-4.4895,-4.5049,-4.5258,-4.5816,-4.5971,-4.5668,-4.5675,-4.5626,-4.5513,-4.5476,-4.5419,-4.5379,-4.5375,-4.5488,-4.5356,-4.535,-4.5428,-4.5525,-4.5614,-4.5695,-4.5854,-4.6485,-4.69,-4.6888,-4.7601,-4.838,-4.8968,-4.9291,-4.992,-5.0364,-5.075,-5.0801,-5.072,-5.083,-5.0935,-5.1095,-5.1663,-5.1921,-5.1533,-5.1636,-5.1991,-5.1833,-5.1888,-5.2009,-5.2765,-5.2635,-5.2472,-5.2589,-5.2412,-5.2133,-5.1825,-5.1503,-5.1372,-5.1245,-5.1246,-5.1271,-5.1347,-5.1393,-5.1389,-5.1384,-5.1335,-5.1307,-5.1303,-5.1292,-5.1308,-5.1304,-5.13,-5.13,-5.13,-5.1304,-5.1308,-5.1326,-5.1343,-5.1378,-5.1399,-5.1387,-5.1385,-4.3479,-4.3479,-4.3479,-4.3479,-4.3479,-4.3479,-4.348,-4.3445,-4.348,-4.348,-4.3464,-4.3497,-4.3479,-4.3479,-4.3463,-4.3445,-4.3445,-4.3464,-4.3445,-4.3445,-4.348,-4.3479,-4.3479,-4.3479,-4.3479,-4.3479,-4.3479,-4.3479,-4.3479,-4.3496,-4.3565,-4.3701,-4.3718,-4.3844,-4.406,-4.4258,-4.4435,-4.4672,-4.4889,-4.5026,-4.5228,-4.5954,-4.6645,-4.6549,-4.6657,-4.6704,-4.6637,-4.6608,-4.6515,-4.6396,-4.6344,-4.5966,-4.5336,-4.5295,-4.5447,-4.5761,-4.5965,-4.631,-4.6737,-4.724,-4.7639,-4.7571,-4.8408,-4.8998,-4.9566,-4.9881,-5.0353,-5.0711,-5.0819,-5.0775,-5.0596,-5.0673,-5.0761,-5.0991,-5.1768,-5.2038,-5.1624,-5.2325,-5.2783,-5.2407,-5.2504,-5.253,-5.2609,-5.2226,-5.1905,-5.1852,-5.1812,-5.1573,-5.1521,-5.1244,-5.1253,-5.1176,-5.1204,-5.125,-5.1352,-5.139,-5.1399,-5.1369,-5.133,-5.1307,-5.1308,-5.1304,-5.13,-5.13,-5.13,-5.13,-5.13,-5.1304,-5.1296,-5.133,-5.1349,-5.1369,-5.1406,-5.1446,-5.1405,-4.3479,-4.3479,-4.3479,-4.3479,-4.3497,-4.3497,-4.348,-4.3445,-4.3479,-4.348,-4.348,-4.348,-4.348,-4.348,-4.3393,-4.3376,-4.3412,-4.3394,-4.3411,-4.3446,-4.3445,-4.3463,-4.3463,-4.3445,-4.3427,-4.348,-4.3479,-4.3479,-4.3479,-4.3479,-4.3496,-4.3496,-4.3496,-4.3699,-4.3926,-4.4067,-4.4292,-4.4646,-4.4865,-4.5157,-4.5479,-4.6245,-4.7059,-4.7769,-4.7729,-4.7731,-4.7622,-4.7629,-4.7665,-4.7548,-4.7578,-4.678,-4.5862,-4.5521,-4.5765,-4.6421,-4.6672,-4.7048,-4.7617,-4.8121,-4.8403,-4.8405,-4.9166,-4.9609,-4.9888,-5.0273,-5.0629,-5.0736,-5.0795,-5.0741,-5.063,-5.0604,-5.0712,-5.1005,-5.1765,-5.1852,-5.1848,-5.3426,-5.3672,-5.2726,-5.2327,-5.2333,-5.2106,-5.1752,-5.142,-5.1142,-5.1127,-5.1115,-5.1102,-5.1095,-5.1117,-5.1155,-5.1167,-5.125,-5.1355,-5.1374,-5.138,-5.1366,-5.1326,-5.1312,-5.13,-5.13,-5.13,-5.13,-5.13,-5.13,-5.1308,-5.13,-5.131,-5.132,-5.1358,-5.1377,-5.1431,-5.1503,-5.1543,-4.3479,-4.3479,-4.3479,-4.3481,-4.3429,-4.348,-4.341,-4.3304,-4.3427,-4.3481,-4.3411,-4.3429,-4.3428,-4.3428,-4.3304,-4.3305,-4.3359,-4.3376,-4.3411,-4.3446,-4.3446,-4.3411,-4.3394,-4.3322,-4.3322,-4.3411,-4.3463,-4.3497,-4.3479,-4.3479,-4.3479,-4.3479,-4.3479,-4.3649,-4.3926,-4.4094,-4.4317,-4.4678,-4.4972,-4.5397,-4.6033,-4.6984,-4.7922,-4.8689,-4.8439,-4.8122,-4.7977,-4.7868,-4.772,-4.751,-4.7578,-4.7271,-4.6919,-4.6915,-4.7138,-4.7298,-4.7453,-4.7739,-4.8248,-4.8836,-4.9105,-4.9327,-4.9856,-5.0279,-5.0394,-5.0548,-5.075,-5.0789,-5.0768,-5.0749,-5.1176,-5.0993,-5.0977,-5.1424,-5.1984,-5.2117,-5.1979,-5.2781,-5.3517,-5.224,-5.1986,-5.1886,-5.1651,-5.149,-5.1327,-5.1171,-5.1169,-5.1138,-5.1094,-5.1094,-5.1087,-5.1122,-5.115,-5.1261,-5.1362,-5.1366,-5.1369,-5.1343,-5.1326,-5.1316,-5.1308,-5.13,-5.132,-5.1534,-5.1437,-5.1304,-5.1296,-5.1307,-5.1343,-5.1352,-5.1372,-5.1406,-5.1675,-5.1902,-5.2011,-4.348,-4.3464,-4.3445,-4.3429,-4.3394,-4.3429,-4.341,-4.3357,-4.341,-4.3429,-4.3394,-4.334,-4.3304,-4.3304,-4.3233,-4.3215,-4.3251,-4.3287,-4.3304,-4.334,-4.3376,-4.334,-4.3286,-4.3214,-4.3305,-4.3376,-4.3429,-4.3463,-4.3479,-4.3479,-4.3479,-4.3479,-4.3496,-4.3682,-4.3986,-4.4151,-4.4412,-4.4744,-4.5324,-4.5846,-4.6427,-4.76,-4.8769,-4.9281,-4.9335,-4.9125,-4.9087,-4.9087,-4.8945,-4.8731,-4.8744,-4.8531,-4.8328,-4.8261,-4.8305,-4.8077,-4.8124,-4.8498,-4.9006,-4.9665,-4.9931,-4.9958,-5.0362,-5.0546,-5.0615,-5.0673,-5.0923,-5.1241,-5.1197,-5.1215,-5.1499,-5.1644,-5.1809,-5.1982,-5.2735,-5.3036,-5.288,-5.3394,-5.2823,-5.1992,-5.207,-5.1905,-5.1342,-5.123,-5.123,-5.121,-5.1205,-5.1166,-5.1117,-5.1093,-5.1101,-5.1113,-5.1147,-5.1205,-5.1291,-5.1287,-5.1319,-5.1316,-5.1292,-5.1281,-5.13,-5.1292,-5.1667,-5.2041,-5.183,-5.1483,-5.1335,-5.1365,-5.1385,-5.1425,-5.1477,-5.1629,-5.2034,-5.23,-5.2539,-4.3446,-4.3394,-4.3376,-4.3358,-4.3358,-4.3358,-4.3394,-4.3428,-4.3394,-4.3376,-4.334,-4.3251,-4.3196,-4.3178,-4.3142,-4.3105,-4.3141,-4.3196,-4.3251,-4.3304,-4.3323,-4.3305,-4.3233,-4.316,-4.3178,-4.3323,-4.334,-4.3411,-4.3462,-4.3479,-4.3479,-4.3479,-4.3515,-4.3747,-4.4087,-4.4192,-4.4495,-4.5029,-4.5778,-4.6327,-4.7105,-4.8319,-4.9477,-5.0123,-5.0255,-5.0183,-5.0068,-5.008,-4.9835,-4.9616,-4.9608,-4.9612,-4.9308,-4.9361,-4.9118,-4.8641,-4.8789,-4.9365,-4.9853,-5.0218,-5.0336,-5.0344,-5.041,-5.0523,-5.0681,-5.0855,-5.1289,-5.1992,-5.2073,-5.2054,-5.2334,-5.2655,-5.2752,-5.2887,-5.3665,-5.4361,-5.3672,-5.3443,-5.3011,-5.2523,-5.24,-5.1908,-5.1286,-5.1181,-5.121,-5.1277,-5.1296,-5.122,-5.1169,-5.1119,-5.1107,-5.112,-5.1144,-5.1164,-5.1201,-5.12,-5.1215,-5.1243,-5.1239,-5.1234,-5.1248,-5.128,-5.1775,-5.229,-5.215,-5.1822,-5.1635,-5.1528,-5.1609,-5.1667,-5.1659,-5.2025,-5.2722,-5.3257,-5.3574,-4.3394,-4.3394,-4.3269,-4.3233,-4.3233,-4.3233,-4.3233,-4.3251,-4.3233,-4.3233,-4.3233,-4.3178,-4.3142,-4.316,-4.3123,-4.3123,-4.316,-4.3196,-4.3341,-4.3503,-4.3414,-4.336,-4.3233,-4.3013,-4.3123,-4.3251,-4.3251,-4.334,-4.3497,-4.3513,-4.3515,-4.3532,-4.3582,-4.373,-4.4132,-4.4236,-4.4453,-4.4991,-4.5836,-4.7011,-4.8334,-4.9347,-4.9879,-5.0125,-5.02,-5.0231,-5.0212,-5.0243,-5.0044,-4.9617,-4.9712,-4.9555,-4.9232,-4.9246,-4.9365,-4.9416,-4.9659,-4.9968,-5.02,-5.0356,-5.0538,-5.0527,-5.0493,-5.0367,-5.0757,-5.1311,-5.1957,-5.2757,-5.2752,-5.291,-5.3248,-5.3315,-5.3503,-5.3697,-5.4099,-5.4284,-5.3891,-5.3531,-5.3088,-5.2453,-5.2156,-5.1688,-5.1159,-5.1176,-5.1215,-5.1308,-5.1349,-5.1276,-5.1205,-5.1125,-5.1069,-5.105,-5.1056,-5.1082,-5.1119,-5.1097,-5.1139,-5.1169,-5.118,-5.118,-5.1264,-5.1405,-5.1927,-5.2271,-5.2263,-5.2538,-5.2688,-5.2545,-5.2149,-5.2023,-5.2149,-5.2829,-5.3682,-5.4118,-5.4472,-4.3233,-4.3233,-4.316,-4.3142,-4.3142,-4.3142,-4.316,-4.3178,-4.316,-4.3142,-4.3123,-4.3013,-4.3012,-4.305,-4.3068,-4.3123,-4.3142,-4.3215,-4.3543,-4.3907,-4.3834,-4.3815,-4.3796,-4.3629,-4.3539,-4.3306,-4.3251,-4.341,-4.3567,-4.3724,-4.3669,-4.374,-4.38,-4.3923,-4.4334,-4.4383,-4.4833,-4.5663,-4.6839,-4.8244,-4.929,-4.986,-5.0108,-5.0207,-5.0207,-5.0163,-5.017,-5.0207,-5.0006,-4.9631,-4.9683,-4.9574,-4.9265,-4.923,-4.9349,-4.9514,-4.9759,-4.998,-5.017,-5.0328,-5.0593,-5.0967,-5.1078,-5.1245,-5.1603,-5.2047,-5.265,-5.347,-5.364,-5.3833,-5.419,-5.4471,-5.4486,-5.4615,-5.4747,-5.4912,-5.4658,-5.375,-5.3224,-5.2563,-5.1915,-5.1522,-5.1171,-5.1117,-5.1176,-5.1285,-5.1316,-5.1272,-5.1164,-5.1056,-5.1009,-5.0974,-5.0952,-5.0971,-5.0995,-5.1004,-5.1037,-5.1088,-5.1136,-5.1161,-5.13,-5.156,-5.2188,-5.2831,-5.3202,-5.3478,-5.3738,-5.3262,-5.2584,-5.2594,-5.2698,-5.3554,-5.4405,-5.474,-5.5019,-4.3086,-4.3049,-4.3049,-4.3086,-4.3086,-4.3049,-4.3105,-4.316,-4.3086,-4.3049,-4.303,-4.2975,-4.2957,-4.2994,-4.3087,-4.316,-4.3141,-4.3379,-4.3834,-4.4198,-4.4379,-4.4395,-4.4395,-4.4319,-4.4012,-4.378,-4.409,-4.4252,-4.444,-4.4535,-4.4584,-4.4251,-4.4779,-4.4851,-4.4871,-4.5159,-4.5688,-4.6629,-4.7794,-4.8926,-4.9822,-5.0031,-5.012,-5.0158,-5.0163,-5.0126,-5.0095,-5.0095,-4.9887,-4.9607,-4.9566,-4.9418,-4.9115,-4.9228,-4.938,-4.9577,-4.9805,-5.0196,-5.0494,-5.0751,-5.1016,-5.1398,-5.1865,-5.2082,-5.2722,-5.299,-5.3366,-5.4212,-5.4371,-5.4484,-5.4714,-5.5314,-5.5326,-5.541,-5.5624,-5.5901,-5.5875,-5.4709,-5.3506,-5.2589,-5.1983,-5.1525,-5.1224,-5.1076,-5.1122,-5.1265,-5.1273,-5.1243,-5.1153,-5.103,-5.0952,-5.0914,-5.089,-5.0893,-5.0945,-5.0956,-5.0978,-5.1027,-5.1089,-5.1321,-5.1567,-5.2053,-5.2714,-5.3336,-5.4036,-5.4333,-5.454,-5.376,-5.3116,-5.3555,-5.4014,-5.4433,-5.5009,-5.5326,-5.5527,-4.3012,-4.2901,-4.2919,-4.2993,-4.3086,-4.2957,-4.2994,-4.3086,-4.2975,-4.2938,-4.2975,-4.303,-4.3105,-4.316,-4.316,-4.3178,-4.3196,-4.398,-4.4217,-4.4271,-4.4397,-4.4759,-4.4922,-4.4849,-4.4742,-4.5165,-4.5149,-4.5425,-4.5965,-4.6032,-4.5797,-4.5482,-4.5937,-4.6352,-4.638,-4.6265,-4.684,-4.763,-4.8428,-4.9054,-4.9756,-5.0031,-5.0057,-5.0095,-5.0089,-5.0082,-5.0018,-4.9992,-4.9943,-4.9574,-4.9633,-4.9658,-4.9575,-4.9688,-4.9893,-5.0094,-5.0323,-5.0793,-5.1261,-5.1367,-5.152,-5.1763,-5.2247,-5.29,-5.3481,-5.3551,-5.4041,-5.4732,-5.4819,-5.5019,-5.5249,-5.5566,-5.5653,-5.5763,-5.5841,-5.5877,-5.5796,-5.5297,-5.4088,-5.2822,-5.2082,-5.1649,-5.125,-5.1101,-5.1117,-5.1276,-5.1265,-5.1234,-5.1153,-5.1056,-5.0941,-5.0877,-5.0844,-5.0863,-5.0899,-5.0905,-5.0893,-5.1041,-5.1165,-5.1576,-5.2012,-5.2621,-5.3501,-5.4124,-5.4828,-5.509,-5.5233,-5.4723,-5.4509,-5.4927,-5.5169,-5.4886,-5.523,-5.5703,-5.5889,-4.2938,-4.2955,-4.3445,-4.3372,-4.2957,-4.2938,-4.2919,-4.2957,-4.2919,-4.2938,-4.303,-4.3086,-4.316,-4.3215,-4.3196,-4.3178,-4.316,-4.3378,-4.3906,-4.4395,-4.4738,-4.5119,-4.5373,-4.5629,-4.5702,-4.5692,-4.5734,-4.5956,-4.6338,-4.7027,-4.7342,-4.7241,-4.7191,-4.6765,-4.6769,-4.7127,-4.7694,-4.8273,-4.8871,-4.9523,-4.9813,-5.0044,-5.0057,-5.0044,-5.0076,-5.0044,-4.9965,-4.9965,-5.001,-5.0124,-5.0159,-5.0279,-5.048,-5.0719,-5.0938,-5.1168,-5.1374,-5.1771,-5.2061,-5.2047,-5.2004,-5.3008,-5.3509,-5.3883,-5.4106,-5.417,-5.4379,-5.4783,-5.5028,-5.5132,-5.5396,-5.5615,-5.5779,-5.5872,-5.5904,-5.5888,-5.5599,-5.5152,-5.4343,-5.2921,-5.2305,-5.1867,-5.1483,-5.1125,-5.1185,-5.1263,-5.1254,-5.1254,-5.1258,-5.1218,-5.1172,-5.1009,-5.0957,-5.0793,-5.0829,-5.081,-5.081,-5.1057,-5.1311,-5.1927,-5.2589,-5.3734,-5.4547,-5.5136,-5.5541,-5.5798,-5.5877,-5.5782,-5.5686,-5.5576,-5.5056,-5.4458,-5.5076,-5.5857,-5.5878,-4.2919,-4.2955,-4.3516,-4.357,-4.3262,-4.3263,-4.3263,-4.3227,-4.2992,-4.3012,-4.3123,-4.3141,-4.3196,-4.325,-4.3269,-4.3196,-4.3269,-4.3486,-4.3994,-4.4537,-4.506,-4.5584,-4.6078,-4.6334,-4.6392,-4.6219,-4.6353,-4.6691,-4.7216,-4.7811,-4.8154,-4.8292,-4.8216,-4.7841,-4.7553,-4.7632,-4.8135,-4.8659,-4.9145,-4.9726,-4.9946,-5.0044,-5.0057,-5.0018,-5.0044,-5.0265,-5.0304,-5.0415,-5.0657,-5.093,-5.1174,-5.1337,-5.1675,-5.2018,-5.2216,-5.2437,-5.262,-5.2813,-5.292,-5.2806,-5.2844,-5.3907,-5.4243,-5.4446,-5.4517,-5.4503,-5.4562,-5.4848,-5.4956,-5.509,-5.5364,-5.5577,-5.5695,-5.574,-5.5892,-5.5857,-5.5386,-5.4909,-5.4029,-5.3023,-5.2542,-5.205,-5.1535,-5.1161,-5.1245,-5.1438,-5.1755,-5.176,-5.1758,-5.1702,-5.1585,-5.137,-5.1122,-5.0932,-5.0738,-5.0813,-5.0975,-5.1477,-5.181,-5.2487,-5.329,-5.4421,-5.525,-5.5658,-5.6032,-5.6425,-5.6424,-5.6213,-5.602,-5.5851,-5.5373,-5.4972,-5.449,-5.5155,-5.5202,-4.2919,-4.2919,-4.2992,-4.3425,-4.4023,-4.4041,-4.3951,-4.3715,-4.319,-4.2994,-4.316,-4.3178,-4.3286,-4.3393,-4.334,-4.3251,-4.3306,-4.3777,-4.4375,-4.4859,-4.5202,-4.6142,-4.678,-4.7039,-4.7062,-4.7704,-4.766,-4.7693,-4.8255,-4.8436,-4.8824,-4.9105,-4.9032,-4.9005,-4.8861,-4.8586,-4.8695,-4.9052,-4.9239,-4.9562,-4.9866,-4.9992,-5.0018,-4.9992,-5.0018,-5.0263,-5.0765,-5.0823,-5.1225,-5.1993,-5.2054,-5.2193,-5.2435,-5.2649,-5.2779,-5.2788,-5.2927,-5.3334,-5.3919,-5.3737,-5.4036,-5.4473,-5.4511,-5.4437,-5.4405,-5.4407,-5.4541,-5.4841,-5.4882,-5.5061,-5.528,-5.5451,-5.5551,-5.5643,-5.5778,-5.5769,-5.5323,-5.5125,-5.437,-5.3715,-5.2908,-5.2182,-5.1612,-5.1211,-5.1279,-5.1574,-5.2105,-5.2222,-5.2095,-5.1908,-5.1676,-5.1444,-5.1129,-5.0894,-5.0727,-5.0871,-5.114,-5.169,-5.2412,-5.3159,-5.3898,-5.4828,-5.5542,-5.6052,-5.6328,-5.6555,-5.6604,-5.6567,-5.6243,-5.5938,-5.6144,-5.5778,-5.5039,-5.4531,-5.4756,-4.2919,-4.2955,-4.348,-4.4168,-4.4693,-4.3734,-4.3299,-4.3244,-4.3046,-4.2975,-4.3087,-4.3123,-4.3196,-4.3269,-4.3251,-4.3196,-4.325,-4.3157,-4.3753,-4.4586,-4.511,-4.5888,-4.6687,-4.7306,-4.7511,-4.779,-4.7947,-4.8128,-4.8439,-4.8606,-4.8874,-4.9162,-4.9211,-4.911,-4.8923,-4.8715,-4.866,-4.8959,-4.9193,-4.948,-4.9792,-4.9912,-4.9997,-4.9976,-5.0049,-5.0491,-5.1309,-5.1376,-5.1983,-5.2963,-5.304,-5.3248,-5.3633,-5.3974,-5.4087,-5.4232,-5.4441,-5.4491,-5.471,-5.4563,-5.4492,-5.4506,-5.442,-5.4337,-5.4306,-5.4234,-5.4472,-5.4761,-5.4833,-5.5028,-5.53,-5.5439,-5.5527,-5.5562,-5.5643,-5.5707,-5.5518,-5.5557,-5.5237,-5.4658,-5.3933,-5.3074,-5.2393,-5.18,-5.1721,-5.1559,-5.1959,-5.1955,-5.1803,-5.1626,-5.1415,-5.1264,-5.1037,-5.0816,-5.0747,-5.1259,-5.1636,-5.2136,-5.3061,-5.4032,-5.4762,-5.5365,-5.5769,-5.6251,-5.6439,-5.6604,-5.6608,-5.6534,-5.6174,-5.6006,-5.6051,-5.5664,-5.4648,-5.4433,-5.4781,-4.2919,-4.2973,-4.3462,-4.3987,-4.4331,-4.3644,-4.3191,-4.2955,-4.2919,-4.2957,-4.3068,-4.3104,-4.3142,-4.316,-4.3123,-4.3377,-4.3449,-4.341,-4.4095,-4.4838,-4.5436,-4.6287,-4.6975,-4.7391,-4.7632,-4.7801,-4.7861,-4.8024,-4.8245,-4.8381,-4.8678,-4.8943,-4.8943,-4.889,-4.8767,-4.8605,-4.8587,-4.8855,-4.9094,-4.934,-4.963,-4.9839,-5.0069,-5.0318,-5.0612,-5.1039,-5.183,-5.2363,-5.2751,-5.3694,-5.4149,-5.432,-5.4814,-5.5014,-5.5085,-5.5233,-5.5273,-5.5088,-5.4899,-5.4836,-5.4601,-5.4334,-5.4284,-5.4337,-5.439,-5.4422,-5.4616,-5.4818,-5.4844,-5.5057,-5.5313,-5.5458,-5.5463,-5.5499,-5.5523,-5.5573,-5.553,-5.556,-5.5316,-5.4831,-5.4491,-5.374,-5.3201,-5.2647,-5.2217,-5.1989,-5.1797,-5.176,-5.1791,-5.1771,-5.1807,-5.1833,-5.1668,-5.159,-5.169,-5.2019,-5.2364,-5.2651,-5.358,-5.4612,-5.5308,-5.585,-5.6159,-5.6387,-5.6517,-5.6604,-5.661,-5.6481,-5.6276,-5.5969,-5.57,-5.5098,-5.418,-5.4355,-5.4785,-4.2919,-4.2919,-4.2919,-4.2992,-4.3137,-4.3751,-4.3626,-4.2937,-4.2919,-4.2957,-4.3086,-4.3068,-4.3177,-4.3251,-4.3196,-4.3613,-4.4194,-4.417,-4.5021,-4.5888,-4.6232,-4.6902,-4.7319,-4.7663,-4.7699,-4.7699,-4.7738,-4.784,-4.7943,-4.8246,-4.8569,-4.8767,-4.8749,-4.8678,-4.8569,-4.8476,-4.8513,-4.875,-4.9165,-4.9457,-4.978,-5.0036,-5.0596,-5.1011,-5.142,-5.2183,-5.2991,-5.3601,-5.4187,-5.4699,-5.4914,-5.4924,-5.4966,-5.4956,-5.5014,-5.5085,-5.5154,-5.4981,-5.4754,-5.4738,-5.4581,-5.4351,-5.4581,-5.46,-5.4584,-5.4616,-5.4803,-5.4952,-5.5019,-5.5187,-5.5371,-5.5384,-5.5409,-5.5409,-5.5409,-5.539,-5.5331,-5.5171,-5.4885,-5.4593,-5.4412,-5.401,-5.385,-5.3405,-5.3002,-5.2743,-5.2597,-5.2621,-5.2648,-5.2662,-5.2781,-5.3101,-5.2921,-5.2605,-5.2715,-5.2797,-5.3078,-5.3355,-5.4061,-5.5007,-5.5672,-5.6172,-5.6329,-5.6452,-5.6525,-5.6584,-5.6612,-5.6621,-5.6571,-5.6226,-5.5877,-5.5312,-5.4668,-5.4512,-5.4609,-4.2919,-4.2919,-4.2919,-4.3227,-4.3751,-4.3987,-4.3625,-4.2955,-4.2919,-4.2938,-4.2957,-4.2938,-4.3393,-4.381,-4.3845,-4.4353,-4.475,-4.5111,-4.5617,-4.6196,-4.6649,-4.7102,-4.7446,-4.7699,-4.7699,-4.7699,-4.7717,-4.7759,-4.7945,-4.8208,-4.8363,-4.8458,-4.8587,-4.8514,-4.8494,-4.8343,-4.8531,-4.8864,-4.9397,-4.9809,-5.0322,-5.0789,-5.142,-5.1897,-5.2246,-5.306,-5.386,-5.4148,-5.4619,-5.5097,-5.499,-5.4956,-5.5047,-5.5028,-5.5042,-5.5273,-5.5273,-5.5165,-5.4788,-5.4952,-5.4908,-5.4517,-5.4769,-5.4874,-5.4818,-5.4788,-5.4941,-5.5052,-5.5143,-5.5288,-5.5377,-5.5409,-5.5422,-5.5422,-5.5409,-5.539,-5.5364,-5.5343,-5.5077,-5.5123,-5.4918,-5.4815,-5.4634,-5.433,-5.3947,-5.3644,-5.3453,-5.3476,-5.3393,-5.3369,-5.3575,-5.3919,-5.3852,-5.3469,-5.3356,-5.3418,-5.3755,-5.4124,-5.4771,-5.5351,-5.5889,-5.6295,-5.6406,-5.6491,-5.6575,-5.6608,-5.6616,-5.6607,-5.6596,-5.6599,-5.6289,-5.5723,-5.5234,-5.4941,-5.4355,-4.2919,-4.2919,-4.2919,-4.3372,-4.4059,-4.4421,-4.4258,-4.3824,-4.3516,-4.3371,-4.3407,-4.3751,-4.4114,-4.4513,-4.464,-4.5021,-4.5743,-4.5816,-4.625,-4.6866,-4.692,-4.7283,-4.7609,-4.7699,-4.7699,-4.7699,-4.7717,-4.7738,-4.7904,-4.8108,-4.8267,-4.8363,-4.8458,-4.8622,-4.8675,-4.8618,-4.8821,-4.9323,-4.9862,-5.0285,-5.0905,-5.1553,-5.2068,-5.2764,-5.3038,-5.3759,-5.4522,-5.4616,-5.4948,-5.5256,-5.5061,-5.4878,-5.499,-5.5057,-5.5099,-5.5267,-5.526,-5.5028,-5.4773,-5.4971,-5.4784,-5.4692,-5.4937,-5.508,-5.5099,-5.5076,-5.5146,-5.5214,-5.5268,-5.5345,-5.5402,-5.5446,-5.5453,-5.5453,-5.5434,-5.5428,-5.5514,-5.5604,-5.5677,-5.5798,-5.5764,-5.568,-5.5496,-5.5188,-5.4861,-5.4476,-5.4294,-5.4319,-5.4126,-5.388,-5.4148,-5.4525,-5.4451,-5.4239,-5.4181,-5.4231,-5.4545,-5.4893,-5.5258,-5.5783,-5.6205,-5.6353,-5.6429,-5.652,-5.6602,-5.6612,-5.6619,-5.6574,-5.6561,-5.6562,-5.6367,-5.5683,-5.5195,-5.4961,-5.4198,-4.3064,-4.3155,-4.31,-4.3607,-4.424,-4.4965,-4.5218,-4.5236,-4.4584,-4.424,-4.4349,-4.4928,-4.5218,-4.5345,-4.5417,-4.5852,-4.6395,-4.6631,-4.6866,-4.7681,-4.7536,-4.7645,-4.7645,-4.7699,-4.7699,-4.7699,-4.7699,-4.7759,-4.7765,-4.7949,-4.8149,-4.8286,-4.8344,-4.8545,-4.8874,-4.862,-4.9026,-5.0182,-5.0339,-5.0565,-5.136,-5.1853,-5.2282,-5.3357,-5.3944,-5.4496,-5.5205,-5.5489,-5.5508,-5.5345,-5.5083,-5.4784,-5.4908,-5.5071,-5.5135,-5.5208,-5.5241,-5.5042,-5.4878,-5.4985,-5.4889,-5.4859,-5.4976,-5.5195,-5.526,-5.5246,-5.5305,-5.5371,-5.5451,-5.5497,-5.5543,-5.5585,-5.5585,-5.557,-5.5542,-5.5507,-5.5499,-5.5629,-5.5778,-5.5866,-5.5893,-5.5835,-5.5775,-5.5439,-5.5365,-5.5107,-5.5108,-5.5151,-5.5015,-5.4664,-5.4807,-5.5172,-5.5147,-5.5106,-5.5218,-5.5297,-5.546,-5.5731,-5.5834,-5.5998,-5.626,-5.6379,-5.6443,-5.6528,-5.6608,-5.6614,-5.6605,-5.6558,-5.6523,-5.6502,-5.6184,-5.5526,-5.5101,-5.4722,-5.3767,-4.4168,-4.4711,-4.4729,-4.4856,-4.5019,-4.5218,-4.5327,-4.5345,-4.5798,-4.558,-4.5146,-4.5291,-4.5707,-4.6178,-4.6214,-4.6631,-4.7192,-4.7265,-4.75,-4.7645,-4.7699,-4.7699,-4.7699,-4.7699,-4.7699,-4.7699,-4.772,-4.7762,-4.7886,-4.7947,-4.8028,-4.8246,-4.8343,-4.8639,-4.8838,-4.8586,-4.9397,-5.0862,-5.0905,-5.1152,-5.2008,-5.2976,-5.3729,-5.4248,-5.4694,-5.5006,-5.5497,-5.5551,-5.5527,-5.5432,-5.4895,-5.4769,-5.4916,-5.5042,-5.5168,-5.53,-5.53,-5.5146,-5.4995,-5.5009,-5.5009,-5.4995,-5.508,-5.5241,-5.5326,-5.5371,-5.5434,-5.5507,-5.5604,-5.5643,-5.5688,-5.5708,-5.5728,-5.5675,-5.5651,-5.5596,-5.5539,-5.5695,-5.5837,-5.5856,-5.5904,-5.5865,-5.5825,-5.5793,-5.5764,-5.5807,-5.5935,-5.5975,-5.5954,-5.574,-5.567,-5.5931,-5.5954,-5.5992,-5.6048,-5.5937,-5.5903,-5.5909,-5.5943,-5.6123,-5.6329,-5.6448,-5.6528,-5.656,-5.6612,-5.6619,-5.6591,-5.6542,-5.6502,-5.6476,-5.6105,-5.5494,-5.4537,-5.3991,-5.2979,-4.4892,-4.5327,-4.5689,-4.5834,-4.5888,-4.6214,-4.6377,-4.645,-4.6848,-4.6794,-4.6413,-4.6413,-4.6631,-4.7029,-4.7047,-4.7156,-4.766,-4.7681,-4.7663,-4.7681,-4.7699,-4.7699,-4.7699,-4.7699,-4.7699,-4.7699,-4.7717,-4.7801,-4.7945,-4.7966,-4.8006,-4.8303,-4.8475,-4.8642,-4.8825,-4.9233,-4.986,-5.1365,-5.1327,-5.1864,-5.2627,-5.342,-5.398,-5.4444,-5.4779,-5.516,-5.5369,-5.5432,-5.5408,-5.5307,-5.4933,-5.4848,-5.496,-5.5057,-5.5149,-5.5267,-5.5332,-5.5292,-5.5146,-5.5094,-5.5135,-5.5094,-5.5121,-5.5248,-5.5358,-5.539,-5.5403,-5.549,-5.5684,-5.5739,-5.5788,-5.5808,-5.5788,-5.5748,-5.5748,-5.5708,-5.5758,-5.5875,-5.5866,-5.5787,-5.5817,-5.5808,-5.5779,-5.5798,-5.5812,-5.5974,-5.6188,-5.6294,-5.6367,-5.6403,-5.6468,-5.6461,-5.6373,-5.6267,-5.6148,-5.6056,-5.5975,-5.6001,-5.607,-5.6255,-5.6445,-5.6539,-5.6606,-5.661,-5.6616,-5.6603,-5.6576,-5.6543,-5.6517,-5.6504,-5.6043,-5.5486,-5.4413,-5.3348,-5.2612,-4.5472,-4.5562,-4.6323,-4.6667,-4.6739,-4.7352,-4.7645,-4.7645,-4.7681,-4.7681,-4.7572,-4.7572,-4.7699,-4.7699,-4.7699,-4.7699,-4.7699,-4.7699,-4.7699,-4.7699,-4.7699,-4.7699,-4.7699,-4.7699,-4.7699,-4.7699,-4.7717,-4.7798,-4.792,-4.7902,-4.8026,-4.8399,-4.8698,-4.8956,-4.9621,-5.0046,-5.0452,-5.1368,-5.1803,-5.2408,-5.3007,-5.3538,-5.3851,-5.4159,-5.4476,-5.4798,-5.5069,-5.5216,-5.5216,-5.5135,-5.5028,-5.4975,-5.4956,-5.5057,-5.5121,-5.5222,-5.5294,-5.5246,-5.5159,-5.5149,-5.5154,-5.5107,-5.5157,-5.5229,-5.5358,-5.5403,-5.5403,-5.549,-5.5684,-5.5798,-5.5837,-5.5884,-5.5856,-5.5808,-5.5808,-5.5846,-5.5949,-5.602,-5.5913,-5.5787,-5.5766,-5.5767,-5.5767,-5.5788,-5.5883,-5.6071,-5.62,-5.629,-5.6386,-5.6412,-5.6453,-5.6453,-5.6402,-5.6297,-5.6239,-5.6167,-5.6087,-5.6155,-5.6244,-5.6402,-5.6536,-5.6575,-5.6606,-5.6612,-5.6618,-5.6607,-5.6599,-5.6562,-5.6553,-5.636,-5.5496,-5.4734,-5.3888,-5.294,-5.2513,-4.6269,-4.6341,-4.7138,-4.7464,-4.7482,-4.7645,-4.7699,-4.7699,-4.7699,-4.7699,-4.7699,-4.7699,-4.7699,-4.7699,-4.7699,-4.7699,-4.7699,-4.7699,-4.7699,-4.7699,-4.7699,-4.7699,-4.7699,-4.7699,-4.7699,-4.7699,-4.7717,-4.7798,-4.784,-4.7819,-4.7968,-4.8344,-4.8587,-4.8753,-4.8919,-4.9566,-5.0582,-5.1406,-5.2042,-5.2555,-5.3033,-5.3459,-5.3718,-5.4052,-5.4392,-5.4754,-5.5069,-5.5203,-5.5216,-5.5149,-5.5009,-5.4956,-5.4971,-5.5028,-5.508,-5.5162,-5.5235,-5.5248,-5.5222,-5.5222,-5.5195,-5.5273,-5.5294,-5.5261,-5.5358,-5.539,-5.5403,-5.5428,-5.5593,-5.5758,-5.5837,-5.591,-5.5919,-5.5827,-5.5789,-5.594,-5.6057,-5.6082,-5.6057,-5.5932,-5.5847,-5.5798,-5.5745,-5.5767,-5.5817,-5.5973,-5.6109,-5.6207,-5.6288,-5.6373,-5.6453,-5.6429,-5.6416,-5.6396,-5.6359,-5.6272,-5.6232,-5.6315,-5.6394,-5.6482,-5.6548,-5.6599,-5.6608,-5.6614,-5.6603,-5.6611,-5.6601,-5.6483,-5.6108,-5.576,-5.4713,-5.3834,-5.3098,-5.2606,-5.2242]},{"header":{"parameterUnit":"m.s-1","parameterCategory":1,"la1":31.0,"la2":29.5877,"lo1":-88.7671,"lo2":-86.6584,"dy":0.0162,"dx":0.0185,"nx":115,"ny":88,"refTime":"2024-07-03T00:00:00:Z","depth":0,"parameterNumber":3,"parameterNumberName":"V-component_of_WINDS"},"data":[0.0,0.0,0.0,0.0,0.0,0.0,0.0,0.0,0.0,0.0,0.0,0.0,0.0,0.0,0.0,0.0,0.0,0.0,0.0,0.0,0.0,0.0,0.0,0.0,0.0,0.0,0.0,0.0,0.0,0.0,0.0,0.0,0.0,0.0,0.0,0.0,0.0,0.0,0.0,0.0,0.0,0.0,0.0,0.0,0.0,0.0,0.0,0.0,0.0,0.0,0.0,0.0,0.0,0.0,0.0,0.0,0.0,0.0,0.0,0.0,0.0,0.0,0.0,0.0,0.0,0.0,0.0,0.0,0.0,0.0,0.0,0.0,0.0,0.0,0.0,0.0,0.0,0.0,0.0,0.0,0.0,0.0,0.0,0.0,0.0,0.0,0.0,0.0,0.0,0.0,0.0,0.0,0.0,0.0,0.0,0.0,0.0,0.0,0.0,0.0,0.0,0.0,0.0,0.0,0.0,0.0,0.0,0.0,0.0,0.0,0.0,0.0,0.0,0.0,0.0,0.0,0.0,0.0,0.0,0.0,0.0,0.0,0.0,0.0,0.0,0.0,0.0,0.0,0.0,0.0,0.0,0.0,0.0,0.0,0.0,0.0,0.0,0.0,0.0,0.0,0.0,0.0,0.0,0.0,0.0,0.0,0.0,0.0,0.0,0.0,0.0,0.0,0.0,0.0,0.0,0.0,0.0,0.0,0.0,0.0,0.0,0.0,0.0,0.0,0.0,0.0,0.0,0.0,0.0,0.0,0.0,0.0,0.0,0.0,0.0,0.0,0.0,0.0,0.0,0.0,0.0,0.0,0.0,0.0,0.0,0.0,0.0,0.0,0.0,0.0,0.0,0.0,0.0,0.0,0.0,0.0,0.0,0.0,0.0,0.0,0.0,0.0,0.0,0.0,0.0,0.0,0.0,0.0,0.0,0.0,0.0,0.0,0.0,0.0,0.0,0.0,0.0,0.0,0.0,0.0,0.0,0.0,0.0,0.0,0.0,0.0,0.0,0.0,0.0,0.0,0.0,0.0,0.0,0.0,0.0,0.0,0.0,0.0,0.0,0.0,0.0,0.0,0.0,0.0,0.0,0.0,0.0,0.0,0.0,0.0,0.0,0.0,0.0,0.0,0.0,0.0,0.0,0.0,0.0,0.0,0.0,0.0,0.0,0.0,0.0,0.0,0.0,0.0,0.0,0.0,0.0,0.0,0.0,0.0,0.0,0.0,0.0,0.0,0.0,0.0,0.0,0.0,0.0,0.0,0.0,0.0,0.0,0.0,0.0,0.0,0.0,0.0,0.0,0.0,0.0,0.0,0.0,0.0,0.0,0.0,0.0,0.0,0.0,0.0,0.0,0.0,0.0,0.0,0.0,0.0,0.0,0.0,0.0,0.0,0.0,0.0,0.0,0.0,0.0,0.0,0.0,0.0,0.0,0.0,0.0,0.0,0.0,0.0,0.0,0.0,0.0,0.0,0.0,0.0,0.0,0.0,0.0,0.0,0.0,0.0,0.0,0.0,0.0,0.0,0.0,0.0,0.0,0.0,0.0,0.0,0.0,0.0,0.0,0.0,0.0,0.0,0.0,0.0,0.0,0.0,0.0,0.0,0.0,0.0,0.0,0.0,0.0,0.0,0.0,0.0,0.0,0.0,0.0,0.0,0.0,0.0,0.0,0.0,0.0,0.0,0.0,0.0,0.0,0.0,0.0,0.0,0.0,0.0,0.0,0.0,0.0,0.0,0.0,0.0,0.0,0.0,0.0,0.0,0.0,0.0,0.0,0.0,0.0,0.0,0.0,0.0,0.0,0.0,0.0,0.0,0.0,0.0,0.0,0.0,0.0,0.0,0.0,0.0,0.0,0.0,0.0,0.0,0.0,0.0,0.0,0.0,0.0,0.0,0.0,0.0,0.0,0.0,0.0,0.0,0.0,0.0,0.0,0.0,0.0,0.0,0.0,0.0,0.0,0.0,0.0,0.0,0.0,0.0,0.0,0.0,0.0,0.0,0.0,0.0,0.0,0.0,0.0,0.0,0.0,0.0,0.0,0.0,0.0,0.0,0.0,0.0,0.0,0.0,0.0,0.0,0.0,0.0,0.0,0.0,0.0,0.0,0.0,0.0,0.0,0.0,0.0,0.0,0.0,0.0,0.0,0.0,0.0,0.0,0.0,0.0,0.0,0.0,0.0,0.0,0.0,0.0,0.0,0.0,0.0,0.0,0.0,0.0,0.0,0.0,0.0,0.0,0.0,0.0,0.0,0.0,0.0,0.0,0.0,0.0,0.0,0.0,0.0,0.0,0.0,0.0,0.0,0.0,0.0,0.0,0.0,0.0,0.0,0.0,0.0,0.0,0.0,0.0,0.0,0.0,0.0,0.0,0.0,0.0,0.0,0.0,0.0,0.0,0.0,0.0,0.0,0.0,0.0,0.0,0.0,0.0,0.0,0.0,0.0,0.0,0.0,0.0,0.0,0.0,0.0,0.0,0.0,0.0,0.0,0.0,0.0,0.0,0.0,0.0,0.0,0.0,0.0,0.0,0.0,0.0,0.0,0.0,0.0,0.0,0.0,0.0,0.0,0.0,0.0,0.0,0.0,0.0,0.0,0.0,0.0,0.0,0.0,0.0,0.0,0.0,0.0,0.0,0.0,0.0,0.0,0.0,0.0,0.0,0.0,0.0,0.0,0.0,0.0,0.0,0.0,0.0,0.0,0.0,0.0,0.0,0.0,0.0,0.0,0.0,0.0,0.0,0.0,0.0,0.0,0.0,0.0,0.0,0.0,0.0,0.0,0.0,0.0,0.0,0.0,0.0,0.0,0.0,0.0,0.0,0.0,0.0,0.0,0.0,0.0,0.0,0.0,0.0,0.0,0.0,0.0,0.0,0.0,0.0,0.0,0.0,0.0,0.0,0.0,0.0,0.0,0.0,0.0,0.0,0.0,0.0,0.0,0.0,0.0,0.0,0.0,0.0,0.0,0.0,0.0,0.0,0.0,0.0,0.0,0.0,0.0,0.0,0.0,0.0,0.0,0.0,0.0,0.0,0.0,0.0,0.0,0.0,0.0,0.0,0.0,0.0,0.0,0.0,0.0,0.0,0.0,0.0,0.0,0.0,0.0,0.0,0.0,0.0,0.0,0.0,0.0,0.0,0.0,0.0,0.0,0.0,0.0,0.0,0.0,0.0,0.0,0.0,0.0,0.0,0.0,0.0,0.0,0.0,0.0,0.0,0.0,0.0,0.0,0.0,0.0,0.0,0.0,0.0,0.0,0.0,0.0,0.0,0.0,0.0,0.0,0.0,0.0,0.0,0.0,0.0,0.0,0.0,0.0,0.0,0.0,0.0,0.0,0.0,0.0,0.0,0.0,0.0,0.0,0.0,0.0,0.0,0.0,0.0,0.0,0.0,0.0,0.0,0.0,0.0,0.0,0.0,0.0,0.0,0.0,0.0,0.0,0.0,0.0,0.0,0.0,0.0,0.0,0.0,0.0,0.0,0.0,0.0,0.0,0.0,0.0,0.0,0.0,0.0,0.0,0.0,0.0,0.0,0.0,0.0,0.0,0.0,0.0,0.0,0.0,0.0,0.0,0.0,0.0,0.0,0.0,0.0,0.0,0.0,0.0,0.0,0.0,0.0,0.0,0.0,0.0,0.0,0.0,0.0,0.0,0.0,0.0,0.0,0.0,0.0,0.0,0.0,0.0,0.0,0.0,0.0,0.0,0.0,0.0,0.0,0.0,0.0,0.0,0.0,0.0,0.0,0.0,0.0,0.0,0.0,0.0,0.0,0.0,0.0,0.0,0.0,0.0,0.0,0.0,0.0,0.0,0.0,0.0,0.0,0.0,0.0,0.0,0.0,0.0,0.0,0.0,0.0,0.0,0.0,0.0,0.0,0.0,0.0,0.0,0.0,0.0,0.0,0.0,0.0,0.0,0.0,0.0,0.0,0.0,0.0,0.0,0.0,0.0,0.0,0.0,0.0,0.0,0.0,0.0,0.0,0.0,0.0,0.0,0.0,0.0,0.0,0.0,0.0,0.0,0.0,0.0,0.0,0.0,0.0,0.0,0.0,0.0,0.0,0.0,0.0,0.0,0.0,0.0,0.0,0.0,0.0,0.0,0.0,0.0,0.0,0.0,0.0,0.0,0.0,0.0,0.0,0.0,0.0,0.0,0.0,0.0,0.0,0.0,0.0,0.0,0.0,0.0,0.0,0.0,0.0,0.0,0.0,0.0,0.0,0.0,0.0,0.0,0.0,0.0,0.0,0.0,0.0,0.0,0.0,1.3413,0.0,0.0,0.0,0.0,0.0,0.0,0.0,0.0,0.0,0.0,0.0,0.0,0.0,0.0,0.0,0.0,0.0,0.0,0.0,0.0,0.0,0.0,0.0,0.0,0.0,0.0,0.0,0.0,0.0,0.0,0.0,0.0,0.0,0.0,0.0,0.0,0.0,0.0,0.0,0.0,0.0,0.0,0.0,0.0,0.0,0.0,0.0,0.0,0.0,0.0,0.0,0.0,0.0,0.0,0.0,0.0,0.0,0.0,0.0,0.0,0.0,0.0,0.0,0.0,0.0,0.0,0.0,0.0,0.0,0.0,0.0,0.0,0.0,0.0,0.0,0.0,0.0,0.0,0.0,0.0,0.0,0.0,0.0,0.0,0.0,0.0,0.0,0.0,0.0,0.0,0.0,0.0,0.0,0.0,0.0,0.0,0.0,0.0,0.0,0.0,0.0,0.0,0.0,0.0,0.0,0.0,0.0,0.0,0.0,0.0,1.4393,1.4407,1.3937,1.372,1.3723,0.0,0.0,0.0,0.0,0.0,0.0,0.0,0.0,0.0,0.0,0.0,0.0,0.0,0.0,0.0,0.0,0.0,0.0,0.0,0.0,0.0,0.0,0.0,0.0,0.0,0.0,0.0,0.0,0.0,0.0,0.0,0.0,0.0,0.0,0.0,0.0,0.0,0.0,0.0,0.0,0.0,0.0,0.0,0.0,0.0,0.0,0.0,0.0,0.0,0.0,0.0,0.0,0.0,0.0,0.0,0.0,0.0,0.0,0.0,0.0,0.0,0.0,0.0,0.0,0.0,0.0,0.0,0.0,0.0,0.0,0.0,0.0,0.0,0.0,0.0,0.0,0.0,0.0,0.0,0.0,0.0,0.0,0.0,0.0,0.0,0.0,0.0,0.0,0.0,0.0,0.0,0.0,0.0,0.0,0.0,0.0,0.0,0.0,0.0,0.0,0.0,0.0,0.0,0.0,0.0,0.0,0.0,0.0,0.0,0.0,0.0,0.0,1.4608,1.4248,1.424,0.0,0.0,0.0,0.0,0.0,0.0,0.0,0.0,0.0,0.0,0.0,0.0,0.0,0.0,0.0,0.0,0.0,0.0,0.0,0.0,0.0,0.0,0.0,0.0,0.0,0.0,0.0,0.0,0.0,0.0,0.0,0.0,0.0,0.0,0.0,0.0,0.0,0.0,0.0,0.0,0.0,0.0,0.0,0.0,0.0,0.0,0.0,0.0,0.0,0.0,0.0,0.0,0.0,0.0,0.0,0.0,0.0,0.0,0.0,0.0,0.0,0.0,0.0,0.0,0.0,0.0,0.0,0.0,0.0,0.0,0.0,0.0,0.0,0.0,0.0,0.0,0.0,0.0,0.0,0.0,0.0,0.0,0.0,0.0,0.0,0.0,0.0,0.0,0.0,0.0,0.0,0.0,0.0,0.0,0.0,0.0,0.0,0.0,0.0,0.0,0.0,0.0,0.0,0.0,0.0,0.0,0.0,0.0,0.0,0.0,1.5273,1.606,1.6008,0.0,1.5842,0.0,0.0,0.0,0.0,0.0,0.0,0.0,0.0,0.0,0.0,0.0,0.0,0.0,0.0,0.0,0.0,0.0,0.0,0.0,0.0,0.0,0.0,0.0,0.0,0.0,0.0,0.0,0.0,0.0,0.0,0.0,0.0,0.0,0.0,0.0,0.0,0.0,0.0,0.0,0.0,0.0,0.0,0.0,0.0,0.0,0.0,0.0,0.0,0.0,0.0,0.0,0.0,0.0,0.0,0.0,0.0,0.0,0.0,0.0,0.0,0.0,0.0,0.0,0.0,0.0,0.0,0.0,0.0,0.0,0.0,0.0,0.0,0.0,0.0,0.0,0.0,0.0,0.0,0.0,0.0,0.0,0.0,0.0,0.0,0.0,0.0,0.0,0.0,0.0,0.0,0.0,0.0,0.0,0.0,0.0,0.0,0.0,0.0,0.0,0.0,0.0,0.0,0.0,0.0,0.0,0.0,0.0,0.0,0.0,0.0,1.5945,1.6315,1.6348,1.6327,0.0,0.0,0.0,0.0,0.0,0.0,0.0,0.0,0.0,0.0,0.0,0.0,0.0,0.0,0.0,0.0,0.0,0.0,0.0,0.0,0.0,0.0,0.0,0.0,0.0,0.0,0.0,0.0,0.0,0.0,0.0,0.0,0.0,0.0,0.0,0.0,0.0,0.0,0.0,0.0,0.0,0.0,0.0,0.0,0.0,0.0,0.0,0.0,0.0,0.0,0.0,0.0,0.0,0.0,0.0,0.0,0.0,0.0,0.0,0.0,0.0,0.0,0.0,0.0,0.0,0.0,0.0,0.0,0.0,0.0,0.0,0.0,0.0,0.0,0.0,0.0,0.0,0.0,0.0,0.0,0.0,0.0,0.0,0.0,0.0,0.0,0.0,0.0,0.0,0.0,0.0,0.0,0.0,0.0,0.0,0.0,0.0,0.0,0.0,0.0,0.0,0.0,0.0,0.0,0.0,0.0,0.0,0.0,0.0,0.0,1.6162,0.0,1.6666,1.6463,1.6296,1.6181,0.0,0.0,0.0,0.0,0.0,0.0,0.0,0.0,0.0,0.0,0.0,0.0,0.0,0.0,0.0,0.0,0.0,0.0,0.0,0.0,0.0,0.0,0.0,0.0,0.0,0.0,0.0,0.0,0.0,0.0,0.0,0.0,0.0,0.0,0.0,0.0,0.0,0.0,0.0,0.0,0.0,0.0,0.0,0.0,0.0,0.0,0.0,0.0,0.0,0.0,0.0,0.0,0.0,0.0,0.0,0.0,0.0,0.0,0.0,0.0,0.0,0.0,0.0,0.0,0.0,0.0,0.0,0.0,0.0,0.0,0.0,0.0,0.0,0.0,0.0,0.0,0.0,0.0,0.0,0.0,0.0,0.0,0.0,0.0,0.0,0.0,0.0,0.0,0.0,0.0,0.0,0.0,0.0,0.0,0.0,0.0,0.0,0.0,0.0,0.0,0.0,0.0,0.0,0.0,0.0,0.0,0.0,0.0,0.0,1.6832,1.6709,1.7353,1.6506,1.5953,0.0,0.0,0.0,0.0,0.0,0.0,0.0,0.0,0.0,0.0,0.0,0.0,0.0,0.0,0.0,0.0,0.0,0.0,0.0,0.0,0.0,0.0,0.0,0.0,0.0,0.0,0.0,0.0,0.0,0.0,0.0,0.0,0.0,0.0,0.0,0.0,0.0,0.0,0.0,0.0,0.0,0.0,0.0,0.0,0.0,0.0,0.0,0.0,0.0,0.0,0.0,0.0,0.0,0.0,0.0,0.0,0.0,0.0,0.0,0.0,0.0,0.0,0.0,0.0,0.0,0.0,0.0,0.0,0.0,0.0,0.0,0.0,0.0,0.0,0.0,0.0,0.0,0.0,0.0,0.0,0.0,0.0,0.0,0.0,0.0,0.0,0.0,0.0,0.0,0.0,0.0,0.0,0.0,0.0,0.0,0.0,0.0,0.0,0.0,0.0,0.0,0.0,0.0,0.0,0.0,0.0,0.0,0.0,0.0,1.6859,1.7183,1.7907,1.906,1.7218,1.6357,0.0,0.0,0.0,0.0,0.0,0.0,0.0,0.0,0.0,0.0,0.0,0.0,0.0,0.0,0.0,0.0,0.0,0.0,0.0,0.0,0.0,0.0,0.0,0.0,0.0,0.0,0.0,0.0,0.0,0.0,0.0,0.0,0.0,0.0,0.0,0.0,0.0,0.0,0.0,0.0,0.0,0.0,0.0,0.0,0.0,0.0,0.0,0.0,0.0,0.0,0.0,0.0,0.0,0.0,0.0,0.0,0.0,0.0,0.0,0.0,0.0,0.0,0.0,0.0,0.0,0.0,0.0,0.0,0.0,0.0,0.0,0.0,0.0,0.0,0.0,0.0,0.0,0.0,0.0,0.0,0.0,0.0,0.0,0.0,0.0,0.0,0.0,0.0,0.0,0.0,0.0,0.0,0.0,0.0,0.0,0.0,0.0,0.0,0.0,0.0,0.0,0.0,0.0,0.0,0.0,0.0,0.0,0.0,0.0,1.676,0.0,1.8417,0.0,1.7444,1.6454,0.0,0.0,0.0,0.0,0.0,0.0,0.0,0.0,0.0,0.0,0.0,0.0,0.0,0.0,0.0,0.0,0.0,0.0,0.0,0.0,0.0,0.0,0.0,0.0,0.0,0.0,0.0,0.0,0.0,0.0,0.0,0.0,0.0,0.0,0.0,0.0,0.0,0.0,0.0,0.0,0.0,0.0,0.0,0.0,0.0,0.0,0.0,0.0,0.0,0.0,0.0,0.0,0.0,0.0,0.0,0.0,0.0,0.0,0.0,0.0,0.0,0.0,0.0,0.0,0.0,0.0,0.0,0.0,0.0,0.0,0.0,0.0,0.0,0.0,0.0,0.0,0.0,0.0,0.0,0.0,0.0,0.0,0.0,0.0,0.0,0.0,0.0,0.0,0.0,0.0,0.0,0.0,0.0,0.0,0.0,0.0,0.0,0.0,0.0,0.0,0.0,0.0,0.0,0.0,0.0,0.0,0.0,0.0,1.588,1.7413,1.8113,1.8127,1.7291,1.7101,1.6145,0.0,0.0,0.0,0.0,0.0,0.0,0.0,0.0,0.0,0.0,0.0,0.0,0.0,0.0,0.0,0.0,0.0,0.0,0.0,0.0,0.0,0.0,0.0,0.0,0.0,0.0,0.0,0.0,0.0,0.0,0.0,0.0,0.0,0.0,0.0,0.0,0.0,0.0,0.0,0.0,0.0,0.0,0.0,0.0,0.0,0.0,0.0,0.0,0.0,0.0,0.0,0.0,0.0,0.0,0.0,0.0,0.0,0.0,0.0,0.0,0.0,0.0,0.0,0.0,0.0,0.0,0.0,0.0,0.0,0.0,0.0,0.0,0.0,0.0,0.0,0.0,0.0,0.0,0.0,0.0,0.0,0.0,0.0,0.0,0.0,0.0,0.0,0.0,0.0,0.0,0.0,0.0,0.0,0.0,0.0,0.0,0.0,0.0,0.0,0.0,0.0,0.0,0.0,0.0,0.0,0.0,0.0,0.0,0.0,1.7058,1.7733,1.8524,1.9298,1.7166,1.6234,0.0,0.0,0.0,0.0,0.0,0.0,0.0,0.0,0.0,0.0,0.0,0.0,0.0,0.0,0.0,0.0,0.0,0.0,0.0,0.0,0.0,0.0,0.0,0.0,0.0,0.0,0.0,0.0,0.0,0.0,0.0,0.0,0.0,0.0,0.0,0.0,0.0,0.0,0.0,0.0,0.0,0.0,0.0,0.0,0.0,0.0,0.0,0.0,0.0,0.0,0.0,0.0,0.0,0.0,0.0,0.0,0.0,0.0,0.0,0.0,0.0,0.0,0.0,0.0,0.0,0.0,0.0,0.0,0.0,0.0,0.0,0.0,0.0,0.0,0.0,0.0,0.0,0.0,0.0,0.0,0.0,0.0,0.0,0.0,0.0,0.0,0.0,0.0,0.0,0.0,0.0,0.0,0.0,0.0,0.0,0.0,0.0,0.0,0.0,0.0,0.0,0.0,0.0,0.0,0.0,0.0,0.0,0.0,0.0,1.7658,1.8136,1.8757,1.9548,1.781,1.6878,1.6874,0.0,0.0,0.0,0.0,0.0,0.0,0.0,0.0,0.0,0.0,0.0,0.0,0.0,0.0,0.0,0.0,0.0,0.0,0.0,0.0,0.0,0.0,0.0,0.0,0.0,0.0,0.0,0.0,0.0,0.0,0.0,0.0,0.0,0.0,0.0,0.0,0.0,0.0,0.0,0.0,0.0,0.0,0.0,0.0,0.0,0.0,0.0,0.0,0.0,0.0,0.0,0.0,0.0,0.0,0.0,0.0,0.0,0.0,0.0,0.0,0.0,0.0,0.0,0.0,0.0,0.0,0.0,0.0,0.0,0.0,0.0,0.0,0.0,0.0,0.0,0.0,0.0,0.0,0.0,0.0,0.0,0.0,0.0,0.0,0.0,0.0,0.0,0.0,0.0,0.0,0.0,0.0,0.0,0.0,0.0,0.0,0.0,0.0,0.0,0.0,0.0,0.0,0.0,0.0,0.0,0.0,0.0,0.0,1.8984,1.9178,1.902,1.8489,1.8916,1.7961,0.0,0.0,0.0,0.0,0.0,0.0,0.0,0.0,0.0,0.0,0.0,0.0,0.0,0.0,0.0,0.0,0.0,0.0,0.0,0.0,0.0,0.0,0.0,0.0,0.0,0.0,0.0,0.0,0.0,0.0,0.0,0.0,0.0,0.0,0.0,0.0,0.0,0.0,0.0,0.0,0.0,0.0,0.0,0.0,0.0,0.0,0.0,0.0,0.0,0.0,0.0,0.0,0.0,0.0,0.0,0.0,0.0,0.0,0.0,0.0,0.0,0.0,0.0,0.0,0.0,0.0,0.0,0.0,0.0,0.0,0.0,0.0,0.0,0.0,0.0,0.0,0.0,0.0,0.0,0.0,0.0,0.0,0.0,0.0,0.0,0.0,0.0,0.0,0.0,0.0,0.0,0.0,0.0,0.0,0.0,0.0,0.0,0.0,0.0,0.0,0.0,0.0,0.0,0.0,0.0,0.0,0.0,0.0,0.0,1.8955,1.9702,2.0332,2.081,1.9604,1.8375,0.0,0.0,0.0,0.0,0.0,0.0,0.0,0.0,0.0,0.0,0.0,0.0,0.0,0.0,0.0,0.0,0.0,0.0,0.0,0.0,0.0,0.0,0.0,0.0,0.0,0.0,0.0,0.0,0.0,0.0,0.0,0.0,0.0,0.0,0.0,0.0,0.0,0.0,0.0,0.0,0.0,0.0,0.0,0.0,0.0,0.0,0.0,0.0,0.0,0.0,0.0,0.0,0.0,0.0,0.0,0.0,0.0,0.0,0.0,0.0,0.0,0.0,0.0,0.0,0.0,0.0,0.0,0.0,0.0,0.0,0.0,0.0,0.0,0.0,0.0,0.0,0.0,0.0,0.0,0.0,0.0,0.0,0.0,0.0,0.0,0.0,0.0,0.0,0.0,0.0,0.0,0.0,0.0,0.0,0.0,0.0,0.0,0.0,0.0,0.0,0.0,0.0,0.0,0.0,0.0,0.0,0.0,0.0,1.776,1.9704,2.0329,2.1093,2.2021,2.0577,1.9018,0.0,0.0,0.0,0.0,0.0,0.0,0.0,0.0,0.0,0.0,0.0,0.0,0.0,0.0,0.0,0.0,0.0,0.0,0.0,0.0,0.0,0.0,0.0,0.0,0.0,0.0,0.0,0.0,0.0,0.0,0.0,0.0,0.0,0.0,0.0,0.0,0.0,0.0,0.0,0.0,0.0,0.0,0.0,0.0,0.0,0.0,0.0,0.0,0.0,0.0,0.0,0.0,0.0,0.0,0.0,0.0,0.0,0.0,0.0,0.0,0.0,0.0,0.0,0.0,0.0,0.0,0.0,0.0,0.0,0.0,0.0,0.0,0.0,0.0,0.0,0.0,0.0,0.0,0.0,0.0,0.0,0.0,0.0,0.0,0.0,0.0,0.0,0.0,0.0,0.0,0.0,0.0,0.0,0.0,0.0,0.0,0.0,0.0,0.0,0.0,0.0,0.0,0.0,0.0,0.0,0.0,0.0,0.0,1.7909,2.0554,2.0876,2.141,2.2171,2.1517,1.9735,0.0,0.0,0.0,0.0,0.0,0.0,0.0,0.0,0.0,0.0,0.0,0.0,0.0,0.0,0.0,0.0,0.0,0.0,0.0,0.0,0.0,0.0,0.0,0.0,0.0,0.0,0.0,0.0,0.0,0.0,0.0,0.0,0.0,0.0,0.0,0.0,0.0,0.0,0.0,0.0,0.0,0.0,0.0,0.0,0.0,0.0,0.0,0.0,0.0,0.0,0.0,0.0,0.0,0.0,0.0,0.0,0.0,0.0,0.0,0.0,0.0,0.0,0.0,0.0,0.0,0.0,0.0,0.0,0.0,0.0,0.0,0.0,0.0,0.0,0.0,0.0,0.0,0.0,0.0,0.0,0.0,0.0,0.0,0.0,0.0,0.0,0.0,0.0,0.0,0.0,0.0,0.0,0.0,0.0,0.0,0.0,0.0,0.0,0.0,0.0,0.0,0.0,0.0,0.0,0.0,0.0,0.0,0.0,1.8045,1.9571,2.0626,2.1119,2.1053,2.1292,2.0067,0.0,0.0,0.0,0.0,0.0,0.0,0.0,0.0,0.0,0.0,0.0,0.0,0.0,0.0,0.0,0.0,0.0,0.0,0.0,0.0,0.0,0.0,0.0,0.0,0.0,0.0,0.0,0.0,0.0,0.0,0.0,0.0,0.0,0.0,0.0,0.0,0.0,0.0,0.0,0.0,0.0,0.0,0.0,0.0,0.0,0.0,0.0,0.0,1.4076,0.0,0.0,0.0,0.0,0.0,0.0,0.0,0.0,0.0,0.0,0.0,0.0,0.0,0.0,0.0,0.0,0.0,0.0,0.0,0.0,0.0,0.0,0.0,0.0,0.0,0.0,0.0,0.0,0.0,0.0,0.0,0.0,0.0,0.0,0.0,0.0,0.0,0.0,0.0,0.0,0.0,0.0,0.0,0.0,0.0,0.0,0.0,0.0,0.0,0.0,0.0,0.0,0.0,0.0,0.0,0.0,0.0,0.0,0.0,1.737,1.8773,2.018,2.0822,2.0676,2.1006,2.01,0.0,0.0,0.0,0.0,0.0,0.0,0.0,0.0,0.0,0.0,0.0,0.0,0.0,0.0,0.0,0.0,0.0,0.0,0.0,0.0,0.0,0.0,0.0,0.0,0.0,0.0,0.0,0.0,0.0,0.0,0.0,0.0,0.0,0.0,0.0,0.0,0.0,0.0,0.0,0.0,0.0,0.0,0.0,0.0,0.0,0.0,0.0,0.0,0.0,0.0,0.0,0.0,0.0,0.0,0.0,0.0,0.0,0.0,0.0,0.0,0.0,0.0,0.0,0.0,0.0,0.0,0.0,0.0,0.0,0.0,0.0,0.0,0.0,0.0,0.0,0.0,0.0,0.0,0.0,0.0,0.0,0.0,0.0,0.0,0.0,0.0,0.0,0.0,0.0,0.0,0.0,0.0,0.0,0.0,0.0,0.0,0.0,0.0,0.0,0.0,0.0,0.0,0.0,0.0,0.0,0.0,0.0,1.4849,1.642,1.792,1.9508,2.0311,2.0244,2.0563,1.9889,1.8081,0.0,0.0,0.0,0.0,0.0,0.0,0.0,0.0,0.0,0.0,0.0,0.0,0.0,0.0,0.0,0.0,0.0,0.0,0.0,0.0,0.0,0.0,0.0,0.0,0.0,0.0,0.0,0.0,0.0,0.0,0.0,0.0,0.0,0.0,0.0,0.0,0.0,0.0,1.5849,1.6054,0.0,0.0,0.0,0.0,0.0,0.0,0.0,0.0,1.4138,0.0,0.0,0.0,0.0,0.0,0.0,0.0,0.0,0.0,0.0,0.0,0.0,0.0,0.0,0.0,0.0,0.0,0.0,0.0,0.0,0.0,0.0,0.0,0.0,0.0,0.0,0.0,0.0,0.0,0.0,0.0,0.0,0.0,0.0,0.0,0.0,0.0,0.0,0.0,0.0,0.0,0.0,0.0,0.0,0.0,0.0,0.0,0.0,0.0,0.0,0.0,0.0,0.0,0.0,0.0,0.0,1.2968,1.4459,1.5731,1.6776,1.8351,1.9008,1.8644,1.9617,1.9154,1.7141,0.0,0.0,0.0,0.0,0.0,0.0,0.0,0.0,0.0,0.0,0.0,0.0,0.0,0.0,0.0,0.0,0.0,0.0,0.0,0.0,0.0,0.0,0.0,0.0,0.0,0.0,0.0,0.0,0.0,0.0,0.0,0.0,0.0,0.0,0.0,0.0,0.0,0.0,0.0,1.5769,1.5699,0.0,0.0,0.0,0.0,0.0,0.0,0.0,0.0,1.3667,0.0,0.0,0.0,0.0,0.0,0.0,0.0,0.0,0.0,0.0,0.0,0.0,0.0,0.0,0.0,0.0,0.0,0.0,0.0,0.0,0.0,0.0,0.0,0.0,0.0,0.0,0.0,0.0,0.0,0.0,0.0,0.0,0.0,0.0,0.0,0.0,0.0,0.0,0.0,0.0,0.0,0.0,0.0,0.0,0.0,0.0,0.0,0.0,0.0,0.0,0.0,0.0,0.0,0.0,0.0,1.2215,1.3411,1.4586,1.5652,1.7038,1.7795,1.7831,1.8429,1.7888,0.0,0.0,0.0,0.0,0.0,0.0,0.0,0.0,0.0,0.0,0.0,0.0,0.0,0.0,0.0,0.0,0.0,0.0,0.0,0.0,0.0,0.0,0.0,0.0,0.0,0.0,0.0,0.0,0.0,0.0,0.0,0.0,0.0,0.0,0.0,0.0,0.0,0.0,0.0,0.0,1.5581,1.5401,1.56,0.0,0.0,0.0,0.0,0.0,0.0,1.3587,1.3238,0.0,0.0,0.0,0.0,0.0,0.0,0.0,0.0,0.0,0.0,0.0,0.0,0.0,0.0,0.0,0.0,0.0,0.0,0.0,0.0,0.0,0.0,0.0,0.0,0.0,0.0,0.0,0.0,0.0,0.0,0.0,0.0,0.0,0.0,0.0,0.0,0.0,0.0,0.0,0.0,0.0,0.0,0.0,0.0,0.0,0.0,0.0,0.0,0.0,0.0,0.0,0.0,0.0,0.0,0.0,1.1186,1.2267,1.3268,1.4203,1.557,1.6483,1.6891,1.7226,1.6574,0.0,0.0,0.0,0.0,0.0,0.0,0.0,0.0,0.0,0.0,0.0,0.0,0.0,0.0,0.0,0.0,0.0,0.0,0.0,0.0,0.0,0.0,0.0,0.0,0.0,0.0,0.0,0.0,0.0,0.0,0.0,0.0,0.0,0.0,0.0,0.0,0.0,0.0,0.0,0.0,0.0,1.5373,1.5255,1.4457,0.0,0.0,0.0,0.0,1.385,1.3359,0.0,0.0,0.0,0.0,0.0,0.0,0.0,0.0,0.0,0.0,0.0,0.0,0.0,0.0,0.0,0.0,0.0,0.0,0.0,0.0,0.0,0.0,0.0,0.0,0.0,0.0,0.0,0.0,0.0,0.0,0.0,0.0,0.0,0.0,0.0,0.0,0.0,0.0,0.0,0.0,0.0,0.0,0.0,0.0,0.0,0.0,0.0,0.0,0.0,0.0,0.0,0.0,0.0,0.0,0.0,0.0,1.0047,1.1243,1.1854,1.1908,1.3819,1.4827,1.4857,1.6066,1.5764,0.0,0.0,0.0,0.0,0.0,0.0,0.0,0.0,0.0,0.0,0.0,0.0,0.0,0.0,0.0,0.0,0.0,0.0,0.0,0.0,0.0,0.0,0.0,0.0,0.0,0.0,0.0,0.0,0.0,0.0,0.0,0.0,0.0,0.0,0.0,0.0,0.0,0.0,0.0,0.0,0.0,1.6133,1.5083,1.4505,1.4102,0.0,0.0,1.3327,1.4038,1.3446,0.0,0.0,0.0,0.0,0.0,0.0,0.0,0.0,0.0,0.0,0.0,0.0,0.0,0.0,0.0,0.0,0.0,0.0,0.0,0.0,0.0,0.0,0.0,0.0,0.0,0.0,0.0,0.0,0.0,0.0,0.0,0.0,0.0,0.0,0.0,0.0,0.0,0.0,0.0,0.0,0.0,0.0,0.0,0.0,0.0,0.0,0.0,0.0,0.0,0.0,0.0,0.0,0.0,0.0,0.0,0.9875,1.0014,1.028,1.0551,1.0925,1.2536,1.3453,1.3545,1.4726,1.4596,0.0,0.0,0.0,0.0,0.0,0.0,0.0,0.0,0.0,0.0,0.0,0.0,0.0,0.0,0.0,0.0,0.0,0.0,0.0,0.0,0.0,0.0,0.0,0.0,0.0,0.0,0.0,0.0,0.0,0.0,0.0,0.0,0.0,0.0,0.0,0.0,0.0,0.0,0.0,0.0,0.0,0.0,1.4434,1.3847,0.0,0.0,0.0,1.2715,1.2946,0.0,0.0,0.0,0.0,0.0,0.0,0.0,0.0,0.0,0.0,0.0,0.0,0.0,0.0,0.0,0.0,0.0,0.0,0.0,0.0,0.0,0.0,0.0,0.0,0.0,0.0,0.0,0.0,0.0,0.0,0.0,0.0,0.0,0.0,0.0,0.0,0.0,0.0,0.0,0.0,0.0,0.0,0.0,0.0,0.0,0.0,0.0,0.0,0.0,0.0,0.0,0.0,0.0,0.0,0.0,0.0,0.0,0.9674,0.9275,0.9263,0.9718,1.1054,1.1852,1.1965,1.2985,0.0,0.0,0.0,0.0,0.0,0.0,0.0,0.0,0.0,0.0,0.0,0.0,0.0,0.0,0.0,0.0,0.0,0.0,0.0,0.0,0.0,0.0,0.0,0.0,0.0,0.0,0.0,1.0887,0.0,0.0,0.0,0.0,0.0,0.0,0.0,0.0,0.0,0.0,0.0,0.0,0.0,0.0,1.4175,1.3762,1.3196,1.2816,0.0,0.0,1.2295,1.2276,1.2431,1.2249,0.0,0.0,0.0,0.0,0.0,0.0,0.0,0.0,0.0,0.0,0.0,0.0,0.0,0.0,0.0,0.0,0.0,0.0,0.0,0.0,0.0,0.0,0.0,0.0,0.0,0.0,0.0,0.0,0.0,0.0,0.0,0.0,0.0,0.0,0.0,0.0,0.0,0.0,0.0,0.0,0.0,0.0,0.0,0.0,0.0,0.0,0.0,0.0,0.0,0.0,0.0,0.0,0.0,0.0,0.0,0.8339,0.8171,0.7908,0.7584,0.9011,0.9759,0.9645,1.0678,1.1065,0.0,0.0,0.0,0.0,0.0,0.0,0.0,0.0,0.0,0.0,0.0,0.0,0.0,0.0,0.0,0.0,0.0,0.0,0.0,0.0,0.0,0.0,0.0,0.0,0.0,0.0,0.0,0.0,0.0,0.0,0.0,0.0,0.0,0.0,0.0,0.0,0.0,0.0,0.0,0.0,0.0,1.407,1.3279,1.2896,1.284,0.0,1.2889,1.2665,1.2656,1.2683,1.226,1.1097,0.0,0.0,0.0,0.0,0.0,0.0,0.0,0.0,0.0,0.0,0.0,0.0,0.0,0.0,0.0,0.0,0.0,0.0,0.0,0.0,0.0,0.0,0.0,0.0,0.0,0.0,0.0,0.0,0.0,0.0,0.0,0.0,0.0,0.0,0.0,0.0,0.0,0.0,0.0,0.0,0.0,0.0,0.0,0.0,0.0,0.0,0.0,0.0,0.0,0.0,0.0,0.0,0.0,0.7666,0.8129,0.7112,0.6528,0.6425,0.7551,0.8011,0.7695,0.8932,0.9526,0.0,0.0,0.0,0.0,0.0,0.0,0.0,0.0,0.0,0.0,0.0,0.0,0.0,0.0,0.0,0.0,0.0,0.0,0.0,0.0,0.0,0.0,0.0,0.0,0.0,0.0,0.0,0.0,1.0323,1.0288,1.0559,0.0,0.0,0.0,0.0,0.0,0.0,0.0,0.0,0.0,0.0,1.2863,1.2215,1.2129,0.0,0.0,1.199,1.1978,1.1775,1.1803,1.1579,1.0765,1.085,0.0,0.0,0.0,0.0,0.0,0.0,0.0,0.0,0.0,0.0,0.0,0.0,0.0,0.0,0.0,0.0,0.0,0.0,0.0,0.0,0.0,0.0,0.0,0.0,0.0,0.0,0.0,0.0,0.0,0.0,0.0,0.0,0.0,0.0,0.0,0.0,0.0,0.0,0.0,0.0,0.0,0.0,0.0,0.0,0.0,0.0,0.0,0.0,0.0,0.0,0.0,0.0,0.7051,0.7814,0.6244,0.5402,0.543,0.6157,0.6368,0.5981,0.6891,0.7553,0.0,0.0,0.0,0.0,0.0,0.0,0.0,0.0,0.0,0.0,0.0,0.0,0.0,0.0,0.0,0.0,0.0,0.0,0.0,0.0,0.0,0.0,0.0,0.0,0.0,0.0,0.0,0.0,0.9827,0.9772,1.058,0.0,0.0,0.0,0.0,0.0,0.0,0.0,0.0,0.0,0.0,1.2064,1.1576,1.1708,1.1747,1.1378,1.1436,1.1464,1.1339,1.1224,1.1032,1.0566,0.0,0.0,0.0,0.0,0.0,0.0,0.0,0.0,0.0,0.0,0.0,0.0,0.0,0.0,0.0,0.0,0.0,0.0,0.0,0.0,0.0,0.0,0.0,0.0,0.0,0.0,0.0,0.365,0.0,0.0,0.4211,0.0,0.0,0.0,0.0,0.0,0.0,0.0,0.0,0.0,0.0,0.0,0.0,0.0,0.0,0.0,0.0,0.0,0.0,0.0,0.0,0.0,0.0,0.6532,0.7181,0.5557,0.4643,0.4536,0.4798,0.477,0.4446,0.448,0.4902,0.5766,0.0,0.0,0.0,0.0,0.0,0.0,0.0,0.0,0.0,0.0,0.0,0.0,0.0,0.0,0.0,0.0,0.0,0.0,0.0,0.0,0.0,0.0,0.0,0.0,0.0,0.0,0.9541,0.9399,0.9516,0.0,0.0,0.0,0.0,0.0,0.0,0.0,0.0,0.0,1.1547,1.1864,1.1954,1.1544,1.1764,1.1886,1.1677,1.1451,1.1364,1.1547,1.1211,1.0811,0.0,0.0,0.0,0.0,0.0,0.0,0.0,0.0,0.0,0.0,0.0,0.0,0.0,0.0,0.0,0.0,0.0,0.0,0.0,0.0,0.0,0.0,0.0,0.0,0.0,0.0,0.0,0.3408,0.3404,0.0,0.0,0.0,0.0,0.0,0.0,0.0,0.0,0.0,0.0,0.0,0.3615,0.3299,0.0,0.0,0.0,0.0,0.0,0.0,0.0,0.0,0.0,0.0,0.0,0.0,0.5547,0.6272,0.4407,0.3345,0.3298,0.3401,0.335,0.3153,0.3179,0.3731,0.4812,0.0,0.0,0.0,0.0,0.0,0.0,0.0,0.0,0.0,0.0,0.0,0.0,0.0,0.0,0.0,0.0,0.0,0.0,0.0,0.0,0.0,0.0,0.0,0.0,0.0,0.8757,0.0,0.0,0.0,0.0,0.0,0.0,0.0,0.0,0.0,0.0,0.0,1.0876,1.0669,1.0629,1.0683,1.0846,1.0829,1.078,0.0,0.0,0.0,0.0,0.0,0.0,0.0,0.0,0.0,0.0,0.0,0.0,0.0,0.0,1.0153,0.9287,0.9541,0.9977,1.0177,0.0,0.0,0.0,0.0,0.0,0.0,0.0,0.0,0.0,0.0,0.0,0.0,0.0,0.0,0.1855,0.1818,0.227,0.0,0.0,0.0,0.0,0.0,0.0,0.0,0.0,0.346,0.3024,0.2317,0.1854,0.1877,0.2297,0.2705,0.3686,0.0,0.0,0.0,0.0,0.0,0.0,0.0,0.0,0.4779,0.5428,0.3481,0.2382,0.2382,0.2382,0.2296,0.21,0.2106,0.2464,0.318,0.4324,0.5527,0.0,0.0,0.0,0.0,0.0,0.0,0.0,0.0,0.0,0.0,0.0,0.0,0.0,0.0,0.0,0.0,0.0,0.0,0.0,0.0,0.0,0.0,0.0,0.84,0.0,0.0,0.0,0.0,0.0,0.0,0.0,0.0,0.0,1.0431,1.0353,1.0189,1.0029,0.9954,0.9995,1.0306,0.0,0.0,0.0,0.0,0.0,0.0,0.0,1.0289,1.0538,1.0578,1.053,1.0381,1.0549,1.0568,1.0202,0.0,0.0,0.8997,0.9129,0.9388,0.9546,0.9575,0.955,0.96,0.9717,0.966,0.0,0.0,0.0,0.0,0.1606,0.0,0.0,0.0,-0.0944,-0.0908,0.0,0.0098,0.0,0.0,0.0,0.0,0.287,0.3727,0.0,0.0,0.1556,0.1269,0.1011,0.0666,0.0823,0.1414,0.1635,0.1902,0.2208,0.3498,0.0,0.0,0.0,0.0,0.0,0.0,0.416,0.4511,0.269,0.1738,0.1768,0.1766,0.16,0.1293,0.1289,0.1161,0.0966,0.2682,0.371,0.3815,0.5956,0.0,0.0,0.0,0.0,0.0,0.0,0.0,0.0,0.0,0.0,0.0,0.0,0.0,0.0,0.0,0.0,0.0,0.0,0.0,0.0,0.8119,0.0,0.0,0.0,0.0,0.0,0.0,0.0,0.0,0.0,0.0,1.0054,1.0089,0.9938,0.9695,0.0,0.0,0.0,0.0,1.0127,0.9964,0.9736,0.9752,1.0177,1.011,1.0144,1.0546,0.0,0.0,1.072,1.0772,1.0553,0.954,0.9522,0.9677,0.9924,0.9493,0.9161,0.9151,0.8975,0.8861,0.887,0.9023,0.9094,-0.1705,0.0,0.0,0.0,0.0,-0.0553,-0.1038,-0.1468,-0.1529,-0.1486,-0.1366,-0.1049,0.0,0.0,0.0,0.0,0.0,0.0,0.093,0.0123,-0.0082,-0.0343,-0.0783,-0.0956,-0.0939,-0.0788,-0.0703,-0.0459,-0.003,0.0029,0.155,0.4392,0.0,0.0,0.0,0.0,0.2607,0.2605,0.1363,0.0811,0.1161,0.1161,0.0987,0.0668,0.0639,0.0555,0.0356,0.0817,0.1749,0.3156,0.3718,0.0,0.0,0.0,0.0,0.0,0.0,0.0,0.0,0.0,0.0,0.0,0.0,0.0,0.0,0.0,0.0,0.0,0.0,0.0,0.7331,0.7258,0.7566,0.0,0.0,0.0,0.0,0.0,0.0,0.0,0.0,0.0,0.9001,0.8754,0.8655,0.0,0.0,0.9485,0.9539,0.9511,0.9469,0.9401,0.9308,0.0,0.9566,0.995,1.0309,1.0536,1.0923,1.1182,1.1209,1.0877,1.0455,1.0202,0.976,0.9321,0.8841,0.8613,0.8421,0.8205,0.7951,0.782,0.8001,0.7992,0.7876,-0.4245,-0.2603,-0.2162,-0.1911,-0.1818,-0.2149,-0.2626,-0.3098,-0.313,-0.3114,-0.3002,-0.2603,-0.2255,-0.1937,-0.1294,0.0,0.0,0.0,-0.0908,-0.1525,-0.1739,-0.1879,-0.2007,-0.2431,-0.2511,-0.2297,-0.236,-0.2147,-0.169,-0.1583,-0.0424,0.1709,0.0,0.2493,0.2803,0.1608,0.0958,0.0821,0.0145,-0.009,0.018,0.033,0.033,0.015,0.006,0.0,-0.0123,-0.0091,0.0568,0.1902,0.2428,0.3678,0.0,0.0,0.0,0.0,0.0,0.0,0.0,0.0,0.0,0.0,0.0,0.6693,0.7441,0.0,0.0,0.0,0.6105,0.6307,0.6384,0.6604,0.0,0.0,0.0,0.0,0.0,0.0,0.0,0.895,0.8946,0.8883,0.8686,0.8536,0.8341,0.8185,0.8436,0.8548,0.828,0.0,0.8157,0.7972,0.7983,0.8182,0.8619,0.9043,0.9527,1.0263,1.0874,1.116,1.113,1.0802,1.0461,1.0285,0.9953,0.9303,0.8291,0.8034,0.7767,0.7161,0.7024,0.6987,0.7036,0.7132,0.727,-0.6389,-0.6104,-0.4269,-0.3684,-0.3888,-0.3748,-0.4366,-0.5472,-0.5376,-0.5362,-0.5359,-0.4398,-0.3899,-0.3682,-0.2201,0.0,-0.2958,-0.2279,-0.2376,-0.3107,-0.3395,-0.3345,-0.3045,-0.3876,-0.403,-0.3506,-0.3691,-0.3539,-0.3088,-0.2171,-0.1583,-0.142,-0.0978,-0.0262,0.0697,-0.0087,-0.0647,-0.0878,-0.0942,-0.0959,-0.0988,-0.0619,-0.0403,-0.0372,-0.0496,-0.0527,-0.0529,-0.0311,-0.0031,0.034,0.1791,0.2919,0.3734,0.0,0.0,0.0,0.0,0.0,0.0,0.0,0.0,0.0,0.0,0.0,0.0,0.0,0.0,0.0,0.4971,0.0,0.5098,0.618,0.0,0.0,0.0,0.8174,0.8923,0.8328,0.8196,0.9061,0.0,0.0,0.8881,0.8961,0.869,0.783,0.7696,0.737,0.6487,0.6622,0.6547,0.6339,0.6389,0.677,0.7532,0.7796,0.8397,0.9848,1.0759,1.1086,1.0709,1.0593,1.0427,1.004,0.9969,0.9464,0.8134,0.7651,0.7159,0.5955,0.6016,0.6253,0.6214,0.6582,0.7042,-0.6995,-0.6773,-0.629,-0.5995,-0.5855,-0.6048,-0.6168,-0.6234,-0.6351,-0.6195,-0.5846,-0.5588,-0.5385,-0.5176,-0.4654,-0.4497,-0.4621,-0.4342,-0.4372,-0.4665,-0.4742,-0.5009,-0.545,-0.5795,-0.602,-0.6188,-0.6226,-0.5745,-0.485,-0.4981,-0.4187,-0.2608,-0.2787,-0.2056,-0.032,-0.0451,-0.0865,-0.1474,-0.1489,-0.1561,-0.1655,-0.1402,-0.1181,-0.0927,-0.0959,-0.0968,-0.0955,-0.0923,-0.0718,-0.0383,0.038,0.1489,0.297,0.4962,0.0,0.0,0.0,0.0,0.0,0.0,0.0,0.0,0.0,0.6161,0.649,0.0,0.4531,0.0,0.4532,0.4688,0.5073,0.5868,0.0,0.0,0.7688,0.7965,0.7879,0.8222,0.8419,0.815,0.8566,0.8627,0.8082,0.8507,0.8405,0.7292,0.7525,0.7319,0.617,0.6302,0.6505,0.6385,0.6305,0.6449,0.6647,0.7385,0.8386,0.9667,1.0119,1.0298,1.0279,1.0186,0.9978,0.9718,0.9529,0.8733,0.7135,0.6736,0.6069,0.4634,0.4874,0.5664,0.6153,0.623,0.6361,-0.7777,-0.774,-0.745,-0.7013,-0.6564,-0.7225,-0.7469,-0.7401,-0.7701,-0.7569,-0.709,-0.6655,-0.6397,-0.6273,-0.6085,-0.5999,-0.5996,-0.5836,-0.5782,-0.584,-0.5757,-0.6115,-0.6728,-0.7001,-0.7327,-0.7717,-0.7686,-0.7287,-0.6536,-0.6405,-0.576,-0.4671,-0.4643,-0.3915,-0.2501,-0.1674,-0.1447,-0.1732,-0.1943,-0.2157,-0.2458,-0.2358,-0.1823,-0.0804,-0.0804,-0.0391,0.0535,0.0555,0.0776,0.1238,0.1511,0.2255,0.3512,0.4702,0.5692,0.0,0.0,0.0,0.0,0.0,0.0,0.0,0.0,0.0,0.0,0.0,0.356,0.3804,0.3931,0.4218,0.481,0.5674,0.6383,0.6862,0.7275,0.754,0.7462,0.7965,0.8333,0.8393,0.8732,0.8809,0.8397,0.8689,0.8424,0.6986,0.7093,0.6881,0.5695,0.545,0.5327,0.5224,0.5141,0.5316,0.5761,0.7091,0.8173,0.8832,0.9352,0.9648,0.9621,0.9497,0.938,0.9375,0.9232,0.8432,0.6783,0.6284,0.5636,0.4237,0.3986,0.4535,0.5186,0.5444,0.5748,-0.8703,-0.8742,-0.8178,-0.7542,-0.6998,-0.8015,-0.8326,-0.8103,-0.8449,-0.8449,-0.8168,-0.7506,-0.7168,-0.7099,-0.6901,-0.688,-0.6988,-0.6813,-0.6754,-0.6741,-0.6626,-0.6921,-0.7552,-0.7915,-0.8308,-0.873,-0.8654,-0.8436,-0.8008,-0.7157,-0.6725,-0.6645,-0.6071,-0.5362,-0.4595,-0.3074,-0.2157,-0.1921,-0.2414,-0.2842,-0.3202,-0.3042,-0.2106,-0.0423,-0.0423,0.0395,0.2186,0.2314,0.2592,0.3115,0.3163,0.3418,0.3865,0.4451,0.474,0.0,0.5317,0.0,0.0,0.0,0.0,0.0,0.0,0.0,0.0,0.2809,0.2812,0.2826,0.3243,0.3818,0.4431,0.5424,0.6139,0.6382,0.6748,0.7076,0.7324,0.7566,0.7977,0.882,0.8871,0.8834,0.8805,0.8935,0.8352,0.7072,0.6745,0.6388,0.5308,0.4636,0.4136,0.3643,0.3587,0.4201,0.526,0.6533,0.7387,0.7623,0.8177,0.8774,0.864,0.8724,0.8805,0.8968,0.8946,0.8342,0.6765,0.6261,0.5505,0.4105,0.3542,0.343,0.3982,0.4582,0.5039,-0.9609,-0.915,-0.8889,-0.8865,-0.9057,-0.9574,-0.8237,-0.5773,-0.5838,-0.6153,-0.6717,-0.7878,-0.8089,-0.7641,-0.7504,-0.7279,-0.6988,-0.6956,-0.6961,-0.6946,-0.7425,-0.7982,-0.8688,-0.9222,-0.9633,-0.9856,-0.9856,-0.9479,-0.8801,-0.8285,-0.7366,-0.6097,-0.5616,-0.4819,-0.3712,0.0,0.0,0.0,-0.3423,-0.3765,-0.3429,-0.2263,-0.1287,-0.0498,-0.032,0.0,0.0537,0.0745,0.078,0.0787,0.1377,0.0,0.0,0.0,0.0,0.0,0.0,0.0,0.0,0.0,0.0,0.0,0.1428,0.1747,0.2512,0.2574,0.2392,0.2016,0.2684,0.3396,0.3892,0.4665,0.5474,0.6293,0.6596,0.6882,0.7183,0.6941,0.7018,0.7795,0.7537,0.7454,0.7726,0.7989,0.7956,0.7204,0.6879,0.6543,0.6096,0.5094,0.4201,0.3698,0.3587,0.4033,0.5202,0.5144,0.5415,0.5892,0.6374,0.6627,0.6781,0.7861,0.8488,0.8248,0.868,0.8711,0.7265,0.6376,0.5602,0.4637,0.3618,0.3078,0.3831,0.4133,0.4384,-1.0266,-1.0417,-0.9909,-0.9642,0.0,-0.9848,-0.866,-0.6668,-0.8116,-0.8741,-0.8738,-0.9203,-0.9031,-0.8342,-0.7356,-0.6801,-0.6565,-0.5889,-0.6013,-0.6761,-0.7179,-0.8134,-0.9571,-0.9803,-1.0105,-1.0481,-1.04,-0.9986,-0.9268,-0.878,-0.8008,-0.6965,-0.6507,-0.5967,-0.5449,-0.5526,-0.5009,-0.3836,-0.4311,-0.4662,-0.4874,-0.4209,-0.3164,-0.188,-0.1809,0.0,0.0,0.0,0.0,0.0,0.0,0.0,0.0,0.0,0.0,0.1143,0.1333,0.1135,0.0425,0.0575,0.0445,-0.0195,-0.0162,0.0369,0.1497,0.1521,0.1369,0.1105,0.2033,0.2747,0.3038,0.4172,0.5209,0.5696,0.6134,0.6467,0.6574,0.6323,0.63,0.6669,0.6844,0.6902,0.6972,0.7468,0.7651,0.7268,0.7043,0.6765,0.6262,0.526,0.4313,0.3699,0.3587,0.4033,0.5093,0.5035,0.4851,0.5535,0.5759,0.5816,0.5922,0.6563,0.7241,0.7709,0.8229,0.8141,0.7397,0.6505,0.5639,0.465,0.3573,0.2877,0.3177,0.3328,0.358,-1.0789,-1.1651,-1.0869,-1.0333,-1.0008,-1.0069,-0.9696,-0.9226,-1.1322,0.0,0.0,-1.0519,-0.9933,-0.91,-0.7529,-0.6806,-0.6708,-0.5645,-0.5835,-0.6998,-0.7429,-0.8592,-1.0307,-1.0269,-1.0503,-1.0916,-1.0604,-1.0209,-0.9639,-0.8951,-0.8441,-0.8063,-0.7526,-0.733,-0.7484,-0.7518,-0.6866,-0.5566,-0.5139,-0.5343,-0.6133,-0.5933,-0.4964,-0.3141,-0.3217,-0.2353,-0.0508,0.007,0.0522,0.087,0.1432,0.1775,0.191,0.1154,0.0682,0.0663,0.0113,-0.0499,-0.1119,-0.0825,-0.0915,-0.1601,-0.127,-0.0662,0.0135,0.0225,0.0275,0.0334,0.1293,0.2013,0.2212,0.3707,0.4775,0.4875,0.5429,0.5744,0.5744,0.5557,0.5396,0.5631,0.5979,0.6282,0.6236,0.6824,0.7213,0.7043,0.7043,0.6985,0.6318,0.5204,0.4255,0.381,0.3531,0.3866,0.4925,0.4981,0.5174,0.5452,0.5379,0.5341,0.5491,0.5467,0.5996,0.7205,0.7481,0.7337,0.704,0.6233,0.5385,0.4492,0.3444,0.2636,0.2483,0.2529,0.2777,-1.1197,-1.18,-1.1358,-1.1456,-1.19,-1.1728,-1.2104,-1.2737,-1.1633,-1.0406,-0.9262,-1.0725,-1.0835,-0.9826,-0.9383,-0.9125,-0.8986,-0.9169,-0.9159,-0.9071,-1.0234,-1.0788,-1.0919,-1.1408,-1.1573,-1.1436,-1.0712,-1.0184,-0.9852,-0.876,-0.814,-0.8068,-0.7676,-0.7488,-0.7518,-0.7518,-0.7391,-0.7134,-0.6043,-0.5401,-0.5201,-0.4125,-0.3355,-0.2879,-0.2763,-0.2499,-0.2157,-0.1912,-0.1569,-0.1196,-0.0691,-0.0612,-0.0957,-0.096,-0.1286,-0.1954,-0.1966,-0.2029,-0.2151,-0.1995,-0.1805,-0.1755,-0.1364,-0.1171,-0.1425,-0.0737,-0.0187,0.0049,0.0635,0.1378,0.2246,0.2807,0.341,0.4019,0.4294,0.4396,0.4505,0.4254,0.4211,0.4545,0.4407,0.4486,0.488,0.5584,0.6044,0.61,0.6543,0.6932,0.6262,0.5035,0.4142,0.3863,0.3307,0.3533,0.4482,0.4089,0.4193,0.5246,0.4569,0.4172,0.4597,0.4924,0.5397,0.5881,0.6414,0.6598,0.6317,0.5316,0.4695,0.4307,0.321,0.2326,0.237,0.2293,0.2324,-1.1808,-1.2473,-1.2183,-1.2396,-1.2893,-1.2928,-1.3287,-1.3771,-1.3009,-1.2056,-1.1196,-1.1786,-1.1558,-1.0653,-0.9654,-0.9151,-0.9068,-0.8761,-0.9001,-0.964,-1.0377,-1.1112,-1.1828,-1.204,-1.2092,-1.192,-1.1039,-1.0426,-0.9932,-0.9007,-0.837,-0.8051,-0.7852,-0.7728,-0.7686,-0.7724,-0.7724,-0.7673,-0.7074,-0.672,-0.6493,-0.5921,-0.5508,-0.5307,-0.5007,-0.4772,-0.4691,-0.4166,-0.3709,-0.3285,-0.2653,-0.2341,-0.2395,-0.2143,-0.2197,-0.2674,-0.2543,-0.2491,-0.2517,-0.2366,-0.2149,-0.1825,-0.1613,-0.1518,-0.1597,-0.1034,-0.0476,-0.0245,0.0149,0.06,0.1261,0.1665,0.2269,0.3075,0.3047,0.3188,0.3591,0.3349,0.3239,0.34,0.3585,0.378,0.3918,0.4621,0.5094,0.515,0.5761,0.6207,0.6212,0.4979,0.3861,0.3526,0.3025,0.3139,0.3976,0.4088,0.4255,0.5039,0.4255,0.3696,0.3751,0.3918,0.4239,0.4877,0.5565,0.6015,0.6024,0.5211,0.4519,0.4033,0.3038,0.2253,0.2058,0.2081,0.2374,-1.2277,-1.3052,-1.2796,-1.296,-1.3434,-1.3646,-1.3913,-1.4088,-1.4082,-1.3779,-1.3222,-1.2796,-1.2235,-1.1493,-1.0195,-0.9627,-0.9536,-0.8964,-0.9309,-1.0407,-1.0754,-1.1601,-1.2668,-1.2594,-1.2472,-1.2338,-1.1346,-1.0539,-1.0039,-0.9142,-0.8464,-0.8053,-0.8012,-0.7947,-0.7825,-0.7947,-0.7947,-0.7869,-0.7898,-0.7862,-0.7785,-0.771,-0.7571,-0.7315,-0.6997,-0.6767,-0.6515,-0.5934,-0.5368,-0.4857,-0.4169,-0.3572,-0.3197,-0.2799,-0.2688,-0.2782,-0.2697,-0.2655,-0.2684,-0.2509,-0.2294,-0.1941,-0.1826,-0.1732,-0.1513,-0.1195,-0.0823,-0.0493,-0.01,0.0151,0.0303,0.0656,0.116,0.1617,0.151,0.1739,0.245,0.2355,0.2287,0.2422,0.2874,0.3172,0.3246,0.3722,0.4254,0.4592,0.4925,0.5375,0.5656,0.4702,0.3638,0.3023,0.269,0.2859,0.3526,0.3974,0.448,0.4929,0.4198,0.3639,0.3304,0.2856,0.2799,0.3742,0.4303,0.4684,0.517,0.4627,0.3855,0.3425,0.2596,0.1993,0.1846,0.2139,0.2482,-1.2229,-1.2966,-1.279,-1.296,-1.344,-1.387,-1.4046,-1.4088,-1.4088,-1.4082,-1.3913,-1.3525,-1.3003,-1.2571,-1.2165,-1.1972,-1.2,-1.2342,-1.2397,-1.2463,-1.3092,-1.3351,-1.329,-1.314,-1.302,-1.2801,-1.133,-1.0481,-1.0298,-0.8885,-0.8061,-0.8012,-0.8012,-0.8016,-0.7996,-0.8012,-0.8008,-0.7992,-0.8158,-0.8078,-0.7716,-0.7683,-0.7522,-0.7154,-0.7102,-0.6967,-0.6678,-0.6623,-0.6204,-0.5419,-0.4838,-0.4216,-0.3463,-0.2931,-0.2747,-0.2791,-0.2803,-0.2855,-0.2909,-0.2708,-0.2484,-0.2213,-0.2019,-0.1796,-0.1541,-0.1489,-0.1283,-0.0802,-0.0101,0.005,-0.0252,-0.0101,-0.0101,-0.0252,-0.0417,-0.0264,0.0627,0.0856,0.1202,0.1801,0.2185,0.2255,0.2229,0.2742,0.3529,0.4201,0.4369,0.4536,0.4648,0.3921,0.3081,0.2464,0.2074,0.2522,0.3471,0.3752,0.4257,0.5206,0.4255,0.3471,0.3191,0.2297,0.1457,0.2408,0.2682,0.2836,0.3031,0.2789,0.2769,0.261,0.2209,0.1821,0.2018,0.2328,0.2575,-1.2534,-1.2881,-1.2924,-1.3179,-1.3568,-1.3659,-1.3828,-1.4088,-1.4088,-1.4088,-1.4082,-1.3913,-1.3525,-1.3143,-1.3045,-1.3009,-1.3003,-1.3434,-1.3603,-1.3568,-1.3822,-1.3913,-1.3786,-1.3568,-1.3483,-1.33,-1.173,-1.0921,-1.0692,-0.9473,-0.8679,-0.8551,-0.8551,-0.8411,-0.8195,-0.8288,-0.8292,-0.8187,-0.8357,-0.8418,-0.8228,-0.7955,-0.7741,-0.7554,-0.7222,-0.6919,-0.6824,-0.6749,-0.6408,-0.5832,-0.5262,-0.4718,-0.4202,-0.3532,-0.3167,-0.3161,-0.2972,-0.2917,-0.2998,-0.2947,-0.2779,-0.2494,-0.2253,-0.2029,-0.1778,-0.1525,-0.1253,-0.1059,-0.1009,-0.1009,-0.096,-0.1313,-0.1513,-0.1216,-0.1355,-0.1163,0.0052,0.027,0.0608,0.1371,0.1599,0.1724,0.1791,0.2074,0.2634,0.3251,0.3419,0.3475,0.3811,0.3306,0.2805,0.2523,0.2131,0.2187,0.308,0.3474,0.4089,0.4648,0.392,0.3024,0.252,0.168,0.0785,0.1121,0.1279,0.1601,0.2083,0.1948,0.1821,0.1898,0.2094,0.1976,0.2155,0.253,0.2782,-1.2832,-1.3034,-1.3367,-1.3627,-1.3836,-1.375,-1.3926,-1.4166,-1.4208,-1.4162,-1.4088,-1.4088,-1.3913,-1.361,-1.361,-1.361,-1.3659,-1.3955,-1.4088,-1.4088,-1.4088,-1.4088,-1.4082,-1.3779,-1.3652,-1.3434,-1.2015,-1.1068,-1.0679,-0.9733,-0.9087,-0.8911,-0.8867,-0.8669,-0.8437,-0.8551,-0.8547,-0.8437,-0.8551,-0.8568,-0.8476,-0.8211,-0.7989,-0.7852,-0.7349,-0.703,-0.694,-0.6878,-0.6609,-0.619,-0.5548,-0.5038,-0.4671,-0.3952,-0.3481,-0.3354,-0.3146,-0.3015,-0.3026,-0.3087,-0.2978,-0.274,-0.2492,-0.222,-0.1972,-0.16,-0.1313,-0.1313,-0.1817,-0.1917,-0.1716,-0.217,-0.2274,-0.1932,-0.225,-0.1855,-0.0581,-0.0329,0.0056,0.0994,0.1224,0.129,0.1514,0.1458,0.1514,0.1963,0.1851,0.1851,0.2186,0.1905,0.1683,0.2019,0.157,0.1794,0.2689,0.3306,0.3977,0.4201,0.364,0.2409,0.1735,0.084,0.0112,0.0224,0.0386,0.0654,0.1027,0.1015,0.111,0.1513,0.1817,0.2089,0.233,0.2714,0.299,-1.3108,-1.3767,-1.4295,-1.4379,-1.4219,-1.4391,-1.4477,-1.4502,-1.4502,-1.4355,-1.4128,-1.4122,-1.4102,-1.4053,-1.4017,-1.4053,-1.4046,-1.4082,-1.4088,-1.4088,-1.4088,-1.4088,-1.4082,-1.3659,-1.3525,-1.3561,-1.1972,-1.0598,-0.9563,-0.9139,-0.8911,-0.8911,-0.8761,-0.862,-0.8604,-0.8629,-0.8616,-0.8624,-0.8641,-0.8492,-0.8276,-0.8413,-0.8286,-0.7915,-0.7632,-0.736,-0.7129,-0.7078,-0.6892,-0.6404,-0.5747,-0.5176,-0.4732,-0.402,-0.3484,-0.3266,-0.3284,-0.3213,-0.3137,-0.3101,-0.3037,-0.2799,-0.2538,-0.23,-0.2073,-0.1751,-0.1565,-0.1566,-0.1968,-0.227,-0.2274,-0.2277,-0.2645,-0.3355,-0.3319,-0.2627,-0.1414,-0.1105,-0.056,0.0559,0.0952,0.1009,0.1234,0.0561,0.0392,0.0392,-0.0112,-0.0448,-0.028,-0.0449,-0.0112,0.0393,0.0617,0.0897,0.297,0.3475,0.3867,0.4201,0.3529,0.2128,0.1232,0.0448,-0.0224,-0.067,-0.0496,-0.0326,-0.0053,0.0211,0.0419,0.0832,0.1561,0.194,0.2391,0.277,0.3055,-1.3812,-1.4307,-1.436,-1.4501,-1.4681,-1.4636,-1.4667,-1.481,-1.4796,-1.4643,-1.4429,-1.4563,-1.4479,-1.4102,-1.4289,-1.4262,-1.4095,-1.4088,-1.4088,-1.4088,-1.4088,-1.4088,-1.4088,-1.3913,-1.3786,-1.3476,-1.2277,-1.0982,-0.9839,-0.9602,-0.9469,-0.9367,-0.9377,-0.9257,-0.9041,-0.9116,-0.9088,-0.8951,-0.8905,-0.8803,-0.8612,-0.8627,-0.8447,-0.8095,-0.796,-0.7697,-0.7288,-0.7334,-0.719,-0.6871,-0.6033,-0.5544,-0.5277,-0.4346,-0.3791,-0.3748,-0.3495,-0.3376,-0.3347,-0.3213,-0.3148,-0.3049,-0.2612,-0.2415,-0.2204,-0.1861,-0.1566,-0.1667,-0.1768,-0.2028,-0.2511,-0.2874,-0.3343,-0.3791,-0.3458,-0.2821,-0.2025,-0.1387,-0.0617,0.0336,0.0729,0.0785,0.0504,0.0168,-0.0112,-0.0392,-0.0729,-0.0954,-0.0843,-0.0622,-0.0341,0.0056,0.0453,0.1192,0.2913,0.325,0.3474,0.3752,0.336,0.2129,0.1121,-0.0336,-0.1175,-0.1449,-0.1378,-0.1198,-0.0858,-0.032,-0.0158,0.0422,0.116,0.1797,0.2447,0.2736,0.3085,-1.4371,-1.4611,-1.4689,-1.4871,-1.5107,-1.4963,-1.4995,-1.511,-1.5149,-1.4937,-1.4743,-1.4921,-1.4774,-1.4442,-1.4576,-1.4569,-1.4355,-1.4195,-1.4135,-1.4222,-1.4222,-1.4282,-1.4355,-1.4283,-1.419,-1.3931,-1.2877,-1.1558,-1.0302,-1.0075,-0.9926,-0.983,-0.9852,-0.9679,-0.9363,-0.9452,-0.9376,-0.9143,-0.9096,-0.8981,-0.88,-0.8843,-0.8734,-0.8371,-0.8199,-0.7851,-0.7267,-0.7248,-0.7149,-0.683,-0.6121,-0.563,-0.5411,-0.4598,-0.4053,-0.4066,-0.3838,-0.3628,-0.3534,-0.3397,-0.3281,-0.323,-0.2976,-0.2773,-0.2773,-0.2321,-0.202,-0.197,-0.1729,-0.1846,-0.2435,-0.3038,-0.3533,-0.3648,-0.3179,-0.252,-0.1984,-0.1392,-0.0672,0.0056,0.0448,0.0336,-0.0056,-0.0392,-0.0841,-0.1289,-0.1575,-0.1808,-0.1755,-0.1317,-0.0749,-0.0454,0.0114,0.1194,0.2534,0.3081,0.353,0.3864,0.2967,0.1792,0.0784,-0.0726,-0.184,-0.2111,-0.215,-0.1962,-0.1569,-0.097,-0.0484,0.0,0.0698,0.1344,0.1999,0.2658,0.2998,-1.4691,-1.4815,-1.5267,-1.5434,-1.5468,-1.5461,-1.545,-1.5418,-1.5398,-1.5237,-1.5042,-1.5048,-1.5048,-1.4968,-1.4975,-1.4995,-1.4803,-1.4396,-1.4302,-1.4502,-1.4522,-1.4663,-1.4877,-1.4685,-1.4589,-1.4557,-1.3426,-1.2016,-1.0615,-1.0325,-1.019,-1.014,-1.0032,-0.9843,-0.952,-0.9597,-0.9456,-0.9239,-0.92,-0.9027,-0.8824,-0.9168,-0.9132,-0.8622,-0.8346,-0.7778,-0.6892,-0.6818,-0.6723,-0.6488,-0.6,-0.55,-0.5181,-0.471,-0.4346,-0.4291,-0.4273,-0.4011,-0.3594,-0.355,-0.3433,-0.3281,-0.3429,-0.3478,-0.3377,-0.3077,-0.2827,-0.2739,-0.2309,-0.2076,-0.2457,-0.2672,-0.2882,-0.2947,-0.2625,-0.2041,-0.1506,-0.1233,-0.0897,-0.0112,0.0168,-0.0056,-0.0504,-0.1065,-0.1739,-0.2364,-0.2953,-0.3441,-0.3393,-0.2796,-0.2218,-0.1502,-0.0403,0.0861,0.1927,0.2969,0.3585,0.392,0.2463,0.1232,0.0503,-0.0725,-0.189,-0.2328,-0.2371,-0.2238,-0.2242,-0.169,-0.1368,-0.0875,0.0,0.0817,0.158,0.2236,0.2786,-1.5315,-1.5463,-1.5643,-1.5689,-1.5689,-1.5737,-1.5718,-1.5644,-1.5644,-1.5524,-1.5331,-1.5471,-1.5351,-1.5129,-1.5209,-1.5157,-1.5001,-1.4807,-1.4743,-1.4816,-1.4823,-1.4914,-1.4963,-1.4925,-1.4372,-1.3507,-1.2871,-1.1865,-1.084,-1.0486,-1.0444,-1.0454,-1.053,-1.0393,-1.0195,-1.0306,-1.0184,-0.9797,-0.9753,-0.9545,-0.9255,-0.9401,-0.9336,-0.8934,-0.8471,-0.7828,-0.7095,-0.6621,-0.6524,-0.6705,-0.6159,-0.5928,-0.5956,-0.5447,-0.5171,-0.5236,-0.4667,-0.4195,-0.3894,-0.3668,-0.3484,-0.3331,-0.3479,-0.3578,-0.3629,-0.3632,-0.3652,-0.3737,-0.3511,-0.3341,-0.2999,-0.2711,-0.2842,-0.3278,-0.2652,-0.1837,-0.0951,0.0056,0.0561,0.0336,0.0448,0.0,-0.1178,-0.1908,-0.248,-0.3753,-0.3955,-0.3983,-0.455,-0.3427,-0.2317,-0.1934,-0.076,0.0463,0.1765,0.253,0.3025,0.3305,0.224,0.1064,0.0279,-0.0778,-0.1884,-0.2432,-0.253,-0.2584,-0.2588,-0.243,-0.2104,-0.166,-0.0937,0.0,0.104,0.1752,0.2362,-1.5635,-1.5778,-1.5825,-1.5825,-1.5825,-1.5825,-1.5825,-1.5825,-1.5825,-1.5725,-1.5618,-1.5745,-1.5638,-1.5378,-1.5484,-1.5451,-1.5297,-1.5291,-1.5284,-1.5257,-1.5202,-1.5177,-1.5264,-1.5284,-1.4681,-1.371,-1.3333,-1.2587,-1.133,-1.1497,-1.1364,-1.0982,-1.1216,-1.1132,-1.0686,-1.0733,-1.0556,-1.0068,-1.0015,-0.9817,-0.9551,-0.9567,-0.9425,-0.896,-0.8233,-0.7599,-0.703,-0.6283,-0.6147,-0.6716,-0.666,-0.6706,-0.6785,-0.6219,-0.585,-0.5618,-0.5181,-0.4581,-0.4078,-0.3833,-0.3584,-0.333,-0.3731,-0.4031,-0.4086,-0.43,-0.4557,-0.4644,-0.4405,-0.4101,-0.3641,-0.3079,-0.3031,-0.3308,-0.2171,-0.1233,-0.028,0.084,0.1234,0.0785,0.0785,-0.0225,-0.1581,-0.2491,-0.3188,-0.4728,-0.4832,-0.4606,-0.5073,-0.3932,-0.3084,-0.2235,-0.1163,0.0173,0.1652,0.2202,0.2411,0.2409,0.2073,0.1121,0.028,-0.1054,-0.2261,-0.259,-0.2691,-0.2817,-0.2879,-0.2839,-0.2625,-0.2171,-0.1721,-0.0943,0.0055,0.1273,0.1996,-1.5635,-1.5778,-1.5825,-1.5825,-1.5825,-1.5825,-1.5825,-1.5825,-1.5825,-1.5771,-1.5812,-1.5818,-1.5812,-1.5805,-1.5772,-1.5758,-1.5805,-1.5758,-1.5738,-1.5685,-1.5558,-1.5531,-1.5712,-1.5718,-1.5246,-1.4613,-1.453,-1.3776,-1.248,-1.2887,-1.2743,-1.1497,-1.1896,-1.1829,-1.1023,-1.085,-1.0605,-1.0216,-1.0068,-0.9916,-0.9657,-0.9571,-0.9365,-0.8795,-0.7859,-0.7214,-0.684,-0.6157,-0.6008,-0.6815,-0.7406,-0.7661,-0.7411,-0.6988,-0.6422,-0.5904,-0.5686,-0.5018,-0.4334,-0.4085,-0.3883,-0.3581,-0.4234,-0.4839,-0.4907,-0.5271,-0.5538,-0.5482,-0.513,-0.4684,-0.444,-0.3877,-0.3408,-0.2855,-0.1512,-0.0224,0.0673,0.1177,0.129,0.0953,0.0786,0.0056,-0.2114,-0.2977,-0.4097,-0.5321,-0.5743,-0.5682,-0.5611,-0.4732,-0.3483,-0.2518,-0.1624,-0.0402,0.0969,0.1298,0.1514,0.1401,0.1233,0.0672,-0.0056,-0.1333,-0.2432,-0.2705,-0.2923,-0.305,-0.3118,-0.3132,-0.3082,-0.2739,-0.2292,-0.1793,-0.084,0.0446,0.1506,-1.5784,-1.5825,-1.5825,-1.5825,-1.5825,-1.5825,-1.5825,-1.5825,-1.5825,-1.5825,-1.5825,-1.5825,-1.5825,-1.5825,-1.5825,-1.5825,-1.5825,-1.5825,-1.5825,-1.5771,-1.5711,-1.5698,-1.5818,-1.5784,-1.5397,-1.4831,-1.4736,-1.4202,-1.3275,-1.3468,-1.3082,-1.2127,-1.2322,-1.2029,-1.1243,-1.1145,-1.09,-1.0605,-1.0364,-1.0167,-0.9871,-0.9677,-0.9327,-0.8775,-0.7928,-0.7385,-0.7188,-0.7205,-0.707,-0.709,-0.8133,-0.8683,-0.853,-0.7845,-0.7319,-0.7084,-0.6211,-0.5436,-0.4937,-0.4537,-0.4336,-0.4383,-0.4794,-0.5319,-0.5797,-0.6344,-0.6604,-0.6621,-0.6524,-0.6253,-0.5598,-0.519,-0.4423,-0.2856,-0.1233,0.0112,0.0673,0.157,0.1907,0.0841,0.0786,-0.0396,-0.2288,-0.3504,-0.4444,-0.597,-0.6251,-0.6027,-0.6057,-0.5167,-0.3751,-0.3044,-0.2208,-0.1037,-0.0057,0.0282,0.0449,0.0392,0.0168,-0.0168,-0.0841,-0.1676,-0.251,-0.3011,-0.3227,-0.3348,-0.3409,-0.3474,-0.3362,-0.3194,-0.2747,-0.2188,-0.1458,-0.0336,0.0727,-1.5825,-1.5825,-1.5825,-1.5825,-1.5825,-1.5825,-1.5825,-1.5825,-1.5825,-1.5825,-1.5825,-1.5825,-1.5825,-1.5825,-1.5825,-1.5825,-1.5825,-1.5825,-1.5825,-1.5825,-1.5818,-1.5818,-1.5825,-1.5778,-1.5547,-1.5213,-1.5166,-1.4729,-1.4196,-1.4286,-1.3854,-1.3141,-1.319,-1.2899,-1.2111,-1.197,-1.1678,-1.1189,-1.085,-1.0511,-1.0019,-0.9723,-0.9179,-0.8531,-0.7882,-0.7434,-0.7188,-0.7637,-0.7842,-0.7919,-0.8642,-0.9229,-0.9118,-0.8528,-0.8031,-0.7832,-0.6836,-0.6037,-0.529,-0.4891,-0.4788,-0.4895,-0.5168,-0.5678,-0.621,-0.6908,-0.7393,-0.7163,-0.7454,-0.7251,-0.6639,-0.6156,-0.4983,-0.3361,-0.1793,-0.0504,0.0449,0.1694,0.1813,0.1077,0.0624,-0.0171,-0.2894,-0.3631,-0.4917,-0.6194,-0.6406,-0.6499,-0.658,-0.5238,-0.4063,-0.3351,-0.282,-0.1824,-0.0681,-0.0113,-0.0112,-0.0224,-0.084,-0.1177,-0.1681,-0.2241,-0.2688,-0.3246,-0.3474,-0.3587,-0.3587,-0.3587,-0.3531,-0.3307,-0.2973,-0.2525,-0.1851,-0.0953,0.0056,-1.5825,-1.5825,-1.5825,-1.5825,-1.5825,-1.5825,-1.5832,-1.5825,-1.5825,-1.5832,-1.5832,-1.5825,-1.5825,-1.5825,-1.5825,-1.5825,-1.5825,-1.5825,-1.5825,-1.5825,-1.5825,-1.5825,-1.5825,-1.5825,-1.5778,-1.5689,-1.5778,-1.5397,-1.5016,-1.5445,-1.4962,-1.4052,-1.4298,-1.4052,-1.3125,-1.2931,-1.25,-1.1727,-1.1145,-1.0659,-1.013,-0.9805,-0.9218,-0.8382,-0.7935,-0.7587,-0.7441,-0.7789,-0.8226,-0.8528,-0.9229,-0.9418,-0.9236,-0.8981,-0.8577,-0.7932,-0.7434,-0.6639,-0.5746,-0.5454,-0.5313,-0.5379,-0.576,-0.613,-0.6602,-0.7322,-0.7609,-0.7505,-0.7761,-0.775,-0.7598,-0.671,-0.5594,-0.4257,-0.3362,-0.1741,0.0056,0.1421,0.1606,0.0803,0.063,-0.0693,-0.2499,-0.3946,-0.4838,-0.6265,-0.6464,-0.6541,-0.6553,-0.5781,-0.4555,-0.3507,-0.3044,-0.2698,-0.1571,-0.0505,-0.0617,-0.0785,-0.1681,-0.2185,-0.2577,-0.3026,-0.325,-0.3475,-0.3587,-0.3587,-0.3587,-0.3587,-0.3587,-0.3363,-0.2973,-0.2748,-0.2412,-0.1402,-0.0336,-1.5825,-1.5825,-1.5825,-1.5825,-1.5825,-1.5825,-1.5927,-1.6076,-1.5879,-1.5879,-1.6021,-1.5879,-1.5825,-1.5825,-1.5825,-1.5825,-1.5825,-1.5832,-1.5825,-1.5825,-1.5825,-1.5825,-1.5825,-1.5825,-1.5825,-1.5825,-1.5825,-1.5683,-1.5635,-1.5588,-1.535,-1.4634,-1.4586,-1.4292,-1.3516,-1.299,-1.2511,-1.2078,-1.1194,-1.0556,-1.0345,-1.0,-0.9457,-0.867,-0.8208,-0.8148,-0.8333,-0.8531,-0.8829,-0.9232,-0.9541,-0.9669,-0.9537,-0.9278,-0.9088,-0.8798,-0.7992,-0.7391,-0.7006,-0.6326,-0.6018,-0.6694,-0.6531,-0.6745,-0.7701,-0.7532,-0.7683,-0.7752,-0.7811,-0.7989,-0.8374,-0.754,-0.6649,-0.5822,-0.4463,-0.3062,-0.1743,-0.0676,-0.034,-0.0565,-0.0792,-0.1532,-0.3343,-0.4085,-0.5052,-0.6166,-0.6493,-0.6517,-0.6306,-0.6039,-0.506,-0.3808,-0.3527,-0.3136,-0.2017,-0.1177,-0.1346,-0.1514,-0.2297,-0.2857,-0.325,-0.3418,-0.3475,-0.3531,-0.3587,-0.3587,-0.3587,-0.3531,-0.3475,-0.3195,-0.2915,-0.2636,-0.2188,-0.1402,-0.0448,-1.5825,-1.5825,-1.5825,-1.5825,-1.5825,-1.5825,-1.5879,-1.5974,-1.5879,-1.5879,-1.5981,-1.5832,-1.5825,-1.5825,-1.5927,-1.5974,-1.5974,-1.5981,-1.5974,-1.5974,-1.5879,-1.5825,-1.5825,-1.5825,-1.5825,-1.5825,-1.5825,-1.5825,-1.5825,-1.5778,-1.5588,-1.5261,-1.5213,-1.4723,-1.3998,-1.3426,-1.2899,-1.2127,-1.1296,-1.0654,-1.039,-1.0188,-0.9861,-0.9259,-0.87,-0.8551,-0.9013,-0.906,-0.9622,-1.018,-1.0327,-1.0138,-0.9999,-0.9731,-0.9764,-0.9883,-0.9091,-0.8426,-0.8031,-0.7376,-0.696,-0.7535,-0.7235,-0.7378,-0.7795,-0.7677,-0.7694,-0.7805,-0.7878,-0.8156,-0.8978,-0.8537,-0.787,-0.711,-0.5784,-0.4438,-0.344,-0.1999,-0.1037,-0.1258,-0.126,-0.2236,-0.3333,-0.4053,-0.4826,-0.5736,-0.6247,-0.6275,-0.6212,-0.5895,-0.5274,-0.4421,-0.4086,-0.3471,-0.2354,-0.1907,-0.2188,-0.2411,-0.2802,-0.3194,-0.3475,-0.3531,-0.3587,-0.3587,-0.3587,-0.3587,-0.3587,-0.3531,-0.3362,-0.3139,-0.2803,-0.2411,-0.202,-0.1403,-0.028,-1.5825,-1.5825,-1.5825,-1.5825,-1.5832,-1.5832,-1.5879,-1.5974,-1.5825,-1.5879,-1.5879,-1.5879,-1.5879,-1.5879,-1.6116,-1.6218,-1.6177,-1.617,-1.6123,-1.6028,-1.5974,-1.5927,-1.5927,-1.5974,-1.5967,-1.5879,-1.5825,-1.5825,-1.5825,-1.5825,-1.5778,-1.5778,-1.5778,-1.5207,-1.4538,-1.4106,-1.3383,-1.2224,-1.1394,-1.0946,-1.0604,-1.0411,-1.0164,-0.9827,-0.9332,-0.9116,-0.9473,-0.9636,-1.0132,-1.136,-1.1148,-1.0961,-1.0852,-1.0509,-1.0408,-1.1038,-0.992,-0.9252,-0.8772,-0.8161,-0.7775,-0.7883,-0.7952,-0.8024,-0.8013,-0.8075,-0.8076,-0.8149,-0.8273,-0.8833,-0.9555,-0.9265,-0.8771,-0.8078,-0.693,-0.5736,-0.4593,-0.2741,-0.205,-0.1726,-0.1942,-0.2685,-0.3244,-0.3846,-0.4555,-0.5206,-0.5712,-0.5993,-0.5935,-0.5822,-0.526,-0.4869,-0.4533,-0.3471,-0.2298,-0.2299,-0.258,-0.2861,-0.3195,-0.3419,-0.3587,-0.3587,-0.3587,-0.3587,-0.3587,-0.3587,-0.3475,-0.3306,-0.3138,-0.297,-0.2635,-0.2243,-0.1852,-0.1461,-0.0169,-1.5825,-1.5825,-1.5825,-1.5933,-1.6076,-1.5879,-1.6069,-1.6353,-1.5967,-1.5933,-1.6123,-1.613,-1.6021,-1.6021,-1.6353,-1.6407,-1.6319,-1.6272,-1.6123,-1.6028,-1.6028,-1.6123,-1.617,-1.6305,-1.6305,-1.6123,-1.5927,-1.5832,-1.5825,-1.5825,-1.5825,-1.5825,-1.5825,-1.535,-1.4538,-1.3956,-1.3232,-1.2181,-1.1369,-1.0951,-1.0892,-1.0685,-1.0515,-1.0294,-0.9965,-0.9955,-0.9979,-1.012,-1.0525,-1.1351,-1.1148,-1.1676,-1.2189,-1.1969,-1.148,-1.0974,-1.0466,-0.9875,-0.9324,-0.8611,-0.8548,-0.8753,-0.8791,-0.8979,-0.8999,-0.8799,-0.8549,-0.8898,-0.9238,-0.9865,-1.0995,-1.0143,-0.9505,-0.8779,-0.7479,-0.5996,-0.4662,-0.3691,-0.3215,-0.2966,-0.2952,-0.3003,-0.3612,-0.3939,-0.4265,-0.4702,-0.4927,-0.5431,-0.5652,-0.5652,-0.5539,-0.5204,-0.4925,-0.3585,-0.213,-0.2467,-0.2805,-0.2915,-0.3195,-0.3363,-0.3475,-0.3587,-0.3589,-0.3604,-0.3597,-0.3531,-0.3362,-0.3194,-0.2915,-0.2747,-0.2355,-0.202,-0.1579,-0.1132,-0.0227,-1.5879,-1.5981,-1.5974,-1.6076,-1.617,-1.6076,-1.6069,-1.6157,-1.6069,-1.6076,-1.6224,-1.6312,-1.6353,-1.6353,-1.6595,-1.6697,-1.6602,-1.6454,-1.6353,-1.6258,-1.6218,-1.6312,-1.64,-1.6588,-1.6407,-1.6218,-1.6076,-1.5927,-1.5825,-1.5825,-1.5825,-1.5825,-1.5778,-1.5255,-1.4292,-1.3709,-1.284,-1.1937,-1.1248,-1.1007,-1.1093,-1.088,-1.0756,-1.07,-1.0543,-1.0498,-1.049,-1.049,-1.1131,-1.2037,-1.1984,-1.2664,-1.3346,-1.3441,-1.2831,-1.2154,-1.1387,-1.0807,-1.0305,-0.971,-0.9254,-0.9428,-0.9391,-0.9254,-0.9096,-0.8764,-0.8693,-0.892,-0.9604,-1.0129,-1.0595,-1.0273,-0.9836,-0.8991,-0.747,-0.6043,-0.5092,-0.4144,-0.3925,-0.4035,-0.4041,-0.4142,-0.4323,-0.4482,-0.4257,-0.4255,-0.4311,-0.4758,-0.526,-0.5483,-0.5596,-0.5485,-0.515,-0.4311,-0.3137,-0.3193,-0.3307,-0.3363,-0.3418,-0.3586,-0.3587,-0.3699,-0.367,-0.3639,-0.3568,-0.3487,-0.3365,-0.3198,-0.2862,-0.247,-0.2191,-0.1803,-0.1306,-0.0685,0.0115,-1.6028,-1.6224,-1.6272,-1.6265,-1.6265,-1.6265,-1.617,-1.6021,-1.617,-1.6272,-1.6312,-1.6548,-1.6636,-1.6683,-1.6831,-1.6925,-1.6885,-1.669,-1.6494,-1.6353,-1.6359,-1.6407,-1.6541,-1.6676,-1.6629,-1.6359,-1.6312,-1.6123,-1.5872,-1.5825,-1.5825,-1.5825,-1.5784,-1.501,-1.3848,-1.3511,-1.2549,-1.1698,-1.1202,-1.1176,-1.12,-1.1155,-1.1082,-1.1055,-1.0911,-1.0781,-1.0757,-1.0702,-1.162,-1.2601,-1.2945,-1.3236,-1.4606,-1.4563,-1.4142,-1.3604,-1.2447,-1.1908,-1.1281,-1.0617,-0.9841,-0.99,-0.997,-0.9592,-0.9279,-0.9196,-0.8986,-0.8934,-0.9592,-1.0413,-1.0707,-1.0295,-0.9896,-0.9028,-0.7304,-0.5594,-0.5227,-0.4734,-0.4521,-0.4711,-0.4988,-0.4998,-0.4938,-0.459,-0.4255,-0.3642,-0.3643,-0.4369,-0.4927,-0.5429,-0.5541,-0.5599,-0.5375,-0.4983,-0.4367,-0.4142,-0.4199,-0.4089,-0.4145,-0.4201,-0.4033,-0.3867,-0.3791,-0.3714,-0.3475,-0.3397,-0.3271,-0.3095,-0.2705,-0.2312,-0.203,-0.1646,-0.115,-0.0697,-0.0058,-1.617,-1.6224,-1.6447,-1.6541,-1.6541,-1.6541,-1.6541,-1.6494,-1.6541,-1.6541,-1.6541,-1.6791,-1.6831,-1.673,-1.6878,-1.6878,-1.673,-1.6636,-1.6421,-1.6211,-1.6448,-1.6644,-1.6704,-1.7052,-1.6878,-1.6602,-1.6494,-1.6258,-1.5832,-1.573,-1.5784,-1.5737,-1.554,-1.5057,-1.3703,-1.3366,-1.2694,-1.1531,-1.1375,-1.1504,-1.1604,-1.1733,-1.1516,-1.1227,-1.1072,-1.1021,-1.1017,-1.0966,-1.1669,-1.3295,-1.3088,-1.3743,-1.4993,-1.488,-1.4272,-1.3588,-1.267,-1.1651,-1.1072,-1.0531,-1.0225,-1.028,-1.0445,-1.0476,-1.0327,-1.0148,-1.0099,-1.0076,-1.0613,-1.1005,-1.1015,-1.0484,-0.9916,-0.8685,-0.7002,-0.5765,-0.5189,-0.4625,-0.4528,-0.5629,-0.6,-0.5433,-0.5039,-0.4646,-0.4199,-0.3475,-0.3141,-0.3923,-0.4761,-0.5373,-0.5875,-0.6042,-0.6156,-0.5764,-0.5429,-0.5258,-0.5037,-0.4927,-0.4815,-0.4815,-0.4541,-0.4271,-0.3859,-0.3712,-0.354,-0.3213,-0.2992,-0.2754,-0.2448,-0.2215,-0.1992,-0.1556,-0.0996,-0.0531,-0.0119,-1.665,-1.665,-1.6784,-1.6831,-1.6831,-1.6831,-1.673,-1.6683,-1.6784,-1.6831,-1.6878,-1.7052,-1.7106,-1.6958,-1.7019,-1.6932,-1.6831,-1.6697,-1.6606,-1.6525,-1.6826,-1.7039,-1.7141,-1.7351,-1.726,-1.6786,-1.6494,-1.6069,-1.5696,-1.543,-1.541,-1.5328,-1.4975,-1.4484,-1.3713,-1.3147,-1.2644,-1.2129,-1.195,-1.1805,-1.172,-1.1683,-1.1568,-1.1131,-1.1131,-1.1236,-1.1295,-1.1131,-1.1832,-1.3241,-1.3197,-1.3748,-1.4886,-1.4934,-1.4326,-1.3673,-1.2753,-1.1941,-1.1295,-1.0755,-1.0638,-1.0659,-1.0799,-1.0951,-1.1145,-1.1122,-1.1011,-1.1,-1.0852,-1.1075,-1.1087,-1.0157,-0.9179,-0.798,-0.654,-0.5772,-0.4962,-0.4348,-0.4306,-0.5699,-0.6835,-0.6041,-0.5491,-0.526,-0.4646,-0.353,-0.3363,-0.3979,-0.4983,-0.5986,-0.6376,-0.6654,-0.6821,-0.6824,-0.6487,-0.6262,-0.5984,-0.5708,-0.5262,-0.5208,-0.4996,-0.4738,-0.4279,-0.381,-0.3545,-0.3212,-0.2758,-0.25,-0.2353,-0.2124,-0.1955,-0.1461,-0.1009,-0.0776,0.0,-1.7026,-1.7066,-1.7066,-1.7026,-1.7026,-1.7066,-1.6925,-1.673,-1.6972,-1.7066,-1.7113,-1.72,-1.7192,-1.7099,-1.6918,-1.6838,-1.6885,-1.676,-1.6826,-1.7077,-1.7258,-1.7432,-1.7488,-1.7625,-1.7392,-1.6805,-1.6814,-1.6271,-1.5574,-1.5118,-1.4972,-1.486,-1.4442,-1.4088,-1.3826,-1.3484,-1.2993,-1.2822,-1.2472,-1.2142,-1.1846,-1.1723,-1.1514,-1.135,-1.1236,-1.14,-1.1623,-1.1623,-1.2323,-1.3408,-1.363,-1.4229,-1.5309,-1.4874,-1.4218,-1.3516,-1.2649,-1.1877,-1.1368,-1.1019,-1.0902,-1.0984,-1.132,-1.1606,-1.2051,-1.193,-1.177,-1.1832,-1.1557,-1.1209,-1.0759,-1.0002,-0.901,-0.7664,-0.6092,-0.5506,-0.495,-0.4606,-0.4681,-0.5818,-0.6613,-0.6498,-0.6063,-0.5989,-0.5204,-0.381,-0.3698,-0.4089,-0.5094,-0.6209,-0.6821,-0.7099,-0.7265,-0.7379,-0.716,-0.6935,-0.6768,-0.6548,-0.6047,-0.5734,-0.5647,-0.5127,-0.4554,-0.4139,-0.366,-0.2966,-0.2322,-0.2288,-0.2261,-0.2046,-0.1768,-0.1485,-0.108,-0.0785,0.0182,-1.7106,-1.7279,-1.7286,-1.7207,-1.7026,-1.7192,-1.7153,-1.6972,-1.72,-1.7239,-1.72,-1.7113,-1.6925,-1.673,-1.6676,-1.6683,-1.669,-1.6937,-1.7029,-1.716,-1.7321,-1.7575,-1.7695,-1.7666,-1.7512,-1.7337,-1.7162,-1.6589,-1.5827,-1.5012,-1.466,-1.4231,-1.388,-1.4061,-1.4235,-1.4145,-1.3653,-1.3377,-1.2976,-1.2515,-1.2118,-1.1896,-1.1787,-1.1623,-1.1564,-1.1678,-1.1951,-1.206,-1.2742,-1.404,-1.4115,-1.4592,-1.5275,-1.4836,-1.413,-1.3247,-1.243,-1.1726,-1.1247,-1.1036,-1.1068,-1.1239,-1.1762,-1.2578,-1.3087,-1.329,-1.3099,-1.2636,-1.2341,-1.2072,-1.1366,-1.0361,-0.9064,-0.7961,-0.6609,-0.575,-0.5373,-0.5264,-0.5387,-0.6193,-0.6453,-0.6456,-0.6009,-0.5766,-0.526,-0.3923,-0.381,-0.4201,-0.5094,-0.6156,-0.7046,-0.749,-0.7712,-0.7715,-0.7607,-0.7438,-0.7379,-0.7173,-0.685,-0.6561,-0.6386,-0.5705,-0.474,-0.4081,-0.3534,-0.2706,-0.211,-0.215,-0.2142,-0.1918,-0.1686,-0.1317,-0.0663,-0.0061,0.1037,-1.7239,-1.7301,-1.7498,-1.7468,-1.7192,-1.7239,-1.7286,-1.7192,-1.7286,-1.7239,-1.7113,-1.7026,-1.6838,-1.6643,-1.6636,-1.6683,-1.6838,-1.6978,-1.7129,-1.7432,-1.7735,-1.7887,-1.7987,-1.8031,-1.806,-1.7654,-1.7327,-1.6613,-1.5392,-1.511,-1.4361,-1.3881,-1.3421,-1.3908,-1.4299,-1.4859,-1.4411,-1.3614,-1.3209,-1.2807,-1.2132,-1.1841,-1.1787,-1.1841,-1.1618,-1.1841,-1.2169,-1.2169,-1.3108,-1.3959,-1.4265,-1.4834,-1.5253,-1.4723,-1.3947,-1.2995,-1.2156,-1.1655,-1.1244,-1.1122,-1.1232,-1.2116,-1.297,-1.381,-1.4119,-1.4262,-1.4,-1.3596,-1.3084,-1.2728,-1.1712,-1.0308,-0.9022,-0.8163,-0.736,-0.6368,-0.5966,-0.5918,-0.5952,-0.6674,-0.6712,-0.6598,-0.6036,-0.5373,-0.476,-0.4091,-0.4203,-0.4428,-0.5218,-0.5949,-0.6794,-0.7396,-0.7616,-0.8045,-0.7937,-0.7934,-0.7934,-0.7744,-0.7497,-0.7182,-0.6807,-0.5766,-0.4892,-0.4158,-0.3397,-0.2619,-0.2134,-0.207,-0.2005,-0.1819,-0.1562,-0.1248,-0.0421,0.0487,0.1524,-1.7286,-1.7355,-1.7582,-1.7604,-1.7479,-1.7425,-1.7425,-1.741,-1.7315,-1.7106,-1.6878,-1.6885,-1.669,-1.644,-1.6447,-1.6636,-1.6826,-1.7075,-1.7385,-1.7712,-1.8034,-1.8302,-1.8383,-1.8427,-1.8333,-1.7916,-1.7677,-1.7052,-1.597,-1.5477,-1.478,-1.3905,-1.3089,-1.3775,-1.4936,-1.5649,-1.5235,-1.4183,-1.3687,-1.3034,-1.2164,-1.1841,-1.1787,-1.1951,-1.1841,-1.201,-1.2426,-1.2628,-1.3101,-1.3825,-1.4192,-1.4479,-1.4574,-1.4365,-1.3626,-1.2831,-1.2148,-1.1648,-1.143,-1.1586,-1.1957,-1.2818,-1.3902,-1.4589,-1.4927,-1.5051,-1.4684,-1.3739,-1.3384,-1.2909,-1.1957,-1.0615,-0.9758,-0.914,-0.8291,-0.7416,-0.7107,-0.6985,-0.6933,-0.7098,-0.6859,-0.6391,-0.5929,-0.5208,-0.454,-0.4105,-0.4301,-0.4472,-0.4927,-0.5662,-0.6334,-0.6934,-0.7299,-0.7782,-0.8263,-0.8162,-0.8017,-0.8096,-0.7859,-0.7552,-0.7016,-0.596,-0.5138,-0.4503,-0.3673,-0.2587,-0.2155,-0.2024,-0.1956,-0.1767,-0.139,-0.096,-0.0476,0.0361,0.1205,-1.7286,-1.7286,-1.7315,-1.7545,-1.7786,-1.7794,-1.7757,-1.7662,-1.745,-1.7099,-1.673,-1.6683,-1.64,-1.6116,-1.6312,-1.6548,-1.6786,-1.7189,-1.7592,-1.8011,-1.8205,-1.8642,-1.8782,-1.8767,-1.8657,-1.8731,-1.8414,-1.7832,-1.697,-1.6265,-1.5453,-1.4604,-1.3944,-1.411,-1.5464,-1.6611,-1.6352,-1.5114,-1.4702,-1.357,-1.2491,-1.206,-1.1951,-1.206,-1.1951,-1.2183,-1.2598,-1.2848,-1.3248,-1.3628,-1.4009,-1.4168,-1.4173,-1.3432,-1.2915,-1.2795,-1.1855,-1.1458,-1.1522,-1.2344,-1.3035,-1.3708,-1.4798,-1.5289,-1.5472,-1.5537,-1.5061,-1.3928,-1.3684,-1.3029,-1.2066,-1.1156,-1.0547,-0.9937,-0.9147,-0.8584,-0.8268,-0.787,-0.7762,-0.737,-0.6614,-0.5945,-0.5595,-0.51,-0.4374,-0.4116,-0.433,-0.4569,-0.4672,-0.4998,-0.5545,-0.6203,-0.6674,-0.7776,-0.8205,-0.8171,-0.81,-0.8245,-0.8184,-0.7945,-0.7036,-0.5823,-0.5165,-0.4719,-0.363,-0.2284,-0.2038,-0.1975,-0.1718,-0.1465,-0.098,-0.0548,-0.018,0.0238,0.1016,-1.7286,-1.7301,-1.7567,-1.7845,-1.8057,-1.7614,-1.7494,-1.7472,-1.7337,-1.7145,-1.6918,-1.6878,-1.669,-1.6501,-1.6548,-1.6744,-1.6928,-1.7164,-1.7622,-1.7957,-1.8225,-1.854,-1.8804,-1.8993,-1.8955,-1.8885,-1.8646,-1.8174,-1.7153,-1.6796,-1.5998,-1.5089,-1.4928,-1.519,-1.5719,-1.6477,-1.6577,-1.5672,-1.4922,-1.4013,-1.2935,-1.2387,-1.2119,-1.2287,-1.2073,-1.2238,-1.2674,-1.281,-1.2961,-1.3389,-1.3717,-1.3771,-1.3683,-1.2958,-1.2736,-1.2458,-1.1696,-1.2018,-1.238,-1.3099,-1.3713,-1.4669,-1.5348,-1.5709,-1.5957,-1.6129,-1.5235,-1.4162,-1.3799,-1.3084,-1.207,-1.1216,-1.0668,-1.0486,-0.9937,-0.9572,-0.9166,-0.8675,-0.8317,-0.7682,-0.6921,-0.6047,-0.5449,-0.5102,-0.4468,-0.4058,-0.4203,-0.3747,-0.3679,-0.395,-0.4385,-0.5162,-0.5984,-0.7368,-0.8208,-0.8463,-0.8699,-0.89,-0.8701,-0.8316,-0.721,-0.5758,-0.4818,-0.418,-0.3081,-0.2038,-0.1915,-0.1789,-0.141,-0.1039,-0.0673,0.0,0.0,0.0,0.0657,-1.7286,-1.7308,-1.756,-1.7772,-1.7911,-1.7578,-1.7395,-1.7301,-1.7286,-1.7192,-1.7019,-1.6979,-1.6831,-1.673,-1.6878,-1.7087,-1.717,-1.7374,-1.7816,-1.8116,-1.8357,-1.8701,-1.8979,-1.9147,-1.9124,-1.9071,-1.8974,-1.8555,-1.7918,-1.749,-1.6583,-1.5785,-1.5785,-1.5885,-1.6258,-1.6736,-1.6849,-1.5992,-1.5244,-1.4498,-1.3472,-1.2831,-1.2484,-1.2371,-1.2151,-1.1959,-1.2264,-1.239,-1.236,-1.2953,-1.3313,-1.3355,-1.3223,-1.3144,-1.2844,-1.2371,-1.2191,-1.2655,-1.337,-1.3545,-1.4312,-1.558,-1.5822,-1.5709,-1.5596,-1.5413,-1.4634,-1.3858,-1.3674,-1.2964,-1.201,-1.122,-1.1095,-1.0914,-1.0793,-1.0425,-1.0229,-0.9734,-0.8947,-0.8256,-0.7174,-0.6242,-0.5416,-0.5069,-0.4626,-0.432,-0.402,-0.3449,-0.2941,-0.328,-0.3623,-0.4307,-0.5431,-0.6907,-0.8245,-0.9231,-0.941,-0.958,-0.9147,-0.865,-0.7097,-0.5624,-0.4605,-0.3634,-0.2715,-0.2038,-0.1853,-0.1602,-0.1228,-0.0916,-0.0547,0.0,0.0,0.0,0.0,-1.7286,-1.7286,-1.7286,-1.7315,-1.7374,-1.7677,-1.7571,-1.7293,-1.7286,-1.7192,-1.7026,-1.7019,-1.6954,-1.6819,-1.6961,-1.7234,-1.7464,-1.7734,-1.8132,-1.854,-1.8679,-1.895,-1.9118,-1.9257,-1.9272,-1.9272,-1.9227,-1.9026,-1.8764,-1.7859,-1.6842,-1.6258,-1.6252,-1.6465,-1.6783,-1.7107,-1.7001,-1.6371,-1.5797,-1.5061,-1.4098,-1.3466,-1.3026,-1.2659,-1.2049,-1.1688,-1.1748,-1.1883,-1.1765,-1.2252,-1.3057,-1.3186,-1.326,-1.3384,-1.3144,-1.2844,-1.2543,-1.32,-1.4033,-1.4093,-1.4689,-1.5521,-1.4689,-1.4694,-1.4753,-1.4634,-1.3918,-1.332,-1.2955,-1.2487,-1.1833,-1.1772,-1.1651,-1.1651,-1.1651,-1.1458,-1.1257,-1.0662,-0.9739,-0.8769,-0.7466,-0.6452,-0.56,-0.5142,-0.5045,-0.4672,-0.4313,-0.3737,-0.3335,-0.3106,-0.3402,-0.3597,-0.4863,-0.6517,-0.7878,-0.9428,-0.9957,-1.0069,-0.935,-0.8651,-0.7021,-0.5347,-0.4186,-0.3206,-0.253,-0.2038,-0.1791,-0.1483,-0.1111,-0.0736,-0.0427,0.0,0.0,0.0,0.0238,-1.7286,-1.7286,-1.7286,-1.741,-1.7677,-1.7772,-1.7625,-1.7301,-1.7286,-1.7239,-1.7192,-1.7239,-1.7312,-1.7478,-1.7548,-1.7751,-1.7967,-1.8169,-1.843,-1.8664,-1.8847,-1.903,-1.9169,-1.9272,-1.9272,-1.9272,-1.9279,-1.9175,-1.8705,-1.7905,-1.7483,-1.716,-1.673,-1.6942,-1.7232,-1.7536,-1.7186,-1.6885,-1.6468,-1.5705,-1.4966,-1.4264,-1.3658,-1.2819,-1.1942,-1.1521,-1.1142,-1.1386,-1.1423,-1.19,-1.3075,-1.3384,-1.2835,-1.3084,-1.3024,-1.2191,-1.2191,-1.2672,-1.3978,-1.332,-1.3499,-1.4927,-1.3973,-1.3555,-1.3858,-1.3978,-1.3444,-1.29,-1.2414,-1.1941,-1.1708,-1.1651,-1.1591,-1.1591,-1.1651,-1.1647,-1.139,-1.0695,-0.9774,-0.8916,-0.7657,-0.6791,-0.5983,-0.571,-0.5611,-0.5106,-0.4618,-0.4091,-0.3617,-0.3381,-0.3218,-0.3357,-0.4534,-0.621,-0.8212,-0.984,-1.0266,-1.0521,-0.9596,-0.8211,-0.6183,-0.4616,-0.3635,-0.2837,-0.2285,-0.1915,-0.1668,-0.1235,-0.0803,-0.0556,0.0,0.0,0.0,0.0,0.0178,-1.7286,-1.7286,-1.7286,-1.7468,-1.7801,-1.7947,-1.7882,-1.7706,-1.7582,-1.7523,-1.7538,-1.7677,-1.7823,-1.7928,-1.7979,-1.8132,-1.8482,-1.8511,-1.8686,-1.8935,-1.8957,-1.9103,-1.9235,-1.9272,-1.9272,-1.9272,-1.9279,-1.9227,-1.881,-1.8227,-1.7747,-1.7483,-1.716,-1.7397,-1.7596,-1.7695,-1.7709,-1.7406,-1.7047,-1.646,-1.5867,-1.521,-1.4256,-1.3217,-1.2245,-1.1243,-1.0722,-1.105,-1.1179,-1.1619,-1.2775,-1.3619,-1.3075,-1.2964,-1.2784,-1.2126,-1.2251,-1.3084,-1.4038,-1.3324,-1.3913,-1.4272,-1.338,-1.2779,-1.2784,-1.2969,-1.2668,-1.2367,-1.1937,-1.1575,-1.1398,-1.1281,-1.1345,-1.1345,-1.153,-1.1655,-1.1042,-1.0368,-0.963,-0.89,-0.8085,-0.7269,-0.6691,-0.6471,-0.6069,-0.5425,-0.4869,-0.4335,-0.3785,-0.3354,-0.3134,-0.3036,-0.4405,-0.6,-0.7977,-0.9623,-0.9863,-0.9803,-0.9061,-0.753,-0.5412,-0.4126,-0.3266,-0.2653,-0.21,-0.1791,-0.1544,-0.0926,-0.0432,-0.0185,0.0246,0.0,0.0,0.0,0.0296,-1.7344,-1.7381,-1.7359,-1.7618,-1.7874,-1.8167,-1.8269,-1.8277,-1.8013,-1.7874,-1.7918,-1.8152,-1.8269,-1.8321,-1.835,-1.8525,-1.8745,-1.884,-1.8935,-1.9264,-1.9206,-1.925,-1.925,-1.9272,-1.9272,-1.9272,-1.9272,-1.9175,-1.9056,-1.8586,-1.8062,-1.7694,-1.7477,-1.7609,-1.7849,-1.7516,-1.7602,-1.8079,-1.7579,-1.698,-1.6564,-1.6039,-1.5363,-1.4048,-1.2578,-1.1149,-1.0793,-1.066,-1.0664,-1.1386,-1.259,-1.3913,-1.3499,-1.2904,-1.2539,-1.2303,-1.2247,-1.3024,-1.3619,-1.3264,-1.3495,-1.3614,-1.3135,-1.2363,-1.2251,-1.2311,-1.2134,-1.1643,-1.1156,-1.0725,-1.0482,-1.0365,-1.0365,-1.055,-1.0796,-1.0978,-1.0914,-1.0122,-0.9271,-0.8723,-0.8416,-0.7723,-0.7591,-0.7299,-0.6798,-0.5974,-0.5185,-0.4704,-0.4209,-0.3643,-0.3232,-0.3012,-0.428,-0.5792,-0.7331,-0.8696,-0.9156,-0.8952,-0.8282,-0.6938,-0.4798,-0.3757,-0.302,-0.2468,-0.1915,-0.173,-0.1359,-0.0679,0.0,0.0493,0.0919,0.1515,0.1323,0.0657,0.0469,-1.7845,-1.8064,-1.8072,-1.8123,-1.8189,-1.8269,-1.8313,-1.8321,-1.8503,-1.8416,-1.824,-1.8299,-1.8467,-1.8657,-1.8672,-1.884,-1.9067,-1.9096,-1.9191,-1.925,-1.9272,-1.9272,-1.9272,-1.9272,-1.9272,-1.9272,-1.922,-1.9116,-1.8803,-1.8646,-1.8436,-1.7859,-1.7595,-1.7523,-1.7776,-1.7324,-1.7492,-1.8324,-1.8089,-1.7738,-1.7528,-1.6767,-1.5979,-1.4346,-1.2627,-1.1191,-1.0725,-1.0547,-1.0668,-1.1152,-1.3306,-1.3973,-1.3629,-1.3024,-1.2483,-1.207,-1.207,-1.2668,-1.314,-1.308,-1.308,-1.314,-1.2779,-1.2247,-1.1949,-1.1833,-1.153,-1.0978,-1.0368,-0.9937,-0.9569,-0.9447,-0.9451,-0.9754,-1.0001,-1.0304,-1.0607,-0.9758,-0.8906,-0.8784,-0.8604,-0.8474,-0.8343,-0.8027,-0.7527,-0.6729,-0.5756,-0.5143,-0.4711,-0.4203,-0.3527,-0.3421,-0.4219,-0.5576,-0.7006,-0.7986,-0.848,-0.8044,-0.7365,-0.5837,-0.4186,-0.3267,-0.2468,-0.216,-0.1791,-0.1544,-0.1111,-0.0247,0.0431,0.0986,0.1775,0.2423,0.1904,0.1178,0.0983,-1.8138,-1.8313,-1.846,-1.8518,-1.854,-1.8672,-1.8738,-1.8767,-1.8928,-1.8906,-1.8752,-1.8752,-1.884,-1.9001,-1.9008,-1.9052,-1.9316,-1.9264,-1.9257,-1.9264,-1.9272,-1.9272,-1.9272,-1.9272,-1.9272,-1.9272,-1.9279,-1.9071,-1.8705,-1.8653,-1.8548,-1.776,-1.7345,-1.7225,-1.735,-1.7012,-1.7351,-1.8252,-1.8302,-1.8366,-1.8314,-1.7615,-1.6697,-1.4971,-1.3531,-1.1976,-1.1265,-1.1152,-1.1273,-1.1756,-1.3315,-1.3739,-1.3449,-1.2964,-1.2479,-1.2126,-1.2014,-1.2195,-1.2668,-1.2719,-1.2539,-1.2719,-1.2599,-1.2122,-1.1893,-1.1837,-1.1776,-1.1163,-0.9819,-0.9265,-0.9086,-0.8964,-0.9086,-0.9329,-0.9329,-0.9447,-0.9268,-0.8662,-0.8723,-0.9335,-0.9153,-0.9089,-0.8897,-0.865,-0.803,-0.6811,-0.5968,-0.5297,-0.4931,-0.4501,-0.3887,-0.3701,-0.4375,-0.517,-0.6335,-0.7255,-0.7991,-0.7373,-0.6326,-0.486,-0.3329,-0.2654,-0.1977,-0.1853,-0.1668,-0.142,-0.0802,0.0062,0.0863,0.148,0.2386,0.3333,0.2554,0.1805,0.1607,-1.8372,-1.8408,-1.8716,-1.8855,-1.8884,-1.9192,-1.925,-1.925,-1.9264,-1.9264,-1.922,-1.922,-1.9272,-1.9272,-1.9272,-1.9272,-1.9272,-1.9272,-1.9272,-1.9272,-1.9272,-1.9272,-1.9272,-1.9272,-1.9272,-1.9272,-1.9279,-1.913,-1.8876,-1.8869,-1.8496,-1.7496,-1.7066,-1.6917,-1.6663,-1.6806,-1.7372,-1.8127,-1.8535,-1.8816,-1.8706,-1.8369,-1.7303,-1.6107,-1.4852,-1.3536,-1.2651,-1.2178,-1.2178,-1.2539,-1.3084,-1.3389,-1.3384,-1.2964,-1.2599,-1.2242,-1.2005,-1.2311,-1.2608,-1.2479,-1.2543,-1.2659,-1.2354,-1.2118,-1.1893,-1.1776,-1.1776,-1.1163,-0.9819,-0.89,-0.8781,-0.8477,-0.8659,-0.8964,-0.8839,-0.8596,-0.8175,-0.7811,-0.8543,-0.9335,-0.9457,-0.9332,-0.9332,-0.9086,-0.8352,-0.7133,-0.6217,-0.5544,-0.4933,-0.4378,-0.3824,-0.3824,-0.4253,-0.5049,-0.5663,-0.6337,-0.7011,-0.6088,-0.4983,-0.3697,-0.2716,-0.2285,-0.1977,-0.1791,-0.1606,-0.1235,-0.0556,0.0247,0.1049,0.1722,0.2787,0.3468,0.2883,0.2254,0.2178,-1.8694,-1.8723,-1.9045,-1.9177,-1.9184,-1.925,-1.9272,-1.9272,-1.9272,-1.9272,-1.9272,-1.9272,-1.9272,-1.9272,-1.9272,-1.9272,-1.9272,-1.9272,-1.9272,-1.9272,-1.9272,-1.9272,-1.9272,-1.9272,-1.9272,-1.9272,-1.9279,-1.913,-1.9026,-1.9078,-1.8593,-1.7477,-1.6967,-1.6906,-1.6964,-1.7127,-1.7294,-1.8078,-1.8621,-1.8869,-1.9041,-1.8538,-1.7649,-1.6397,-1.5084,-1.3715,-1.2651,-1.2238,-1.2178,-1.2479,-1.308,-1.3384,-1.3324,-1.3084,-1.2779,-1.2419,-1.2182,-1.2122,-1.2242,-1.2242,-1.2363,-1.2191,-1.2005,-1.2062,-1.1893,-1.1837,-1.1776,-1.1655,-1.0429,-0.9268,-0.8781,-0.8169,-0.8108,-0.8717,-0.8961,-0.8236,-0.7691,-0.7508,-0.7691,-0.8421,-0.8845,-0.915,-0.9579,-0.9332,-0.9028,-0.7867,-0.6827,-0.6156,-0.5358,-0.4622,-0.3824,-0.3884,-0.4069,-0.4067,-0.4312,-0.5109,-0.5538,-0.4618,-0.382,-0.3022,-0.2469,-0.2162,-0.1915,-0.173,-0.142,-0.105,-0.0309,0.037,0.0796,0.1521,0.2808,0.3469,0.3015,0.2699,0.2566]}]]